GFSWCAN_con_lsi_000.txt.gz
Lid_Strength_Index
1 1 1 2 2 2 2 2 2 2 2 2 2 2 3 3 3 5 6 6 6 9 9 8 9 12 12 12 12 12 12 12 13 14 14 16 16 16 17 16 16 17 18 18 18 19 19 11 11 13 12 11 12 11
1 1 2 3 2 3 3 3 2 3 2 2 2 2 3 3 3 4 7 5 6 7 8 7 6 7 9 9 11 12 11 13 13 14 15 15 16 17 17 18 15 16 14 14 15 15 11 11 11 11 10 11 12 12
2 2 2 3 3 3 3 3 3 3 3 3 3 2 2 2 3 4 7 7 7 8 9 8 8 6 5 7 7 11 11 10 10 10 13 14 15 15 17 17 17 14 12 13 13 12 12 11 12 11 11 11 11 11
2 2 3 3 3 3 3 3 3 3 3 3 3 2 2 2 3 3 6 6 6 7 10 9 6 7 5 5 6 7 8 7 8 8 11 12 12 12 14 14 15 13 13 13 13 12 12 12 11 11 11 11 12 12
2 3 3 3 3 3 3 3 4 3 3 3 2 2 2 2 2 3 4 5 5 7 10 9 7 7 6 5 6 7 8 9 10 10 12 12 11 12 14 14 14 12 13 14 14 12 12 12 11 11 11 12 11 12
2 3 3 3 3 3 3 3 4 3 3 3 3 3 2 2 2 4 7 5 4 5 9 14 8 9 7 7 7 7 8 8 9 10 11 11 10 12 15 14 12 12 11 10 12 11 11 11 12 12 13 13 13 13
3 3 3 3 3 3 3 3 3 3 3 3 3 3 2 3 4 6 8 6 5 4 9 13 12 10 9 8 8 8 8 9 9 11 12 11 11 12 14 15 13 12 11 11 12 11 12 12 12 13 13 13 13 12
4 3 3 3 3 3 3 4 4 4 4 3 3 3 3 3 4 6 6 5 4 6 8 14 13 12 9 11 11 9 10 9 9 10 10 11 10 11 14 13 13 12 12 12 12 12 12 13 14 14 13 13 14 14
6 5 3 3 3 4 4 3 4 4 4 4 4 3 4 6 7 7 5 5 5 7 11 12 14 14 10 11 11 10 10 12 10 11 11 11 12 13 13 12 12 11 12 12 14 16 17 15 15 14 14 13 14 14
7 6 6 5 3 3 3 3 4 4 3 4 6 8 10 8 6 5 7 9 10 9 10 12 10 13 10 11 12 13 12 13 15 12 10 12 13 11 11 10 10 11 12 14 16 18 20 19 15 15 14 14 14 13
7 7 7 6 5 4 4 4 4 4 4 7 10 11 9 6 8 10 12 13 12 13 11 11 11 12 10 13 13 12 14 14 17 17 14 15 17 14 12 13 14 15 15 14 15 16 15 14 14 14 14 14 14 15
7 7 7 6 6 5 4 4 3 5 6 7 9 8 8 10 12 14 14 14 14 16 13 13 12 12 12 11 13 12 14 14 18 14 15 18 15 14 14 15 15 15 14 14 14 14 14 14 14 14 14 14 15 16
7 7 7 7 6 6 5 4 4 5 6 8 10 12 12 13 17 18 20 17 17 15 14 13 14 13 13 13 14 14 16 17 15 17 19 17 15 15 16 15 16 16 16 15 16 16 16 15 14 15 15 17 17 18
7 7 7 7 7 6 6 5 5 5 7 11 13 16 16 18 18 19 19 18 16 15 13 13 14 14 13 15 15 17 16 16 19 20 20 17 17 15 15 16 16 16 16 15 16 16 17 17 16 17 17 18 18 19
6 7 7 7 7 7 6 6 5 7 10 13 13 17 17 19 17 18 16 16 15 14 13 14 15 14 16 16 15 16 18 19 19 19 17 18 20 19 16 16 16 16 16 16 16 16 17 18 19 19 18 18 18 18
5 6 7 7 7 7 6 6 7 9 11 12 15 18 16 17 16 20 23 15 15 14 15 17 16 18 17 18 18 20 20 20 18 16 18 20 16 16 16 16 16 16 16 15 15 15 16 17 18 18 18 18 18 17
6 7 6 6 6 6 6 9 10 13 14 14 16 15 18 18 16 18 15 15 13 17 20 16 22 22 17 19 20 18 18 16 16 18 19 18 16 15 15 15 15 16 16 15 15 15 16 16 18 18 18 18 17 17
6 6 5 6 6 7 8 10 12 13 14 14 17 16 13 13 14 15 16 15 14 16 17 19 18 21 22 22 21 17 15 16 19 18 18 16 15 15 16 15 15 16 16 16 17 19 20 21 19 17 18 19 19 18
5 5 5 5 6 8 12 12 11 13 13 13 14 16 14 13 13 14 15 14 15 15 14 16 17 21 19 18 16 16 21 20 16 15 15 14 14 14 14 17 18 20 19 19 17 16 16 17 17 17 16 16 16 15
3 4 4 5 5 10 12 12 10 12 14 13 14 15 15 15 14 14 14 15 17 18 16 18 17 17 15 14 15 17 17 15 15 16 15 14 14 19 18 19 17 17 17 18 19 16 19 17 16 16 16 15 16 16
3 3 4 7 8 8 10 11 11 11 12 13 14 14 15 14 14 15 16 16 18 14 15 16 15 13 15 16 14 14 15 15 15 15 15 17 15 19 20 21 21 16 17 17 16 16 15 16 17 17 18 16 16 16
4 2 5 6 9 9 10 9 10 11 13 13 12 14 15 15 15 14 12 14 14 16 14 13 14 15 16 15 14 15 14 15 15 16 13 14 18 20 19 19 19 20 20 19 18 17 17 17 16 16 17 18 17 18
2 3 6 7 9 10 11 9 12 12 15 14 13 15 15 15 14 12 13 13 14 12 13 14 16 16 15 16 16 17 16 16 17 17 16 17 17 18 18 17 16 17 17 17 17 16 17 15 15 17 18 18 19 19
2 9 10 11 10 12 12 12 10 13 14 15 15 17 16 15 13 14 15 17 15 14 14 15 17 18 19 19 17 17 17 17 17 17 17 18 19 16 15 16 15 15 14 16 16 17 18 18 16 19 20 20 21 21
10 10 13 15 12 12 13 14 13 13 15 16 19 18 17 15 18 18 20 18 17 17 18 18 19 20 23 21 17 17 16 16 17 18 16 15 16 16 16 16 16 16 16 17 18 18 20 20 20 20 21 21 22 21
11 10 11 18 13 17 14 14 14 14 17 20 19 17 19 18 19 20 19 20 21 20 20 21 22 21 18 18 18 17 17 17 15 16 16 14 14 15 17 17 18 19 17 17 19 20 20 20 20 22 21 20 17 20
16 14 10 8 11 13 15 14 13 16 20 19 16 17 19 21 20 18 20 20 20 20 19 19 20 20 21 20 16 16 17 18 17 17 15 15 15 14 16 18 19 18 16 17 19 19 20 20 20 21 21 21 22 22
11 12 14 12 14 16 18 18 20 19 18 15 16 20 19 18 18 21 22 21 22 23 22 19 19 21 21 21 20 18 18 17 17 16 15 16 16 17 16 16 16 14 18 20 19 20 20 21 21 21 21 22 21 21
10 12 12 11 16 18 18 17 16 15 12 14 17 18 18 18 23 23 20 20 23 22 21 22 21 21 19 18 18 18 17 17 17 18 18 19 19 18 18 18 19 19 21 20 16 17 20 20 20 20 23 21 20 21
11 14 16 19 17 14 15 15 18 20 15 16 16 19 19 21 22 20 20 22 21 22 24 23 22 21 20 22 21 19 18 18 18 18 18 19 19 19 20 21 21 21 22 22 22 22 17 20 21 23 23 22 21 21
14 17 18 18 17 19 18 15 15 13 16 19 17 19 21 23 20 20 22 22 21 21 20 21 20 18 18 19 20 19 19 18 18 17 18 18 19 19 21 22 22 23 23 22 23 23 24 25 26 25 23 24 23 21
12 11 17 20 21 19 18 18 17 18 18 19 19 20 18 18 18 21 21 22 21 21 18 18 19 19 18 18 17 16 15 18 18 19 19 19 19 19 20 21 23 22 22 22 22 23 24 26 24 23 22 23 23 22
17 17 18 19 20 20 17 16 17 20 22 23 21 19 19 17 19 22 20 19 20 20 20 20 19 19 19 19 19 18 17 18 16 13 12 12 13 15 18 20 21 20 20 20 21 21 22 24 24 23 23 24 24 23

GFSWCAN_con_lsi_003.txt.gz
Lid_Strength_Index
5 4 4 1 1 1 1 2 1 1 1 1 1 1 2 2 3 4 6 6 7 10 10 9 10 12 13 12 12 12 11 12 13 13 13 14 15 15 16 16 16 17 18 18 17 18 18 12 12 13 12 11 11 12
5 5 4 2 1 1 2 2 2 2 2 2 1 1 2 2 3 4 7 6 6 7 9 7 7 8 10 10 12 12 11 12 11 13 14 15 16 17 16 17 15 16 14 16 15 15 12 11 11 11 11 11 12 12
5 5 4 3 2 2 2 2 2 2 2 2 2 1 2 2 3 4 7 7 7 9 8 8 9 6 6 7 8 11 11 11 11 11 14 14 15 16 17 16 17 15 14 14 13 13 12 12 11 11 11 11 11 11
6 6 5 3 2 2 2 3 2 2 2 2 2 2 2 1 2 3 6 6 7 8 10 9 6 7 6 6 7 8 9 8 8 10 13 13 13 13 15 14 15 14 13 14 14 14 13 13 12 11 11 12 12 12
7 6 5 2 2 3 3 3 3 2 2 2 2 2 2 2 2 3 4 5 5 8 10 10 8 7 6 6 7 7 8 9 10 11 12 12 10 11 13 14 14 14 14 15 15 12 13 13 11 11 12 12 12 13
7 6 4 2 3 3 3 3 3 3 3 3 2 2 2 1 2 5 8 5 4 5 8 12 8 9 7 7 7 8 8 8 10 10 11 11 10 12 15 16 14 13 12 12 12 12 12 12 12 13 12 13 13 13
7 5 2 3 3 3 3 3 3 3 3 3 3 2 2 2 4 6 9 7 5 4 9 12 12 9 9 8 8 8 8 9 9 11 12 11 11 12 15 16 13 13 12 12 13 12 13 12 13 14 13 12 12 12
7 7 3 3 3 3 3 3 3 3 3 3 2 2 3 3 4 6 5 4 4 7 9 14 13 12 9 10 11 8 9 9 9 11 11 11 11 13 16 14 14 13 12 12 12 12 12 13 14 14 14 13 14 14
7 7 6 3 3 3 3 3 3 3 3 3 3 3 4 6 7 6 4 4 5 7 12 12 14 15 9 11 11 11 10 13 10 12 12 12 14 15 14 13 13 12 13 12 15 15 14 15 14 16 16 17 14 14
7 7 6 5 3 3 3 3 3 3 3 3 5 8 10 8 5 5 7 8 10 9 10 13 11 13 10 11 12 12 12 14 15 13 12 13 14 12 13 12 12 12 12 14 15 16 18 19 20 17 16 15 14 13
7 7 7 6 5 3 3 3 3 3 3 6 9 11 8 6 8 10 12 12 12 14 11 12 12 12 10 13 13 12 14 14 17 15 14 16 19 16 14 14 14 15 13 13 14 16 16 16 15 16 15 15 15 15
7 7 7 7 6 4 3 3 3 4 6 7 8 7 8 11 13 16 14 14 14 15 13 12 12 11 11 11 13 13 15 15 18 14 15 18 17 15 14 15 15 14 14 14 14 14 15 15 15 15 15 15 15 15
6 7 7 7 6 6 4 3 3 5 5 7 10 12 12 13 16 18 20 17 17 14 13 12 13 12 12 12 14 14 16 17 15 17 18 20 18 17 17 16 16 16 15 15 15 15 16 16 15 15 15 15 16 18
6 7 7 7 6 6 6 5 4 5 7 12 13 15 14 16 18 18 19 18 16 13 12 11 13 13 12 14 14 16 16 16 21 24 23 21 19 16 16 16 16 16 16 16 16 16 16 17 17 16 16 16 18 19
5 6 6 7 7 6 7 6 6 6 10 13 13 15 16 18 19 22 16 14 14 11 12 14 15 14 16 15 15 16 18 19 21 22 21 20 19 18 16 16 16 16 17 17 17 16 16 17 18 19 18 19 19 19
5 6 7 6 6 6 7 6 8 9 13 14 14 18 16 18 17 17 17 14 13 12 14 15 17 18 17 16 17 18 20 22 21 20 19 21 17 17 16 16 16 16 17 17 17 16 16 16 17 18 18 19 19 19
5 7 6 5 5 6 6 9 11 13 13 14 15 15 19 20 17 15 14 13 12 12 18 17 21 20 17 19 21 19 19 19 19 20 20 18 17 16 16 15 14 15 16 16 17 16 16 16 17 19 19 19 19 18
7 6 5 5 5 6 8 10 12 12 14 14 16 16 15 15 15 15 16 13 13 15 17 19 18 19 20 22 21 18 19 21 21 19 17 16 16 15 16 15 14 15 16 16 18 20 21 22 20 18 19 20 21 20
6 5 4 5 6 8 11 11 11 13 13 13 15 16 15 14 15 15 14 14 14 14 15 16 20 21 19 18 19 22 23 20 17 16 16 15 15 15 14 17 18 20 20 20 18 17 17 17 18 18 18 18 18 18
3 4 4 5 5 10 11 11 10 12 13 13 13 15 15 15 15 13 14 14 15 16 19 20 18 16 16 16 18 19 18 16 16 16 16 15 15 19 19 19 17 18 18 20 21 17 20 18 18 17 18 17 18 17
3 4 4 6 8 8 10 11 11 11 12 14 13 14 14 15 16 15 14 16 17 21 19 16 15 15 17 17 15 15 16 16 16 16 16 18 17 20 21 22 22 18 18 18 18 17 16 17 18 19 19 17 17 16
5 2 5 6 8 9 10 10 11 11 13 13 13 13 15 15 16 15 13 15 18 16 15 15 15 15 16 16 16 16 16 16 17 17 15 15 18 20 20 21 20 22 21 21 21 19 20 19 18 17 17 18 17 18
2 3 6 7 10 10 12 9 13 12 14 14 13 14 15 15 14 12 14 15 14 13 14 14 15 17 17 17 17 19 18 18 19 19 18 18 18 20 21 19 20 23 22 20 19 19 19 15 15 18 19 19 19 20
3 9 10 10 10 12 10 12 11 13 13 13 14 16 16 17 13 15 16 17 15 14 15 17 19 20 20 21 19 19 19 18 19 18 19 20 21 18 18 18 17 19 18 18 18 19 19 18 17 20 20 21 22 22
12 14 13 14 13 14 15 16 15 15 15 15 16 16 16 14 16 17 19 17 16 17 18 19 19 19 22 20 19 19 18 18 19 19 17 16 18 19 20 19 19 18 18 19 19 19 20 20 21 21 21 22 23 23
14 12 18 19 17 16 14 18 15 15 15 16 17 16 16 16 18 19 19 19 19 20 22 23 23 22 19 19 19 19 19 19 18 18 19 17 17 20 23 21 22 20 18 17 19 19 19 20 21 23 22 22 18 22
19 16 10 8 12 13 15 13 13 14 16 17 18 18 18 19 20 18 19 18 18 20 19 20 20 21 21 20 18 18 18 20 21 21 18 17 17 17 19 19 20 18 17 17 17 18 20 21 21 22 23 23 24 23
12 12 15 10 14 16 18 19 20 19 18 15 15 20 19 18 18 20 20 19 20 21 21 19 20 21 23 22 22 19 20 19 19 19 17 17 17 17 16 16 15 14 18 19 21 21 20 21 21 20 21 22 23 24
14 11 12 11 15 18 18 17 17 15 13 15 18 19 19 19 24 24 20 21 23 22 21 22 21 22 20 20 20 19 19 19 20 21 20 20 19 19 18 18 19 19 20 20 15 17 19 19 19 20 23 23 23 23
11 12 15 16 16 14 15 16 19 20 15 16 16 19 20 22 23 22 22 24 23 23 24 24 24 24 24 23 23 20 19 19 18 17 19 18 18 19 20 20 20 21 21 20 20 21 16 20 21 24 24 24 22 21
13 18 19 18 19 20 20 16 15 14 18 21 20 20 22 24 21 21 23 24 24 24 23 23 23 23 21 20 21 20 19 18 18 18 18 17 18 19 20 20 21 21 21 22 22 23 25 26 27 27 24 25 25 22
11 10 13 18 19 20 19 19 20 20 21 21 22 22 21 19 20 21 21 23 22 21 19 20 20 19 17 17 17 17 15 18 18 18 18 18 18 19 18 19 20 21 21 21 23 23 25 26 25 24 22 24 24 24
16 15 17 19 22 22 19 20 20 22 22 23 22 20 21 18 20 22 19 20 21 20 19 19 19 18 18 18 18 17 17 18 15 13 12 13 14 16 18 20 21 21 21 20 21 22 23 25 25 23 23 25 25 24

GFSWCAN_con_lsi_006.txt.gz
Lid_Strength_Index
5 5 5 4 4 3 1 1 1 2 2 1 1 1 1 1 2 5 6 6 8 11 11 10 10 13 13 13 14 14 12 12 13 14 15 16 16 16 16 16 17 17 18 18 17 18 18 12 12 13 12 12 11 12
5 5 5 5 4 4 2 1 1 2 2 1 1 1 1 1 2 4 7 6 6 9 10 8 9 9 10 10 12 13 12 13 12 13 14 14 15 16 15 16 14 15 15 16 16 16 13 13 13 12 11 12 12 11
6 6 6 6 5 5 3 1 2 2 2 1 1 1 1 1 1 3 7 7 7 8 9 9 9 7 7 8 9 10 11 10 11 11 13 13 15 15 16 16 17 15 14 14 14 13 13 12 11 11 11 11 11 11
6 6 6 6 5 5 4 2 2 2 1 1 1 1 1 1 1 3 6 6 7 8 10 9 6 9 7 7 9 9 9 9 9 10 12 13 13 13 15 14 15 14 13 14 15 14 13 12 12 11 11 11 11 12
6 6 6 6 5 4 3 2 2 2 2 1 1 1 1 1 1 3 5 5 5 7 9 9 7 7 7 7 7 8 9 10 11 11 12 13 12 13 14 14 14 13 13 14 15 13 13 13 12 12 12 12 13 13
6 7 6 6 4 4 2 2 3 3 2 2 2 2 2 2 2 4 6 5 5 6 9 12 8 8 7 7 7 8 8 9 11 12 13 12 11 13 17 16 13 13 12 12 13 13 13 13 12 13 13 13 14 14
6 7 6 6 4 3 2 3 3 3 3 3 2 2 2 2 4 7 8 6 4 5 9 12 12 9 8 7 8 7 7 9 10 12 12 11 11 11 14 16 13 13 12 12 13 12 13 14 13 14 14 13 12 13
6 7 7 7 5 2 3 3 3 3 3 3 2 2 3 3 4 6 5 4 5 7 9 14 13 11 9 10 10 8 9 8 9 11 11 12 11 12 15 14 15 14 14 13 14 14 13 14 14 14 14 15 16 15
7 7 7 7 6 3 3 3 4 3 3 3 3 3 5 6 8 6 4 4 5 7 12 13 14 15 9 11 10 10 10 12 10 12 12 12 13 17 14 14 14 13 13 13 15 14 16 16 15 17 16 17 16 15
6 7 7 7 7 4 3 3 3 3 3 4 5 8 10 8 5 6 8 8 10 10 12 13 12 13 11 11 13 12 12 14 15 13 12 15 16 14 13 13 13 13 13 15 16 16 19 19 20 17 16 15 15 15
5 7 7 7 7 6 3 3 3 3 3 6 9 11 8 6 9 11 13 14 12 14 11 13 13 12 10 13 13 13 17 16 20 17 14 19 19 18 16 16 16 15 14 15 14 15 15 15 15 15 16 16 16 16
5 7 7 7 7 7 3 3 3 4 6 7 8 7 8 11 13 15 14 16 15 18 14 12 12 12 12 11 13 14 18 19 18 15 15 21 18 17 16 17 16 14 13 14 15 14 15 15 16 16 16 16 16 16
5 6 7 7 7 7 4 3 3 5 5 7 9 12 11 13 16 17 18 17 21 17 13 12 13 12 12 12 15 16 17 19 14 16 17 19 19 18 17 16 16 16 15 15 15 15 16 17 16 16 16 16 17 17
5 6 6 7 7 7 4 4 4 5 8 12 13 15 14 16 15 19 20 19 17 14 12 12 13 13 12 14 14 16 16 15 18 20 21 21 19 16 16 17 16 16 16 16 16 16 17 17 18 17 16 16 17 18
5 6 7 7 7 8 7 5 5 7 11 13 13 15 16 19 19 22 22 14 13 11 12 14 15 13 15 15 16 17 18 19 18 22 21 20 18 17 16 16 16 17 17 17 17 17 17 17 18 18 18 19 18 18
5 6 7 6 7 7 8 8 9 9 13 13 15 17 16 19 17 16 15 13 13 11 14 14 17 19 17 17 17 20 21 22 21 21 20 19 17 16 16 16 16 16 17 17 17 17 17 17 17 17 18 19 19 19
5 8 5 6 6 7 7 10 11 13 13 14 16 15 19 22 18 15 13 12 12 12 17 16 18 18 17 18 20 20 21 21 22 22 21 18 15 16 16 15 15 15 15 16 17 17 16 16 17 18 18 18 19 19
7 6 5 5 5 6 9 11 12 12 14 14 16 15 15 15 15 14 14 13 12 15 16 17 16 18 19 21 21 20 21 23 22 19 18 17 17 16 16 15 14 15 15 16 19 21 22 22 19 18 19 21 21 20
6 6 5 5 6 9 11 11 11 13 13 15 15 15 16 15 14 14 14 14 14 14 15 17 18 19 19 20 21 23 24 22 17 16 16 16 15 15 15 18 19 20 20 21 19 18 18 18 18 18 19 19 19 19
4 4 4 5 6 10 11 11 10 12 14 14 14 15 15 15 14 13 14 14 14 14 16 18 17 16 16 17 19 19 19 16 15 16 16 16 16 20 19 20 18 18 19 21 22 18 21 19 19 19 19 18 19 19
4 4 5 6 9 10 10 11 11 11 12 14 14 14 15 14 14 13 14 14 14 15 17 16 16 16 17 17 16 16 16 16 16 16 16 19 18 21 22 23 24 19 19 19 19 18 18 19 20 19 20 19 19 19
4 3 6 6 9 9 11 10 12 11 12 13 13 14 15 15 15 14 13 14 15 14 14 14 16 17 18 17 17 17 16 16 17 17 15 16 19 21 21 22 22 25 24 24 22 21 21 20 19 19 19 20 19 20
3 4 8 8 10 12 13 9 13 13 14 14 13 15 16 15 14 13 15 14 15 14 14 15 17 18 17 18 18 19 19 18 19 20 19 19 20 21 22 21 23 24 23 22 21 19 19 16 17 20 20 21 21 21
4 11 12 12 11 13 11 13 12 14 14 15 15 17 17 15 13 14 15 16 15 14 16 16 16 17 19 19 19 19 19 19 20 20 20 20 21 20 19 19 19 21 20 20 19 20 20 20 19 21 22 22 22 21
14 15 15 18 15 13 14 14 15 16 16 15 16 17 17 15 16 17 18 17 16 17 18 18 18 19 22 21 20 20 19 18 19 18 18 16 18 20 21 20 20 20 18 19 20 21 22 22 22 21 20 21 22 23
18 14 17 20 17 17 15 15 14 16 15 16 16 16 15 15 16 18 18 18 19 20 22 23 21 21 19 19 19 19 19 19 18 18 19 18 18 21 22 21 21 21 19 19 20 21 21 20 20 21 21 22 18 23
18 15 11 9 12 13 15 14 13 14 16 16 16 16 17 18 18 18 18 18 18 20 20 20 21 21 21 20 18 19 19 21 21 20 18 18 18 18 19 20 21 20 19 19 18 18 19 19 20 21 22 24 24 24
13 13 16 12 15 17 18 19 20 19 17 15 15 18 17 17 17 19 20 19 20 22 22 20 20 21 21 22 21 19 19 19 19 18 18 18 19 19 18 18 18 15 18 19 18 19 19 20 20 21 22 24 25 24
15 12 13 11 15 19 19 18 18 16 13 15 17 19 19 19 22 22 20 20 21 21 21 21 21 21 20 20 19 19 20 20 22 23 22 23 23 21 21 19 19 19 18 18 14 16 20 20 21 21 24 23 23 25
12 16 16 15 14 14 16 17 19 20 16 17 17 19 20 22 22 21 22 24 23 23 24 24 23 23 24 23 22 21 21 21 21 21 22 22 20 20 20 19 19 20 20 19 20 22 16 21 22 24 25 25 24 23
15 17 19 19 19 22 21 16 16 15 20 23 22 21 23 25 22 22 25 24 25 26 24 25 24 25 22 23 25 23 22 20 21 20 19 17 18 19 20 19 19 20 21 22 23 23 26 26 28 28 26 27 25 23
12 14 14 17 19 19 16 17 22 23 22 22 24 23 22 22 23 23 22 25 25 23 20 23 22 22 21 20 19 19 15 17 17 17 17 17 18 18 18 19 21 21 21 22 23 24 25 27 26 26 23 25 25 25
17 18 19 18 21 21 18 18 20 23 23 24 22 20 22 19 20 22 19 20 22 21 20 20 19 18 17 17 17 16 16 17 15 13 12 13 14 16 19 20 21 21 21 21 22 23 24 26 26 25 24 26 26 25

GFSWCAN_con_lsi_009.txt.gz
Lid_Strength_Index
3 3 4 5 5 5 5 4 4 1 1 1 1 1 0 1 1 4 7 7 8 11 11 11 11 13 13 14 15 14 13 13 13 13 13 15 15 15 16 16 16 16 17 17 17 18 18 12 11 13 12 12 12 12
3 3 4 5 5 5 5 4 4 1 1 2 1 0 1 1 1 3 7 6 6 9 10 9 9 10 11 11 13 14 13 14 13 14 15 15 16 17 16 16 15 16 15 16 15 15 12 12 12 11 11 11 12 12
3 3 5 6 6 5 5 4 4 3 2 2 2 1 1 1 1 2 5 7 7 9 10 10 11 8 8 8 8 11 12 11 11 11 13 14 15 15 16 15 15 14 13 14 14 14 14 13 12 12 12 12 11 10
4 3 5 5 6 5 5 4 4 3 2 2 2 2 1 1 1 2 5 6 7 8 11 10 8 10 8 8 8 8 9 9 9 10 12 13 13 13 15 14 15 14 13 14 15 14 13 13 12 12 12 11 11 11
4 3 5 6 6 6 5 4 3 3 2 2 2 2 1 1 1 2 4 4 4 7 9 9 8 8 8 8 9 9 9 10 11 12 13 13 13 13 13 14 15 14 14 15 15 12 12 12 12 12 12 12 12 12
4 4 5 6 6 6 6 4 4 2 2 2 2 2 1 1 2 3 6 5 5 5 8 11 7 8 8 8 8 9 10 11 12 12 13 13 11 13 16 15 13 13 12 12 12 12 13 13 13 13 13 14 14 14
4 4 5 6 6 6 5 4 3 3 3 3 2 2 1 2 4 6 7 6 4 5 9 12 11 8 8 7 8 8 8 10 11 13 14 14 13 13 15 16 13 13 12 12 12 12 13 13 13 14 14 13 12 13
4 4 6 6 6 6 6 4 3 3 2 2 2 2 2 3 4 6 4 4 5 7 9 14 13 11 8 9 10 8 9 9 9 10 11 12 12 13 15 14 14 13 13 13 14 13 12 14 15 14 14 14 15 15
4 4 6 6 7 7 6 3 3 3 3 2 2 3 4 6 7 6 4 4 5 7 12 14 14 14 9 11 10 10 9 11 9 11 11 11 14 16 14 14 14 14 14 15 15 16 16 15 15 14 14 16 16 15
4 4 6 6 7 7 7 3 3 3 3 3 5 8 10 7 5 5 7 8 9 9 12 13 12 13 11 11 13 12 12 13 14 12 11 13 16 14 14 13 12 13 13 15 15 17 16 19 19 17 16 15 15 15
4 4 6 7 7 7 7 3 3 3 4 6 10 11 8 6 9 11 14 14 14 14 12 12 12 13 11 13 14 13 15 16 17 17 14 17 18 16 15 15 15 14 13 14 14 15 15 15 16 15 15 16 16 16
4 5 7 7 7 7 7 5 3 4 5 7 8 7 9 11 13 15 18 17 14 16 13 12 14 13 12 11 13 14 19 20 23 15 15 20 18 17 16 15 14 14 13 14 15 15 15 15 15 16 16 16 16 16
4 5 7 7 7 7 7 4 3 5 5 7 9 12 11 13 17 17 18 17 21 18 13 12 13 12 13 14 17 18 22 21 16 17 19 18 17 17 17 16 15 14 14 15 15 15 16 16 16 16 16 16 16 16
4 4 6 7 7 7 7 4 4 6 8 12 13 15 14 16 16 18 18 18 17 14 12 12 13 13 14 17 16 17 18 16 19 22 21 19 18 16 17 16 15 16 15 16 16 16 17 17 17 17 17 17 17 17
4 4 5 6 6 7 8 6 6 8 10 13 12 15 15 18 19 24 20 15 13 11 13 15 16 14 16 15 15 16 17 19 18 22 21 21 21 18 17 17 17 17 17 17 17 17 17 17 18 18 18 18 18 18
4 5 6 6 6 7 8 9 8 10 13 13 14 17 16 19 17 16 16 14 12 12 15 16 20 21 18 18 17 22 20 22 20 20 20 19 16 16 16 17 17 17 17 17 17 17 17 17 17 17 18 19 19 19
4 7 5 5 6 7 8 11 11 13 13 13 16 15 18 21 17 15 13 12 10 12 19 19 20 21 17 18 19 22 22 21 21 21 18 15 15 16 16 16 16 16 16 16 17 17 17 17 18 18 18 19 19 19
7 6 4 5 6 8 10 12 12 12 14 15 15 16 14 14 14 13 13 13 12 15 16 19 17 19 21 22 22 20 22 24 22 19 17 16 17 17 16 15 15 16 16 17 20 22 22 22 19 18 21 22 22 21
5 6 4 5 6 9 11 11 11 14 14 14 14 14 14 14 14 13 13 13 13 14 15 16 19 23 20 20 21 24 24 21 17 17 17 16 15 15 16 19 19 20 20 22 19 19 19 19 19 19 20 20 20 20
3 4 4 5 6 10 11 12 10 12 14 13 13 14 14 14 13 13 13 14 14 14 14 17 18 17 17 17 18 18 18 16 14 16 16 16 17 20 20 21 18 19 20 20 20 19 21 20 20 20 20 20 20 21
5 5 5 6 8 9 10 11 12 12 12 14 13 13 15 13 13 13 14 13 13 15 17 16 16 17 17 17 15 15 16 15 16 16 16 18 18 20 22 23 22 18 19 20 20 19 19 21 22 22 23 21 20 20
6 4 7 7 10 10 12 11 12 12 14 14 14 13 14 14 14 14 13 14 15 16 15 15 17 17 17 17 17 17 16 16 16 15 15 15 18 20 21 22 22 26 25 26 23 22 23 22 21 21 21 22 21 21
4 5 9 12 12 14 14 11 14 13 14 15 13 15 15 15 14 12 15 14 15 15 15 17 19 18 18 18 18 18 18 17 19 19 18 19 20 20 21 21 23 23 24 23 22 21 22 18 18 22 21 22 22 22
6 13 14 16 14 15 13 14 13 14 14 15 16 18 17 16 13 14 16 16 16 15 16 17 17 18 19 19 19 20 19 19 19 19 19 19 20 19 19 19 20 22 21 21 20 20 20 21 20 22 23 24 24 24
15 17 18 21 18 16 16 15 15 16 17 16 17 17 17 16 16 16 17 17 16 17 18 17 17 17 19 20 19 19 19 18 18 18 17 17 19 20 20 20 20 20 19 20 21 21 23 23 23 23 24 24 25 26
18 17 17 22 17 17 16 15 15 16 15 17 17 17 17 16 16 18 18 18 18 18 19 19 19 19 19 19 19 19 19 19 17 18 18 17 18 20 22 21 22 21 20 20 21 21 22 23 23 25 25 24 19 25
20 17 11 10 13 14 15 13 13 15 16 16 15 16 16 17 18 18 19 19 18 19 19 19 19 18 19 19 18 19 19 21 19 19 18 19 19 18 20 20 22 21 19 19 20 21 22 22 23 24 24 25 25 24
14 14 18 16 17 18 19 19 19 19 19 15 14 17 17 17 18 20 21 20 20 20 20 20 20 20 20 20 19 18 19 19 19 19 18 19 19 20 19 18 18 15 20 21 21 21 21 22 22 23 23 24 25 25
16 13 14 16 18 19 20 19 19 17 14 16 18 17 18 20 22 21 20 20 20 20 20 20 21 21 19 19 19 19 19 20 21 22 22 23 23 21 22 21 21 21 21 20 15 18 21 21 22 22 24 24 25 27
13 16 16 14 15 15 18 18 20 18 17 18 17 19 19 21 21 20 20 21 21 22 23 23 23 23 23 21 21 20 20 21 21 21 21 23 23 22 24 22 22 22 21 21 21 21 16 22 22 25 25 25 25 25
16 19 20 20 20 22 21 15 16 15 20 23 23 21 22 23 21 21 22 23 23 23 22 23 24 24 21 21 24 23 22 21 23 22 22 19 20 20 20 20 21 22 22 22 23 24 26 27 28 28 27 28 27 24
13 16 16 16 19 19 15 16 21 23 21 22 23 25 24 22 24 24 21 23 22 21 20 20 20 21 20 20 19 20 16 21 20 18 18 18 18 18 18 20 22 22 22 22 24 24 26 27 27 27 25 27 27 26
20 20 19 20 23 22 20 20 20 23 24 25 24 21 23 20 22 22 19 21 22 21 20 21 20 19 18 18 17 16 15 18 16 12 12 13 14 16 20 21 21 22 21 22 23 24 25 27 27 26 26 27 28 27

GFSWCAN_con_lsi_012.txt.gz
Lid_Strength_Index
2 2 3 5 5 5 4 4 4 4 3 2 0 1 1 0 1 3 5 4 5 7 7 8 9 11 12 11 13 12 10 11 11 13 13 13 13 12 13 12 12 13 13 14 13 16 16 10 10 11 9 9 9 8
2 2 3 5 5 5 5 5 4 4 4 4 0 1 0 0 1 2 5 4 4 6 7 7 7 7 9 9 11 12 9 10 9 11 11 12 13 13 13 14 12 13 11 13 12 12 10 10 9 9 7 9 9 9
2 2 3 5 5 5 5 5 5 4 4 4 1 1 0 0 0 2 4 4 5 5 6 7 8 6 6 7 7 9 10 10 10 9 10 11 12 11 13 12 12 12 11 11 12 11 11 10 9 9 8 9 9 9
2 3 3 5 5 5 5 5 5 4 4 3 1 1 0 0 0 1 4 4 4 5 8 8 6 7 6 6 7 7 8 8 8 8 9 10 11 12 12 11 11 11 11 11 12 12 11 11 10 10 10 9 10 10
2 2 3 4 4 5 5 6 5 4 3 3 1 1 1 1 1 2 3 4 3 5 9 8 7 7 6 7 7 6 6 6 6 8 8 10 10 10 11 10 11 10 11 11 10 9 9 9 9 9 9 10 10 10
2 3 3 4 4 5 6 6 5 4 3 3 2 2 2 2 1 3 5 4 4 4 7 10 7 8 7 7 7 7 7 7 7 7 9 9 9 9 11 12 9 9 9 9 9 9 10 8 8 8 9 10 10 10
2 3 3 4 4 5 6 6 6 4 3 2 2 3 3 2 3 5 6 5 4 4 8 10 9 8 7 7 7 7 7 8 7 9 9 9 9 8 10 12 9 9 9 9 9 9 11 9 10 9 9 10 10 11
2 3 3 4 5 6 6 6 6 5 2 2 2 2 3 3 4 5 4 4 4 6 8 13 12 9 7 8 8 7 8 7 9 9 10 10 10 10 11 10 11 10 10 10 10 10 8 9 10 10 11 11 13 12
3 3 4 4 6 6 7 7 6 4 2 2 3 3 4 5 7 5 4 4 5 7 11 12 13 13 8 9 9 9 8 10 8 9 10 9 11 12 9 10 10 10 10 11 12 12 11 12 13 13 14 13 13 12
3 3 4 4 6 6 7 7 6 3 3 3 4 7 9 7 4 4 5 6 8 9 9 11 10 12 10 11 12 11 11 12 13 11 10 12 11 9 10 9 9 9 10 11 13 15 14 15 14 13 12 11 12 13
3 3 4 4 6 6 7 7 4 3 3 6 9 10 7 4 6 8 10 9 10 12 10 10 10 11 10 12 13 12 14 14 15 14 12 14 14 12 11 11 10 11 11 10 9 10 11 12 13 14 14 13 12 12
3 3 4 5 6 7 7 7 5 4 5 7 7 7 7 9 10 12 13 13 13 13 12 11 11 10 10 10 12 13 15 15 16 13 15 17 14 14 12 12 12 11 11 12 11 12 13 12 12 12 12 12 12 12
3 3 4 6 6 7 7 7 5 4 5 7 8 11 9 11 14 15 16 15 16 14 13 12 13 11 11 10 13 14 15 16 13 16 17 15 15 15 13 12 12 11 12 13 13 13 13 13 12 12 12 13 13 13
3 4 4 6 7 7 7 7 4 5 8 11 13 14 13 14 14 14 14 14 13 12 12 11 13 12 11 12 13 15 15 14 17 19 18 15 14 14 14 12 11 13 13 13 13 13 13 13 13 14 14 13 13 14
3 4 4 6 6 7 8 8 6 8 10 13 12 14 14 15 17 18 16 14 12 10 12 13 13 12 14 14 14 15 17 18 16 17 14 14 14 14 13 12 12 13 13 13 14 14 14 14 15 15 15 15 14 15
3 4 5 5 6 6 8 8 8 10 13 13 13 16 16 16 16 15 14 13 11 11 12 12 15 15 16 15 17 17 18 19 16 14 13 14 14 13 13 12 12 13 13 14 14 14 15 15 14 14 15 16 16 16
3 6 4 5 5 6 8 10 10 13 13 13 15 14 16 16 15 14 12 11 10 12 14 14 15 16 15 17 17 17 17 15 14 15 14 13 13 14 14 14 14 15 14 14 15 15 15 15 15 15 15 17 17 17
6 5 4 4 5 8 9 11 12 12 14 14 14 14 13 13 14 13 12 11 11 13 14 14 14 17 17 18 17 15 15 17 17 15 14 14 14 14 13 13 14 14 14 15 15 16 17 16 15 16 18 18 18 18
4 4 4 5 6 9 11 11 11 13 14 14 14 13 13 13 12 12 12 13 13 13 14 14 16 17 16 16 15 17 16 15 15 14 14 13 13 13 14 15 15 16 16 17 16 16 16 16 16 16 17 17 17 18
3 3 4 5 6 10 11 11 10 12 14 13 13 14 14 13 13 12 13 13 12 12 13 14 16 15 15 15 15 14 15 13 13 14 15 15 15 15 15 15 15 17 17 17 17 17 17 18 17 17 17 17 18 18
5 4 4 6 8 9 11 12 12 12 12 14 13 13 14 12 13 13 13 12 12 13 14 15 15 15 15 14 14 13 14 13 12 12 14 15 16 17 17 17 16 16 16 16 16 16 17 18 18 17 18 19 19 18
5 4 6 7 9 10 11 10 12 11 13 13 13 12 13 13 13 13 12 13 14 14 14 14 15 15 15 16 16 15 15 14 15 14 14 15 17 17 17 17 16 18 17 17 17 18 19 19 19 19 19 19 19 18
5 6 10 11 13 13 13 10 13 13 14 14 13 14 15 14 13 11 14 14 15 15 15 16 16 16 17 17 17 17 17 16 17 17 17 18 18 18 18 18 18 18 19 20 18 19 19 18 18 20 19 20 19 20
6 12 14 15 15 16 12 14 12 13 14 15 16 17 17 15 13 13 16 16 16 15 15 16 16 17 16 17 18 18 18 17 18 18 17 17 18 19 18 18 18 18 18 19 19 19 19 19 19 20 20 20 20 20
14 16 16 20 17 16 16 15 15 15 16 16 16 17 16 15 15 16 17 17 17 17 16 16 15 16 17 18 18 18 18 16 16 17 17 17 18 19 19 19 19 19 18 19 19 20 21 20 20 20 20 19 20 21
18 15 17 18 16 17 15 15 15 15 15 17 17 16 15 15 16 18 18 19 19 19 19 17 16 16 17 17 17 17 18 17 16 17 17 16 17 17 19 19 19 19 18 18 19 20 20 20 20 20 20 20 19 21
19 17 11 10 13 14 14 13 13 14 15 15 15 15 15 17 18 19 19 20 19 20 19 19 18 16 17 18 18 18 18 18 17 17 17 18 17 17 17 18 19 19 18 18 18 18 19 19 20 20 20 20 21 21
14 14 17 16 16 16 18 17 17 16 15 14 13 16 16 18 19 21 21 20 20 19 19 19 18 18 18 18 18 18 18 17 17 17 17 17 18 18 18 17 17 16 17 18 18 18 18 18 19 19 20 20 20 20
16 13 13 19 19 18 18 17 16 15 14 15 15 16 18 20 21 21 20 20 19 18 18 19 19 18 18 18 18 18 17 17 17 19 20 20 19 19 19 18 18 17 16 15 15 17 19 19 19 19 20 19 20 21
13 15 16 14 15 16 17 17 17 16 16 17 16 18 19 20 20 19 19 19 19 19 20 19 19 18 19 18 19 18 18 18 18 17 19 19 19 19 19 19 19 19 18 17 17 16 16 19 18 20 20 21 21 21
15 18 19 18 17 19 19 15 15 15 19 20 21 19 20 21 19 20 21 21 21 20 19 20 20 20 18 18 19 18 18 18 19 19 18 18 19 19 19 19 19 19 19 19 19 19 20 20 21 22 22 23 23 22
13 14 15 16 19 18 15 16 20 21 20 20 21 22 21 19 21 21 20 21 20 19 18 19 18 18 18 18 18 18 16 18 18 17 17 18 18 18 18 18 19 18 18 18 19 19 21 22 21 22 22 23 23 23
18 18 19 20 22 22 19 20 19 23 22 22 21 20 21 18 21 20 19 19 20 20 18 18 18 17 17 17 16 15 15 16 15 13 13 13 14 15 17 17 17 17 18 19 19 20 22 23 23 23 23 24 24 24

GFSWCAN_con_lsi_015.txt.gz
Lid_Strength_Index
1 1 2 2 3 4 5 4 4 4 4 3 4 3 1 1 0 2 4 4 4 6 6 7 8 10 11 10 11 12 10 9 9 13 13 13 13 11 12 11 13 14 15 16 14 17 18 9 10 11 9 8 8 7
1 1 2 2 3 5 5 4 4 4 4 4 3 3 1 1 1 1 4 4 3 5 6 5 6 7 8 9 10 11 9 10 8 11 11 10 13 11 11 14 10 13 10 12 11 12 9 8 9 8 7 8 7 7
1 1 2 2 3 5 5 5 5 4 4 4 4 3 1 0 0 1 3 5 4 6 5 6 7 6 6 7 7 10 9 8 9 7 9 9 12 10 13 12 11 11 10 10 11 10 10 9 9 8 7 7 7 7
1 1 2 2 3 5 5 5 5 4 4 3 3 3 1 1 1 1 4 4 3 4 8 7 5 6 6 6 7 7 8 7 7 7 9 10 11 10 10 10 10 10 10 10 11 10 10 9 8 8 8 8 9 8
1 1 2 2 3 5 5 5 5 5 5 4 3 2 1 0 0 1 2 4 2 5 8 7 5 6 6 6 7 7 7 7 8 9 9 10 10 10 10 10 11 10 10 11 11 8 8 9 8 8 9 9 9 9
1 1 2 3 3 5 6 5 5 5 5 4 3 2 1 1 1 2 5 3 2 2 6 10 5 7 6 6 6 7 7 7 6 7 8 8 9 9 11 11 8 8 8 8 9 8 7 7 8 8 8 8 8 8
2 2 2 3 3 6 6 6 6 5 5 4 3 2 2 2 2 4 6 4 3 2 6 10 9 6 7 6 6 6 5 6 6 7 8 8 8 7 9 12 7 8 8 8 7 8 9 8 9 8 8 9 8 9
2 2 2 3 4 6 6 6 6 6 5 4 3 2 2 2 3 4 4 3 4 6 6 11 11 8 6 7 8 7 7 6 7 7 7 8 8 8 11 8 8 7 8 8 8 8 7 7 8 9 9 9 10 11
2 2 2 3 4 6 6 6 6 6 5 4 2 3 4 5 6 4 4 4 4 6 11 11 12 13 6 8 8 7 7 10 8 9 9 9 9 12 9 8 9 8 9 9 10 10 9 9 11 11 11 11 12 12
2 2 3 3 4 5 6 6 6 6 5 2 3 6 9 7 4 4 6 7 8 9 9 11 8 11 9 9 11 9 9 10 13 11 9 11 11 7 8 7 7 8 8 10 12 13 13 13 12 11 11 11 11 11
2 2 3 3 4 5 5 6 7 6 3 5 8 9 6 5 6 9 10 9 9 11 10 9 8 11 9 11 12 11 12 12 14 11 11 12 12 9 8 8 7 7 9 8 7 9 9 10 10 12 12 12 12 12
2 2 3 3 3 5 5 6 7 8 5 6 7 6 7 9 10 12 11 12 13 11 11 11 9 8 10 9 12 13 13 13 14 11 13 15 12 13 11 10 9 8 8 8 8 9 9 11 12 12 13 12 12 11
2 3 3 3 4 5 6 7 7 7 4 6 8 11 9 11 14 14 15 14 14 12 12 11 11 10 10 9 12 12 14 14 12 15 16 13 14 13 11 11 10 9 10 10 12 12 12 12 12 12 12 11 11 11
3 3 4 3 4 5 6 7 7 6 7 10 12 13 12 14 13 12 12 12 10 10 11 10 11 10 10 11 11 13 13 13 16 17 16 13 13 12 11 10 11 12 12 12 12 12 13 13 13 12 12 11 12 13
3 3 3 4 4 5 6 7 7 7 10 12 11 13 13 13 15 14 13 12 11 9 10 11 10 11 12 13 12 15 16 17 15 15 13 12 12 12 11 10 11 12 12 12 12 12 13 13 13 14 13 13 14 14
3 3 4 4 4 6 6 9 8 9 13 13 13 14 14 14 15 15 13 13 10 10 9 9 13 14 15 13 15 16 16 16 13 11 11 12 12 11 10 11 11 11 12 12 12 12 13 13 13 14 15 15 15 15
3 5 4 4 5 6 7 11 10 12 13 13 14 12 13 12 13 13 11 11 9 11 12 11 14 14 13 16 15 14 15 12 12 13 12 12 12 11 10 12 13 12 12 12 13 13 13 14 14 14 16 16 16 16
5 4 4 4 5 7 9 11 12 12 13 13 13 13 12 12 12 12 11 10 10 11 11 13 13 16 16 16 15 13 13 15 14 12 12 13 13 12 13 13 13 13 13 14 14 15 15 15 15 15 17 17 17 17
3 3 4 4 6 9 11 11 11 13 13 13 13 13 12 12 11 11 11 12 12 11 12 13 14 14 14 13 13 14 14 13 13 13 13 12 12 12 13 13 14 14 15 15 14 14 14 14 14 16 17 16 17 17
3 4 4 4 5 10 12 11 10 11 13 12 12 13 13 13 12 12 12 12 12 12 13 13 15 14 14 14 13 13 13 12 13 14 14 13 13 13 13 13 14 15 15 15 15 15 16 17 16 16 16 16 17 17
4 4 4 5 7 9 11 12 12 12 12 13 12 12 13 12 13 13 13 12 13 13 14 14 14 15 14 13 12 12 12 11 12 12 14 15 14 14 15 15 14 15 15 15 16 16 16 17 17 16 17 18 18 18
5 4 6 6 8 10 11 11 12 11 12 12 12 12 13 13 13 13 13 13 14 14 13 14 14 14 15 15 14 13 13 13 13 13 13 14 16 16 15 15 15 15 15 14 15 16 17 17 17 18 18 18 18 19
5 6 7 8 11 12 13 10 13 13 14 14 13 14 15 14 13 12 14 14 15 15 14 14 15 15 16 16 15 16 14 14 15 16 16 16 16 16 16 16 15 16 17 17 16 17 18 17 18 18 18 18 19 20
7 11 13 13 12 14 11 13 12 13 13 14 15 16 16 14 13 13 16 16 16 14 15 15 15 16 15 16 17 17 16 15 16 16 16 16 17 17 17 17 17 16 17 17 17 17 18 18 18 19 19 19 19 20
13 15 14 17 12 13 14 14 14 14 16 15 15 16 15 14 14 16 17 17 17 17 15 14 14 14 16 17 17 17 16 15 16 17 16 16 17 18 18 18 18 18 17 18 19 19 19 19 19 19 19 19 20 20
17 14 14 14 14 14 14 14 14 14 14 15 16 15 14 14 16 19 19 20 19 19 19 17 15 16 16 16 16 17 18 16 15 17 17 16 16 16 17 18 19 19 17 17 18 19 19 19 19 19 19 19 19 20
17 15 11 10 12 13 13 12 12 13 15 16 15 14 14 17 18 19 19 20 19 20 19 18 16 15 17 18 17 17 17 17 16 17 17 17 17 16 15 16 17 18 17 17 17 18 18 19 19 19 20 20 20 20
12 12 15 13 13 14 15 15 14 15 14 14 13 16 17 19 20 21 21 20 19 18 18 18 17 17 17 17 17 17 17 17 17 17 17 18 18 17 17 17 16 15 16 16 17 17 17 18 18 19 19 19 19 19
13 12 11 19 15 14 15 14 14 14 15 15 14 16 19 20 21 21 20 20 19 17 17 18 18 17 17 17 17 17 16 16 16 18 19 19 19 19 16 16 16 15 15 16 15 17 18 18 18 18 19 19 19 20
13 12 13 15 18 15 14 15 14 13 14 16 15 17 18 20 20 19 19 19 19 19 19 18 18 16 17 17 18 18 17 17 17 16 17 18 18 18 17 17 17 16 15 15 15 15 15 17 17 19 20 19 19 19
13 13 15 14 15 15 15 14 14 14 15 16 17 16 18 19 19 19 20 20 19 18 17 18 18 17 16 16 16 17 17 17 18 18 17 17 17 17 17 17 17 17 17 17 17 18 19 19 20 20 20 22 22 21
13 14 14 16 16 15 14 14 16 16 16 15 17 17 18 17 18 19 20 19 18 17 16 16 17 17 17 17 16 16 15 17 17 16 17 17 17 17 17 17 17 17 17 18 18 19 20 20 19 20 21 22 23 23
15 15 17 17 18 17 16 15 16 17 17 17 18 18 18 17 18 20 18 18 19 18 17 17 16 16 16 15 15 15 15 16 15 13 13 14 14 16 17 17 17 17 17 18 18 19 20 22 22 22 22 24 24 24

GFSWCAN_con_lsi_018.txt.gz
Lid_Strength_Index
1 1 1 1 2 2 4 5 5 4 4 4 4 3 3 2 0 1 3 3 5 7 7 6 6 10 10 10 12 11 11 9 10 13 14 14 14 13 14 13 13 15 16 16 15 18 19 10 11 13 11 10 10 9
1 1 1 1 2 2 4 5 5 4 4 4 4 3 3 2 0 1 4 3 3 6 6 5 5 6 8 8 10 11 10 9 9 11 11 12 14 12 13 16 10 15 12 14 13 14 10 10 10 10 8 10 10 10
1 1 1 1 2 2 4 6 5 4 4 4 4 3 3 3 0 1 3 3 4 6 6 6 7 6 6 7 7 10 9 8 8 7 9 11 13 11 14 13 13 12 11 12 12 12 11 10 10 10 9 9 9 9
1 2 2 1 2 3 4 6 5 4 5 4 4 3 3 2 0 1 3 3 3 5 9 8 4 6 6 6 7 7 8 8 8 7 9 10 12 10 12 12 12 12 11 12 13 12 11 10 10 10 10 9 9 9
2 2 2 2 2 3 4 5 5 5 5 5 4 4 3 3 1 1 2 2 2 5 9 8 6 5 6 6 7 7 8 8 9 9 10 11 10 11 11 12 12 11 12 12 12 10 10 11 10 9 10 10 10 10
2 2 2 2 2 3 4 5 6 5 5 5 4 4 3 2 2 2 5 2 2 3 7 10 6 7 6 6 8 8 8 7 8 8 9 9 9 10 13 13 9 10 10 10 10 9 9 9 9 9 10 10 10 10
2 2 2 2 2 3 4 5 5 5 5 5 5 4 3 2 2 5 6 4 2 3 7 10 10 7 6 6 7 8 7 8 8 9 10 10 11 11 11 13 10 10 10 10 9 10 11 10 10 10 10 10 10 11
2 2 2 2 2 3 4 6 5 5 5 5 5 4 3 2 3 4 3 2 2 5 6 11 11 9 6 8 9 8 8 8 9 10 10 10 11 10 12 9 10 9 10 10 11 10 10 9 10 11 11 12 12 12
2 2 2 2 2 3 5 5 6 5 6 6 5 4 3 4 6 5 3 3 4 6 10 10 12 13 7 8 8 9 8 11 9 10 10 10 11 13 10 9 10 10 10 11 12 11 11 11 12 13 13 13 13 13
2 2 2 2 3 3 5 5 5 6 6 5 5 6 8 6 4 4 5 7 8 8 9 11 8 11 9 10 10 10 11 12 14 12 11 13 13 9 9 9 10 10 11 11 13 13 13 15 14 13 13 12 12 13
2 2 2 2 3 4 4 5 6 6 6 5 7 9 6 4 6 8 10 10 10 12 10 10 9 11 9 11 12 11 12 13 14 14 13 14 14 11 11 11 10 11 11 11 11 12 11 11 12 13 13 13 13 13
2 2 3 3 3 3 5 6 6 9 11 9 7 6 7 8 10 11 12 12 12 13 11 11 10 10 11 10 12 12 14 14 15 13 14 16 14 14 12 11 10 10 10 10 10 10 10 11 12 13 13 14 14 14
3 3 3 3 4 3 5 6 6 7 7 7 8 10 9 11 13 15 16 15 14 12 13 12 12 11 11 11 13 13 16 15 14 15 16 16 16 14 13 12 12 11 10 11 12 13 13 14 14 13 14 13 13 14
3 3 3 3 3 4 6 6 7 9 10 11 13 13 12 14 14 14 14 14 13 12 12 11 12 12 12 13 13 18 15 15 20 21 19 17 16 13 13 12 13 13 13 13 14 14 14 14 14 14 14 14 14 15
3 3 3 4 4 4 4 6 8 9 11 13 12 13 13 13 14 14 13 13 12 10 11 12 13 12 14 16 15 15 17 22 17 17 15 16 15 14 13 13 14 14 14 14 13 14 14 14 15 15 15 15 15 16
3 3 4 4 4 4 4 7 9 9 12 12 13 14 13 13 15 14 13 13 11 10 11 12 15 18 18 17 19 21 20 20 17 15 16 15 13 12 13 13 13 13 12 13 14 14 14 15 16 16 17 17 17 17
4 6 4 4 4 4 6 9 11 12 12 12 13 12 13 15 15 14 12 11 9 10 13 14 18 19 14 19 20 17 18 16 17 17 16 16 14 13 13 14 14 13 13 14 14 14 15 15 16 17 18 19 19 19
6 5 3 4 4 5 8 10 11 12 13 13 13 13 13 13 13 12 11 10 11 13 13 13 14 16 19 20 19 16 16 19 17 16 16 14 14 14 14 15 15 15 15 16 16 17 17 17 17 18 19 19 20 20
5 5 4 4 5 7 10 11 12 13 13 13 13 13 12 12 11 11 11 11 12 12 13 13 15 18 18 17 17 17 17 18 16 16 15 14 14 14 14 14 15 15 16 17 16 16 17 17 17 18 19 19 19 19
4 4 4 4 5 8 11 12 10 12 14 13 12 13 13 13 12 12 12 12 12 13 14 16 16 16 16 16 16 14 15 14 14 15 16 15 14 14 14 14 16 16 16 17 17 16 18 18 18 18 18 19 19 19
5 5 5 5 6 8 10 12 12 12 12 13 12 12 13 12 13 13 13 12 13 13 15 15 16 15 15 15 14 13 14 13 14 13 15 16 15 15 16 16 16 16 16 17 17 17 18 19 19 19 20 19 19 20
6 5 8 7 11 11 10 10 13 12 12 13 12 12 12 13 13 13 13 13 14 15 14 14 15 15 16 16 16 14 14 13 14 14 13 14 16 16 16 17 16 17 17 18 18 19 19 20 19 19 19 20 20 21
6 7 10 12 15 14 13 10 13 13 15 15 13 14 15 14 14 12 15 15 16 15 15 15 16 16 16 16 16 15 14 14 15 16 16 17 16 16 16 17 17 17 18 19 18 19 20 17 18 20 19 21 22 22
7 13 16 16 16 18 12 13 11 13 13 15 16 17 17 16 14 14 17 18 17 15 15 16 16 17 16 17 18 17 16 16 16 16 16 17 18 18 18 18 18 19 19 18 19 20 20 20 19 21 22 22 23 23
16 18 18 22 17 17 19 15 14 14 16 15 16 17 17 15 15 17 18 19 18 19 18 15 16 16 18 19 18 18 17 16 17 18 18 18 19 19 20 19 19 19 18 19 20 21 22 22 22 22 22 23 24 25
20 19 20 19 19 19 17 18 16 15 14 16 16 15 15 15 18 21 21 21 21 21 21 20 18 17 18 17 18 19 19 17 17 18 19 18 18 19 20 21 21 21 20 19 20 21 21 22 22 23 23 21 19 24
21 20 14 11 14 14 16 14 13 14 16 17 16 15 15 18 21 21 20 21 21 21 19 19 17 17 19 19 19 18 18 17 18 19 19 19 19 18 19 19 21 21 19 19 20 20 21 21 22 22 23 24 25 25
15 15 20 18 17 17 19 19 19 19 17 16 15 18 19 21 22 22 22 20 20 19 18 18 17 17 17 18 18 18 18 18 18 18 18 18 18 18 18 18 17 15 19 20 20 20 20 21 22 22 23 24 26 25
16 14 15 22 21 19 20 20 19 16 16 17 17 19 20 21 22 22 21 20 19 17 18 19 19 18 18 17 17 17 16 16 17 19 20 21 22 21 20 18 18 18 19 17 15 18 21 21 21 22 23 23 24 25
17 15 18 22 22 20 20 19 19 17 16 17 17 19 20 21 21 20 20 21 20 20 19 19 17 17 18 18 19 19 18 18 17 17 19 20 21 20 19 19 18 18 19 18 18 17 15 20 20 23 24 24 24 24
15 18 20 19 21 21 20 17 17 16 19 21 19 20 20 21 20 20 21 21 20 18 18 18 18 17 17 17 17 18 19 19 19 18 18 18 19 19 19 19 19 19 19 20 20 21 22 24 25 26 26 27 27 25
15 19 21 22 22 20 19 20 21 22 21 22 23 22 21 18 20 21 20 20 18 18 16 17 18 19 17 17 17 16 16 18 18 18 18 19 19 19 19 19 20 20 20 20 21 22 25 25 25 25 25 27 27 27
19 21 22 24 24 23 21 22 21 23 23 24 23 22 23 21 22 22 20 20 21 20 18 18 17 17 17 17 17 16 16 17 15 13 13 14 15 16 18 19 19 19 19 20 21 22 24 26 26 25 26 28 29 28

GFSWCAN_con_lsi_021.txt.gz
Lid_Strength_Index
2 2 1 1 1 1 2 3 5 5 4 4 4 4 3 3 2 2 4 2 4 7 6 6 7 10 10 10 12 11 10 10 10 13 14 14 14 14 14 12 14 15 16 16 15 18 19 11 12 14 12 11 11 11
3 2 2 2 2 2 2 3 4 5 4 4 4 4 3 3 2 2 4 2 2 5 6 5 6 6 8 7 9 10 10 9 9 11 12 12 13 13 14 16 12 15 12 14 13 13 10 10 11 10 10 10 11 11
3 2 2 2 2 2 2 3 4 5 5 4 4 4 3 3 3 2 3 3 3 6 6 6 7 7 6 7 6 10 9 8 9 8 9 10 13 12 15 14 14 12 11 13 12 12 12 11 11 10 10 10 10 11
3 2 2 2 2 2 2 3 5 5 4 4 4 4 4 3 3 2 3 3 3 5 9 8 5 7 6 6 7 6 7 7 7 7 9 10 12 11 12 13 13 13 12 12 13 12 12 11 11 11 11 10 10 10
3 2 2 2 2 2 2 3 5 5 5 4 4 4 4 3 2 1 2 2 2 5 9 8 6 6 6 7 7 7 7 7 8 9 10 11 9 11 11 11 13 12 12 13 13 11 11 11 10 10 10 11 10 11
3 2 2 2 2 2 2 3 6 6 5 5 5 5 4 3 3 3 5 2 2 2 7 11 6 7 6 7 8 8 8 8 8 8 9 9 9 10 14 14 11 11 10 10 10 10 10 10 11 10 11 11 11 11
3 2 2 2 2 2 2 3 5 6 5 5 5 5 4 3 3 5 6 4 1 2 7 11 10 7 6 7 8 8 8 8 8 10 10 11 11 10 12 13 10 11 11 11 10 10 11 11 11 10 10 10 11 12
3 2 2 2 2 2 3 4 5 5 5 5 5 5 4 4 3 4 4 2 1 4 6 12 11 9 7 8 9 8 9 9 10 10 10 11 11 11 13 11 12 12 11 12 11 11 10 11 11 11 11 11 12 13
3 2 2 2 2 2 3 4 5 5 5 5 5 5 5 4 5 5 4 3 3 5 9 11 12 13 7 9 8 9 10 11 11 12 12 12 12 14 12 11 11 11 11 11 12 12 11 12 13 13 13 13 13 14
3 3 2 2 2 3 3 3 5 5 5 5 6 6 8 6 3 3 5 7 8 8 8 10 8 11 9 10 11 11 12 13 14 12 12 14 13 10 9 9 10 11 11 11 13 15 14 14 14 14 14 13 13 13
3 3 3 3 3 3 3 3 5 5 7 8 8 8 5 3 5 7 10 10 10 12 9 9 9 10 9 11 12 12 13 14 14 14 13 14 14 12 12 11 11 11 11 11 12 12 12 12 13 14 14 13 13 13
4 3 3 3 3 3 3 3 5 7 10 10 11 9 6 8 10 11 11 12 12 12 10 10 9 9 10 9 11 12 14 14 15 14 14 16 13 14 13 13 13 12 12 12 11 11 12 13 13 13 13 13 14 14
4 4 3 3 3 3 4 4 5 6 8 8 10 11 11 11 13 13 15 14 14 12 12 11 12 11 11 11 13 15 17 18 14 17 17 15 15 14 13 12 12 11 11 11 12 13 13 14 14 14 14 14 14 14
5 5 4 3 3 4 4 4 5 8 11 12 13 14 13 15 14 14 13 14 13 13 12 11 12 12 11 13 13 17 16 16 20 20 19 17 16 14 13 13 13 14 13 13 13 13 14 14 15 14 14 14 14 15
5 4 4 4 4 4 4 4 6 9 12 13 13 13 13 14 14 13 14 12 12 10 10 12 13 13 17 14 16 17 19 21 18 18 16 19 17 15 15 15 15 14 14 14 14 14 14 14 15 16 16 16 16 17
5 5 6 4 4 4 4 6 9 9 12 13 13 13 12 14 15 14 13 13 12 10 12 13 17 20 19 19 21 22 20 20 17 16 17 17 14 14 15 14 14 13 13 13 13 14 15 15 16 17 17 17 18 18
5 9 5 4 4 4 5 8 10 12 12 12 14 12 13 18 17 14 12 11 9 11 14 17 20 19 18 23 22 20 19 17 15 19 19 17 15 15 14 14 14 13 13 14 14 15 16 17 17 17 19 20 19 19
9 7 5 4 5 5 7 9 11 11 13 13 14 14 12 13 14 12 11 10 11 14 14 17 16 21 21 22 21 18 18 21 20 18 16 15 16 15 15 15 15 14 15 15 16 17 17 18 19 19 20 20 20 20
7 7 5 5 5 7 10 9 10 13 13 12 13 13 12 12 11 11 11 11 13 12 13 15 19 20 18 18 18 21 21 19 16 16 16 16 15 15 15 15 15 15 16 16 16 17 18 18 18 19 19 19 20 20
5 5 5 5 5 9 14 13 9 12 14 13 12 13 13 13 12 12 12 12 13 13 15 18 17 16 16 16 17 18 17 15 15 16 17 16 15 15 14 15 15 16 17 17 17 16 18 18 18 18 19 19 19 20
8 8 6 8 10 9 15 14 14 12 12 13 12 12 13 12 12 12 12 12 12 13 18 16 16 16 16 16 14 14 14 14 14 14 15 16 15 15 16 16 15 16 17 18 18 17 18 19 19 19 19 20 20 20
10 6 11 10 15 16 15 12 13 12 13 13 13 13 13 13 13 13 12 13 15 15 15 15 16 16 16 16 15 14 14 14 13 14 14 14 16 16 16 16 16 18 19 19 19 19 20 20 19 20 20 21 21 22
9 11 15 17 18 18 17 14 15 14 15 15 14 15 15 15 14 12 15 16 16 15 15 16 16 16 16 16 15 15 14 14 15 15 15 16 16 16 16 17 17 18 20 20 19 19 20 17 18 21 20 22 22 22
10 17 18 19 20 21 16 19 13 14 14 15 16 17 16 16 14 15 18 19 18 17 16 16 16 17 16 17 18 17 17 16 16 16 16 16 18 18 18 18 18 19 19 19 19 19 20 19 19 22 23 23 24 24
19 20 21 25 23 20 23 20 20 16 17 15 17 17 16 15 16 18 21 21 20 21 20 18 16 16 18 18 18 18 17 15 17 18 18 17 19 19 19 19 19 19 18 19 20 21 22 22 22 23 24 24 25 26
23 23 21 23 23 21 21 23 22 19 15 16 15 14 14 15 20 22 22 23 22 22 22 22 21 18 19 18 18 18 19 17 17 19 19 17 17 18 20 20 20 20 20 19 20 21 22 22 22 24 23 21 19 25
24 23 16 12 15 16 18 17 16 18 19 18 16 16 16 19 21 21 21 22 22 21 21 20 19 18 19 19 19 19 19 18 19 19 19 19 18 18 18 19 20 21 20 19 19 20 21 22 22 23 24 25 26 26
17 17 20 20 19 20 22 22 23 23 20 16 16 19 19 21 21 22 22 20 21 20 19 19 18 18 18 18 18 18 19 18 18 18 18 18 18 18 18 18 18 17 19 20 20 20 20 21 22 23 24 25 27 27
18 16 17 23 23 23 23 23 22 18 17 18 19 19 20 21 22 22 21 21 20 18 19 19 19 18 18 17 17 17 17 16 17 19 19 20 20 20 20 18 18 18 17 17 16 19 22 22 22 22 24 24 26 28
19 18 20 26 24 22 22 21 21 19 18 19 18 18 19 20 21 20 20 21 20 20 19 18 17 17 18 18 19 19 19 18 17 17 18 20 20 20 19 19 19 18 17 17 17 17 15 20 20 24 24 25 25 26
17 21 22 23 24 24 23 20 20 17 22 25 24 21 19 21 20 20 21 21 20 18 18 18 18 17 17 17 18 18 19 18 18 17 18 18 19 19 19 18 18 19 19 20 21 21 23 25 26 27 27 28 28 26
17 22 22 24 24 23 22 24 25 25 26 25 25 26 19 18 20 21 21 21 18 19 16 17 18 19 17 17 17 16 16 18 17 17 18 19 19 19 19 19 19 19 20 21 22 23 24 25 25 26 26 29 29 28
21 22 27 27 26 25 23 24 24 25 26 27 26 24 26 21 19 20 19 19 20 19 18 18 17 17 17 17 17 16 16 17 16 14 14 15 15 17 19 19 19 19 20 21 22 23 24 26 27 27 28 29 30 29

GFSWCAN_con_lsi_024.txt.gz
Lid_Strength_Index
4 3 3 3 2 2 2 3 3 5 5 5 4 4 3 3 3 3 3 3 4 7 6 6 7 9 9 9 12 10 10 10 10 13 14 14 14 14 15 12 15 15 16 16 16 19 19 11 12 14 12 11 11 12
4 4 4 3 3 2 2 3 4 5 5 5 5 4 4 3 3 2 4 2 2 5 6 5 6 5 7 7 9 9 10 9 9 11 11 12 14 13 14 17 13 16 13 15 13 14 11 11 11 10 10 11 12 12
4 4 3 3 2 2 2 3 4 5 5 5 5 4 4 4 3 3 4 3 3 5 6 6 7 5 6 6 5 10 9 8 8 7 9 10 13 11 15 14 14 13 11 12 12 12 12 11 11 10 10 11 11 11
4 4 3 3 2 2 2 2 3 4 5 5 4 4 4 4 3 3 3 3 4 5 9 8 6 7 6 6 6 6 7 7 7 7 9 10 12 11 12 13 13 12 12 13 13 13 12 11 11 11 11 11 12 12
4 4 3 3 2 2 2 2 2 4 5 5 4 4 4 4 3 3 2 3 2 5 9 8 6 6 6 6 7 6 7 7 8 9 10 11 9 11 12 13 13 12 12 13 13 11 11 12 11 11 11 11 11 12
4 4 3 3 2 2 2 2 3 5 5 5 5 5 5 5 4 5 5 3 2 2 7 11 6 7 7 7 7 7 7 8 8 8 9 9 9 10 14 14 10 11 11 10 11 10 11 11 11 11 11 11 11 11
3 3 3 3 2 2 2 2 4 5 5 4 4 5 5 5 5 6 6 4 1 2 7 11 10 7 6 7 8 8 8 8 8 9 9 10 10 10 12 13 10 11 11 11 10 10 11 11 12 11 11 11 11 11
3 4 3 3 3 2 2 3 4 5 5 5 4 5 5 5 4 5 3 2 1 4 5 11 11 9 7 8 9 8 9 8 9 10 11 11 11 11 13 11 12 12 12 12 12 11 11 11 12 12 11 11 12 13
4 4 4 4 3 3 3 3 3 4 5 5 5 5 6 5 6 5 3 3 3 4 9 10 12 13 7 8 9 9 9 11 10 11 12 12 13 14 12 11 12 12 12 13 13 13 12 13 13 13 13 13 13 14
4 4 4 4 4 3 3 3 4 5 4 5 5 7 9 5 3 3 4 6 8 7 7 10 8 11 9 9 11 10 11 12 14 12 11 14 14 11 10 10 11 12 12 12 13 16 15 14 14 14 13 13 13 14
4 5 5 4 4 4 3 4 4 5 6 8 11 10 9 3 5 6 9 10 10 12 9 8 9 11 9 11 11 11 13 13 15 14 13 15 14 13 13 13 12 11 11 12 11 12 12 12 13 15 15 14 14 13
5 5 5 5 4 4 4 4 4 6 8 9 10 10 9 8 9 11 11 12 12 12 10 9 9 9 9 9 11 12 15 14 15 14 14 16 14 14 14 14 13 12 12 12 11 12 13 14 13 13 13 13 13 13
5 5 5 4 4 4 4 4 4 5 7 9 11 13 12 11 12 13 14 14 13 12 11 11 12 10 10 10 13 13 14 14 15 16 16 15 16 15 14 14 13 13 12 13 13 13 13 13 13 13 14 13 14 15
5 5 5 5 5 4 4 4 4 5 10 12 13 14 13 13 12 13 12 14 12 13 11 10 11 11 10 12 14 19 15 16 20 19 18 18 15 14 13 14 13 13 13 13 13 13 13 13 14 13 14 14 14 15
5 5 4 6 5 4 4 4 4 6 10 13 13 15 13 13 13 13 13 12 12 10 10 12 12 12 13 14 16 17 18 20 18 17 17 19 18 17 15 14 14 14 14 14 13 13 14 14 15 16 16 16 16 16
5 5 8 6 5 5 4 5 6 7 11 13 12 14 12 13 14 13 13 12 11 10 13 12 15 14 15 17 21 21 20 20 16 17 18 18 15 15 15 15 14 13 13 13 14 14 14 15 16 18 18 18 18 18
5 11 6 5 5 5 5 8 8 10 12 12 14 12 13 13 14 13 11 11 9 10 13 17 16 17 19 23 22 20 19 18 19 19 20 18 16 16 15 15 14 13 13 14 14 15 16 16 17 17 19 20 19 19
10 9 6 5 6 8 8 9 11 11 14 14 14 16 12 12 13 13 12 10 11 13 13 15 15 18 20 21 21 18 17 18 20 18 17 16 16 15 15 15 14 14 14 15 16 17 17 18 19 20 20 20 20 20
7 7 6 6 7 9 11 10 11 16 15 13 13 13 12 12 11 11 11 11 12 12 13 14 18 20 18 19 21 19 23 20 17 16 16 16 15 15 15 15 15 15 16 16 17 17 18 18 19 19 19 19 20 20
6 7 6 7 7 11 16 16 11 14 17 14 12 13 13 13 12 11 11 12 12 13 14 18 17 16 16 16 17 18 18 16 15 16 16 16 16 16 15 15 15 16 17 17 17 17 19 19 19 19 19 19 20 20
9 9 8 10 13 11 15 14 17 13 13 15 13 13 13 12 12 12 12 11 12 14 18 16 16 16 16 17 15 15 15 13 14 15 15 16 16 15 16 16 15 15 17 18 18 17 18 19 19 18 19 19 20 20
11 8 12 13 18 19 18 14 16 14 14 15 13 12 14 13 12 12 12 13 15 17 15 15 16 17 17 16 15 14 14 14 14 14 13 14 16 16 16 16 16 17 18 19 19 20 20 20 19 19 19 20 20 21
10 12 17 19 20 21 19 17 19 20 18 17 14 14 15 15 14 12 16 16 17 17 15 15 17 17 17 16 15 15 14 14 15 15 15 16 16 16 16 16 17 18 19 21 19 20 20 17 18 20 20 21 21 22
11 18 20 21 23 23 18 22 16 19 19 17 17 16 15 15 14 16 19 19 19 19 19 19 16 17 16 17 17 18 16 15 16 16 15 16 17 18 17 18 18 19 19 19 19 19 20 20 18 21 22 23 23 24
20 22 23 26 26 22 25 22 23 21 22 20 19 16 16 15 17 20 21 22 21 21 21 21 18 17 18 18 18 18 17 15 16 18 17 17 18 19 19 19 19 19 18 19 20 20 21 21 22 22 23 23 25 26
25 25 24 26 26 22 22 23 24 23 21 21 18 16 15 16 19 22 22 23 23 22 22 22 22 21 18 17 18 18 18 16 15 17 18 16 16 17 19 20 20 20 19 18 19 21 22 22 22 23 23 21 19 26
25 25 18 14 17 17 19 17 17 20 24 22 19 18 17 20 20 21 21 21 22 21 21 21 20 19 19 19 19 18 18 18 17 19 19 19 18 17 17 18 19 20 18 18 19 20 21 21 22 22 24 25 26 26
19 20 22 22 20 21 22 23 24 24 22 18 17 21 20 21 21 22 21 21 21 20 20 18 18 18 18 19 18 18 19 19 18 18 19 19 19 18 18 18 18 17 19 20 19 19 20 20 21 22 23 24 27 27
21 19 19 25 24 24 23 22 22 20 18 20 22 19 20 20 22 22 21 21 20 19 19 19 19 18 18 18 18 18 17 16 16 18 19 20 20 20 18 18 18 18 18 18 16 19 21 21 21 22 23 24 26 29
21 20 22 27 23 22 23 21 23 20 20 20 19 19 19 21 22 20 21 21 21 21 19 18 18 18 18 18 19 19 19 17 16 16 17 18 19 19 18 18 19 18 18 18 18 17 15 18 20 24 25 26 26 27
19 23 25 24 24 25 24 21 21 18 24 27 26 24 22 21 19 19 21 21 21 18 18 18 19 18 18 18 18 18 19 18 18 18 18 18 18 18 18 18 18 18 18 19 19 20 21 25 25 26 26 28 28 27
19 25 24 24 24 23 23 25 27 27 28 27 27 27 24 20 20 20 21 20 18 19 17 18 19 19 18 18 17 16 16 17 17 17 17 18 18 18 18 19 19 19 20 21 22 23 24 26 27 27 27 30 30 30
23 25 29 28 26 25 24 25 25 26 27 28 27 26 26 22 20 20 19 19 20 19 19 18 18 18 18 18 17 17 17 17 15 14 14 14 15 17 19 19 20 20 21 22 23 23 25 27 28 27 28 30 31 30

GFSWCAN_con_lsi_027.txt.gz
Lid_Strength_Index
4 4 4 4 3 3 3 2 3 4 4 5 5 5 4 3 3 3 4 3 4 7 6 5 6 7 8 9 11 10 10 9 10 13 14 14 14 14 15 12 14 15 16 16 16 19 19 12 12 14 13 12 12 12
5 4 4 4 3 3 3 2 3 3 4 5 5 5 4 4 3 3 5 2 2 5 6 4 4 5 6 6 8 9 10 9 9 11 11 12 14 13 14 17 13 15 13 15 14 15 11 12 12 11 11 11 13 13
4 4 4 4 4 3 3 2 2 3 4 5 5 5 4 4 4 4 4 3 3 5 6 6 7 5 5 5 5 10 9 7 8 7 9 10 13 12 15 14 14 13 12 13 13 13 12 12 11 11 11 12 12 12
4 4 4 4 3 3 3 3 2 3 4 5 5 5 4 4 4 4 5 3 3 5 9 8 5 7 5 5 5 5 7 6 7 7 9 10 12 11 12 12 13 12 12 13 13 12 12 12 11 11 12 12 12 12
4 4 3 3 3 3 2 3 3 3 5 5 5 5 4 4 4 4 5 3 2 5 9 8 6 7 6 6 6 6 7 7 8 9 10 11 10 11 12 13 14 13 12 13 13 10 11 12 11 11 11 12 12 12
4 3 3 4 3 3 2 3 3 4 5 5 5 5 5 4 5 5 5 2 2 3 7 11 6 7 7 7 7 7 7 8 8 8 9 8 9 9 14 14 11 11 11 10 11 11 11 11 11 11 11 12 12 12
4 4 4 4 4 3 3 3 3 4 4 5 5 5 5 5 6 7 7 5 2 2 7 10 10 7 7 8 8 8 8 8 8 9 9 9 10 10 11 14 10 11 11 11 11 11 12 11 12 11 11 11 11 12
4 4 4 4 4 4 4 3 3 3 4 5 5 5 5 5 5 6 4 3 2 4 5 11 11 9 7 8 9 7 9 8 9 9 10 10 10 11 13 11 11 12 12 12 12 11 10 11 12 12 12 12 13 13
5 4 4 5 5 4 4 3 3 3 4 4 5 5 5 6 6 4 2 3 3 5 9 10 12 13 7 8 9 9 9 11 10 11 11 11 12 14 11 11 12 12 12 13 13 12 12 13 13 14 13 13 13 13
5 5 5 5 5 5 4 4 4 3 4 4 6 7 9 6 4 3 4 6 8 8 7 10 9 11 9 9 11 11 11 12 14 12 11 13 14 11 11 11 11 12 13 13 14 16 15 15 14 14 13 13 13 14
5 5 5 5 5 5 4 4 4 4 5 7 10 11 10 7 5 6 9 10 9 11 9 9 9 10 9 11 11 11 13 14 15 16 13 14 15 14 14 12 12 12 12 13 12 12 12 12 13 14 14 14 14 14
5 5 5 5 5 5 5 4 4 6 7 7 8 9 10 9 9 11 11 11 11 12 10 9 10 10 10 9 11 12 14 14 15 15 14 16 15 15 14 14 14 13 12 12 12 12 12 13 13 14 14 15 14 14
5 5 5 5 5 5 5 4 4 5 6 8 10 12 12 11 13 13 14 12 13 11 11 11 11 10 10 9 12 14 13 14 15 17 17 16 17 15 15 14 14 13 12 13 13 13 13 14 14 14 14 13 14 15
5 5 5 5 6 5 5 5 4 5 8 11 12 14 13 13 12 12 13 12 12 13 10 10 12 11 10 12 12 13 15 16 19 19 19 18 16 15 15 14 14 14 14 14 14 14 14 14 13 13 13 14 15 16
5 5 5 7 6 5 5 5 5 6 9 13 12 15 13 12 13 13 13 12 11 10 11 11 12 11 13 14 15 15 17 19 18 17 18 19 19 17 15 14 14 14 14 14 13 13 14 13 14 14 15 15 16 17
5 6 9 6 5 5 6 6 7 7 10 12 12 14 12 13 13 13 13 12 11 10 11 11 13 14 14 15 21 20 19 19 16 18 19 21 16 16 16 15 15 14 14 14 14 14 14 15 16 17 17 17 18 18
6 11 7 5 6 6 6 8 9 10 10 11 13 12 12 13 13 13 11 11 9 11 12 13 14 16 18 23 21 20 18 15 19 20 21 19 18 16 16 15 15 14 14 14 14 15 16 16 16 17 19 20 19 19
11 10 6 6 7 9 9 10 11 12 13 17 15 15 13 12 13 12 12 10 10 12 13 14 15 18 20 21 21 18 18 17 20 19 18 18 17 16 15 15 15 15 15 15 15 16 16 17 18 19 20 20 20 20
9 7 7 7 8 12 12 12 11 15 18 12 11 13 13 12 11 11 12 11 11 11 12 14 18 19 17 18 18 19 19 19 17 16 17 17 16 16 16 16 16 16 16 16 16 17 18 18 19 19 19 19 20 20
6 7 7 7 8 15 15 18 14 14 17 17 12 14 15 13 12 12 11 12 12 12 13 14 16 16 15 15 16 17 17 17 16 17 18 17 17 16 16 16 16 16 17 17 18 17 19 19 19 19 19 19 20 20
9 10 9 12 14 12 15 15 18 15 13 14 18 15 14 12 12 12 12 11 12 12 14 15 15 15 15 15 14 15 15 15 15 15 17 19 17 16 16 16 15 16 16 17 19 18 18 20 20 18 19 20 20 21
12 9 13 14 20 22 20 14 16 16 14 18 18 18 16 15 14 14 13 13 16 16 16 16 15 16 15 15 15 14 14 15 15 14 13 14 17 17 16 16 16 17 17 17 18 20 20 20 20 20 20 20 20 20
11 13 18 20 21 22 21 20 21 22 20 21 20 20 17 15 13 13 16 17 18 18 18 17 18 16 16 16 15 15 14 15 16 15 15 16 16 15 16 16 16 17 19 20 19 19 20 17 18 20 19 21 20 20
12 19 21 22 24 24 21 25 20 21 22 21 23 22 18 16 13 15 18 19 19 18 20 20 19 16 15 16 17 16 15 15 16 16 15 16 17 18 17 17 17 17 18 19 18 19 19 20 18 20 21 22 22 23
20 23 23 26 28 25 28 26 28 23 24 24 22 23 18 15 16 18 20 20 21 21 21 21 20 20 18 17 17 17 16 15 16 17 17 16 18 18 18 18 18 18 17 19 19 19 20 21 21 21 21 22 23 25
25 25 24 27 28 24 24 25 26 25 24 24 21 18 18 17 20 20 21 22 22 22 22 23 23 22 20 18 17 17 17 16 16 17 17 16 16 17 18 19 20 19 18 17 19 20 21 21 21 22 22 20 19 25
25 25 20 16 19 20 22 20 20 22 25 24 24 23 20 22 21 20 20 20 22 21 21 21 21 21 20 18 18 18 18 17 17 18 18 17 16 15 15 17 18 19 18 18 18 19 20 21 22 21 22 23 24 25
20 21 23 24 23 24 25 25 26 25 23 19 19 24 23 19 19 22 23 20 20 21 21 20 19 18 18 18 18 18 18 18 18 18 18 19 18 18 18 18 18 16 18 18 18 19 20 20 21 21 22 24 26 28
22 21 21 27 27 26 25 23 23 20 18 20 23 23 23 20 24 25 22 23 21 21 20 19 19 18 18 18 18 18 17 17 17 18 20 20 20 21 18 18 18 17 16 17 16 18 20 20 20 21 23 24 26 27
21 22 24 30 25 24 24 23 24 22 20 21 20 21 22 24 24 23 22 23 24 22 20 18 18 18 18 18 18 19 19 18 16 16 18 19 20 19 18 18 17 17 17 17 17 17 15 18 20 22 24 24 25 25
21 25 27 27 26 28 26 23 21 18 24 28 27 25 25 25 23 21 22 21 20 19 18 18 19 18 18 18 18 18 19 18 18 18 18 18 18 18 18 18 17 17 17 18 19 20 21 23 24 25 25 26 26 26
21 26 25 26 26 26 25 27 28 27 29 28 27 29 27 24 23 23 20 20 18 18 16 18 19 19 18 18 17 16 16 18 18 18 18 19 19 19 18 18 18 19 19 20 21 22 23 24 25 25 26 28 29 29
27 28 31 30 28 27 25 26 26 28 28 29 28 28 28 23 22 23 20 19 19 19 18 18 18 18 18 18 18 17 17 17 15 14 14 15 16 17 19 19 19 19 20 21 22 23 24 26 26 26 27 29 31 31

GFSWCAN_con_lsi_030.txt.gz
Lid_Strength_Index
5 5 4 4 4 4 3 3 3 3 4 4 4 5 5 4 3 4 5 3 4 7 7 6 5 7 8 8 11 9 10 10 10 13 14 14 14 13 15 13 14 15 16 16 15 17 20 12 12 15 13 12 12 12
5 5 4 4 4 4 3 3 3 3 4 4 5 5 5 4 4 4 6 3 2 5 6 4 4 5 5 6 8 8 9 9 9 11 11 11 14 13 15 17 14 16 13 14 14 15 12 12 12 11 11 12 13 13
5 4 4 4 3 4 3 3 3 3 3 4 5 5 5 4 4 4 6 4 3 5 6 7 7 4 4 4 4 9 8 7 7 7 9 10 14 12 15 15 16 13 12 13 13 13 12 12 11 12 12 12 12 12
5 4 4 4 4 4 4 3 3 3 3 5 5 5 5 4 4 4 6 5 5 5 9 8 4 6 5 4 4 5 6 6 6 7 9 10 12 10 13 13 13 12 12 13 13 12 12 12 12 12 12 12 12 12
5 5 4 4 4 4 4 4 3 3 4 5 5 5 5 5 5 5 6 5 3 5 9 8 6 6 5 6 6 5 6 8 8 9 10 11 9 11 13 13 14 12 12 13 13 11 12 12 11 11 12 13 12 13
5 5 5 5 5 5 5 4 4 4 3 4 5 5 5 5 5 6 6 3 3 2 7 11 6 7 6 7 7 7 7 7 8 8 9 8 8 10 12 14 10 11 11 10 11 11 11 11 11 11 12 12 12 13
5 5 5 5 5 5 5 5 4 3 4 4 5 5 5 5 6 9 7 5 4 4 7 10 10 7 6 7 8 8 7 8 8 8 9 9 10 10 11 14 11 11 11 12 11 11 12 12 12 12 12 12 12 13
5 5 5 5 5 5 5 4 4 3 3 4 4 5 5 4 5 7 5 4 4 4 5 11 11 9 6 8 10 7 9 8 9 9 9 10 10 10 12 10 11 12 12 12 12 11 11 12 12 12 12 13 13 14
6 5 5 5 5 5 5 4 4 4 3 4 4 4 5 6 7 5 2 2 3 5 9 10 12 13 7 8 9 9 9 11 9 11 11 11 11 13 11 11 11 12 12 13 13 13 12 13 13 13 13 14 14 15
6 5 5 5 5 5 5 5 4 4 4 4 6 7 8 7 6 4 4 5 7 7 8 9 9 11 9 9 10 10 11 12 14 12 11 13 13 11 11 11 11 12 13 13 13 15 15 15 14 14 14 13 13 14
6 5 5 5 5 5 5 5 4 4 4 7 10 11 8 7 6 6 9 10 9 11 9 9 10 11 9 11 11 11 13 14 15 15 13 14 15 14 13 12 11 12 12 13 13 13 12 12 13 14 14 14 14 14
6 6 5 5 5 5 6 5 4 7 7 7 8 8 9 9 9 11 12 11 11 12 10 9 9 10 10 9 12 12 14 14 16 15 14 16 15 15 14 14 14 13 12 12 13 12 13 13 13 13 14 14 15 15
6 6 5 5 5 6 5 5 5 5 6 7 9 12 11 11 13 12 14 13 12 11 11 11 11 10 10 10 13 14 13 14 14 17 16 17 16 15 15 14 14 13 13 13 13 13 13 13 13 14 15 15 15 16
6 6 5 5 6 6 5 5 6 5 8 11 13 15 15 14 13 13 13 12 12 12 11 10 11 11 10 11 12 13 14 15 19 19 19 17 16 15 15 14 14 15 14 14 14 14 14 14 14 14 14 15 15 16
6 6 5 7 6 6 6 6 6 7 9 12 12 16 14 12 12 12 12 12 12 10 11 11 12 11 13 13 14 15 16 18 17 17 17 19 19 18 15 15 15 15 15 15 14 14 14 14 14 15 14 15 16 17
6 6 10 7 6 6 7 8 7 8 11 12 13 15 12 13 13 14 14 12 11 10 11 11 13 13 13 15 18 18 19 18 15 18 19 22 17 16 15 15 15 14 14 14 14 14 14 14 15 17 17 17 18 18
6 11 8 6 6 7 7 9 10 11 12 13 12 10 12 13 13 13 11 11 9 11 12 12 14 14 17 23 21 18 17 15 17 20 21 20 19 16 16 15 15 14 14 14 14 15 16 16 16 17 19 20 20 20
11 10 7 6 8 10 11 11 12 13 14 14 14 18 12 12 12 12 11 10 10 11 13 13 14 19 20 21 20 17 19 21 18 20 19 18 18 17 16 16 15 15 15 15 16 16 15 16 17 19 19 20 20 20
9 8 7 7 9 14 16 14 12 16 15 13 12 12 11 11 11 11 10 10 10 11 12 13 15 18 17 18 19 21 23 19 17 16 17 17 16 16 16 17 17 16 16 16 16 15 17 16 17 18 18 18 20 20
7 8 8 8 9 17 17 20 15 14 16 19 14 13 14 12 11 11 11 11 12 12 13 13 14 15 16 15 16 17 18 17 17 17 18 18 18 18 17 16 16 17 18 18 17 17 18 19 19 19 19 19 20 20
10 11 10 12 15 13 16 15 19 16 14 15 16 17 15 15 11 11 12 11 12 12 13 14 15 15 14 15 14 15 15 16 16 16 17 20 18 17 18 18 17 16 17 17 18 17 18 19 19 18 19 20 20 21
13 10 14 15 21 23 21 14 17 18 16 15 18 22 16 16 21 15 13 14 17 18 18 18 17 17 16 15 15 14 14 14 15 15 14 15 18 18 17 17 17 18 17 16 17 19 20 19 20 20 20 20 20 20
12 14 19 21 22 23 22 21 23 21 23 22 25 24 24 21 17 15 17 16 18 17 18 18 19 18 18 15 14 14 14 15 16 16 16 17 17 16 16 17 16 17 18 19 18 19 19 17 18 20 20 21 20 20
13 20 21 23 24 25 22 26 21 25 25 24 27 25 24 22 19 19 20 19 17 18 19 20 20 19 16 15 16 16 16 15 16 17 16 16 17 18 16 16 16 16 17 18 18 17 18 19 18 20 20 21 22 23
19 23 24 27 29 26 27 28 30 25 26 28 26 25 23 21 21 21 22 21 18 19 20 21 21 21 21 18 16 16 15 15 16 17 18 16 18 18 18 17 18 17 17 17 18 18 19 20 20 20 21 22 22 24
24 26 26 26 28 25 25 27 28 27 27 28 26 24 25 21 22 22 20 21 22 19 20 22 23 23 22 19 19 18 17 16 15 17 18 16 16 17 18 19 19 19 17 16 18 19 20 20 20 21 21 20 19 24
26 25 21 18 20 21 23 22 21 24 29 27 26 25 25 25 24 19 18 20 22 20 19 20 21 22 21 21 19 17 17 17 16 17 17 17 15 15 16 17 18 18 17 17 18 18 19 20 20 20 21 21 23 23
20 22 24 25 24 25 26 27 28 26 25 21 21 26 26 22 20 22 22 22 22 21 20 19 19 19 19 18 18 18 18 18 17 17 17 18 18 17 17 17 17 15 17 17 18 18 19 19 20 21 22 24 25 25
23 22 22 28 29 28 26 24 24 23 20 21 23 23 22 20 24 25 23 24 23 23 21 19 18 17 18 18 18 18 17 17 17 18 19 20 20 19 17 16 17 17 17 17 16 18 19 20 20 22 23 23 25 25
23 23 25 31 27 25 26 26 26 26 22 22 21 21 21 22 24 25 25 27 26 23 21 20 18 17 18 19 19 19 18 18 16 16 18 19 20 18 18 18 18 18 17 17 17 16 15 18 19 22 23 24 24 25
23 26 28 28 28 30 29 26 24 21 27 29 28 25 24 25 23 24 26 26 24 21 19 19 19 18 18 18 18 18 19 18 17 17 17 18 18 18 18 17 17 17 17 17 19 19 20 22 22 23 23 24 23 25
22 27 27 28 29 29 28 30 31 29 30 28 27 29 27 25 25 25 24 26 23 19 16 17 18 18 18 18 18 17 16 17 17 17 17 18 18 18 18 18 18 18 18 19 20 21 21 22 22 23 24 25 26 27
29 31 33 32 31 29 28 28 28 30 29 29 28 28 29 25 23 23 23 24 23 19 17 17 16 16 17 17 17 17 17 17 15 14 15 15 16 17 18 19 19 19 19 20 21 21 22 23 24 24 25 27 27 28

GFSWCAN_con_lsi_033.txt.gz
Lid_Strength_Index
6 6 5 5 4 4 4 3 3 3 3 4 4 5 4 4 3 4 6 4 5 8 6 6 6 7 7 8 11 9 9 9 10 13 13 13 15 13 14 14 14 14 16 16 15 17 19 12 12 14 12 12 12 12
7 6 5 5 4 5 4 4 3 4 3 4 4 5 5 4 3 3 7 4 4 5 6 4 4 4 5 6 7 8 9 9 8 11 11 11 14 12 15 17 14 15 12 14 14 14 11 11 11 11 11 12 12 12
6 5 5 5 5 5 5 4 4 4 3 4 5 5 5 4 4 4 6 5 4 5 6 7 7 4 4 4 3 8 8 7 8 6 9 10 13 11 15 14 16 14 12 13 12 12 11 11 11 12 12 12 13 12
6 5 5 5 5 5 5 5 5 5 4 4 5 5 5 5 5 5 7 6 6 6 9 8 4 6 4 4 4 4 6 6 6 6 9 10 12 11 13 13 13 12 12 12 13 12 12 12 12 12 12 12 13 13
6 5 5 5 5 5 6 5 5 5 4 4 5 5 5 5 5 5 6 6 5 6 9 8 6 6 5 4 5 5 6 7 8 9 10 11 9 11 11 12 14 12 11 12 13 11 11 12 11 11 12 13 13 14
6 6 6 6 5 5 5 5 5 5 4 4 5 5 5 5 5 6 7 4 3 3 7 10 5 7 6 6 6 6 7 7 7 8 9 8 9 10 12 13 10 11 11 10 10 11 11 11 11 11 12 12 12 13
6 6 6 5 5 5 5 5 5 5 4 4 4 5 5 5 7 9 8 6 4 5 6 10 9 7 6 7 7 7 7 8 8 8 9 9 9 9 11 14 11 10 11 11 11 11 12 12 12 12 12 12 13 14
6 6 6 5 5 5 5 5 5 4 4 3 4 4 4 4 5 7 5 4 4 6 5 11 10 9 7 8 9 7 8 8 8 9 9 10 10 10 12 11 11 12 12 12 12 11 11 12 12 13 12 13 14 15
6 6 6 5 5 5 5 5 5 4 4 4 4 4 5 7 8 6 5 4 4 5 9 10 13 14 7 8 8 9 8 11 9 11 10 11 11 13 10 11 11 12 12 12 13 12 12 13 13 13 13 13 15 15
6 6 6 5 5 5 5 5 5 4 4 3 5 7 8 7 6 6 4 6 7 7 7 9 11 12 10 9 10 10 11 12 14 12 11 13 12 10 10 10 11 11 12 12 14 15 14 14 14 14 14 14 14 15
7 6 6 5 5 5 6 5 5 5 5 8 9 10 8 6 6 6 9 9 9 11 8 9 11 11 10 12 11 11 13 13 14 14 14 14 15 14 13 13 12 12 12 12 12 12 12 12 13 14 14 15 15 15
7 6 6 5 5 5 6 5 5 9 7 7 8 8 9 9 9 11 11 11 11 11 10 9 10 10 10 10 13 12 14 13 16 15 15 16 15 14 14 14 13 13 12 13 13 13 13 13 13 13 14 15 15 16
7 6 6 6 5 6 5 6 6 6 7 7 9 11 11 11 13 12 14 12 14 12 11 10 11 9 11 10 13 14 13 14 13 15 16 17 15 15 15 14 14 13 13 13 14 14 13 13 13 14 15 15 15 16
7 6 6 6 6 6 6 6 7 7 9 11 13 18 17 14 13 13 13 14 13 12 11 10 11 11 10 11 12 12 14 14 17 18 19 18 17 15 15 14 14 14 14 14 14 14 14 14 14 14 15 15 16 17
7 6 6 8 6 6 7 7 7 8 10 12 12 18 17 12 12 12 12 12 12 10 10 11 11 11 13 13 13 14 15 17 16 17 17 19 19 19 15 15 15 15 15 15 14 14 15 15 15 16 15 15 16 17
7 7 11 7 6 7 8 8 8 8 11 12 12 16 13 13 13 14 17 13 12 10 11 11 12 13 12 16 15 15 18 18 15 16 19 22 17 16 15 15 15 15 15 14 14 14 15 15 16 17 17 17 18 18
7 12 9 6 7 8 8 10 10 12 12 13 13 12 11 14 14 14 11 11 9 10 12 12 13 13 16 21 20 18 17 15 17 20 21 20 19 16 16 15 15 15 15 14 14 15 16 16 17 17 19 20 19 19
12 11 7 7 9 11 13 11 13 14 15 14 15 19 12 13 13 12 11 10 11 11 12 12 14 16 19 20 19 17 19 21 17 18 18 18 18 17 16 15 15 15 16 16 16 16 16 16 17 18 19 19 20 20
10 10 8 8 10 15 20 17 13 16 16 14 13 13 13 12 11 11 10 10 10 11 12 13 14 15 17 18 19 18 19 18 17 16 17 18 17 16 16 17 17 17 17 17 16 15 16 16 17 18 18 18 19 19
7 8 9 9 11 18 19 21 14 15 17 19 15 15 14 14 14 12 11 10 11 11 12 13 13 15 16 16 16 15 16 16 17 17 17 17 18 19 18 17 16 17 18 18 18 17 18 18 18 18 18 18 19 20
11 11 11 12 15 15 16 16 21 16 15 16 15 16 17 16 17 16 12 11 11 11 13 15 16 16 16 15 15 14 15 15 16 16 16 19 18 19 19 19 18 17 17 18 18 17 17 18 19 17 18 20 20 20
13 11 15 15 21 22 19 15 18 19 19 18 18 22 18 17 17 19 14 16 17 20 17 18 18 18 18 17 16 15 15 14 14 15 14 15 18 19 18 18 17 18 18 18 17 18 18 18 19 19 20 19 19 19
12 14 18 20 22 23 24 22 23 20 22 23 28 26 26 26 22 20 22 22 22 19 18 17 18 18 19 17 15 14 13 14 15 15 15 16 17 17 17 18 17 17 18 18 17 18 19 17 17 19 19 20 20 20
13 20 21 22 23 26 23 27 22 26 26 26 22 28 27 27 22 25 24 25 22 19 19 19 18 19 18 17 16 16 15 15 15 15 15 16 17 18 16 16 16 16 16 17 18 18 18 18 17 19 19 20 21 22
20 22 23 25 29 26 27 28 30 26 27 30 23 26 27 24 26 28 25 24 23 23 22 20 19 18 20 20 18 17 16 16 16 16 16 16 17 17 18 17 17 17 16 17 18 18 18 19 19 19 20 21 22 22
23 24 24 25 29 25 26 28 29 28 28 28 26 27 29 26 26 25 22 23 24 24 23 23 21 21 19 19 20 20 19 17 17 16 16 16 16 17 18 18 18 18 16 16 17 19 19 19 19 20 20 19 18 23
24 24 22 19 21 22 24 23 22 25 30 26 28 28 29 28 28 22 21 22 23 24 24 23 21 20 19 19 19 18 17 17 18 16 16 16 16 15 15 16 17 17 16 16 17 17 19 19 19 19 20 20 21 22
20 21 24 24 25 26 26 27 28 27 26 23 23 28 27 24 22 21 22 24 25 26 25 22 21 19 18 17 17 17 17 17 17 17 17 17 17 16 15 15 16 14 16 16 16 17 18 18 19 20 21 22 23 23
23 22 22 29 29 28 27 25 25 24 21 23 24 25 24 21 24 25 23 24 28 28 26 24 21 20 16 15 15 16 16 17 18 19 19 20 19 19 16 15 15 16 16 16 15 16 18 18 19 20 21 23 24 24
24 24 25 30 26 25 26 26 28 28 25 24 23 24 23 23 24 26 25 27 27 26 26 25 22 20 18 17 16 16 17 17 17 18 18 19 19 17 17 17 17 17 17 17 17 16 15 18 19 21 23 24 24 25
23 27 28 28 28 31 30 28 27 24 29 32 31 27 25 25 23 24 26 27 28 29 27 25 22 20 19 19 18 18 17 17 17 16 17 17 17 17 17 17 16 16 16 17 19 20 20 21 22 23 24 24 23 24
23 28 27 28 29 30 30 32 33 31 32 31 30 31 28 26 24 24 26 28 27 26 21 21 21 19 17 17 17 17 15 17 17 16 17 17 17 17 16 16 17 17 18 19 20 21 21 22 22 22 23 24 25 25
31 32 34 32 31 31 29 31 31 32 31 32 30 29 30 25 22 23 25 26 26 25 24 19 17 16 15 15 16 16 16 16 15 14 14 15 15 16 17 18 18 18 19 20 20 21 21 22 23 23 24 25 26 26

GFSWCAN_con_lsi_036.txt.gz
Lid_Strength_Index
7 7 6 6 5 5 5 5 5 4 4 4 4 5 5 5 4 5 6 4 6 6 5 5 5 7 7 7 10 8 9 9 10 13 13 12 13 12 13 11 12 14 15 16 15 17 18 9 8 11 9 9 10 10
7 7 6 6 5 5 5 5 5 5 4 4 5 5 5 5 4 4 7 4 4 6 5 3 3 3 4 4 6 8 8 8 9 11 10 10 12 11 12 14 10 14 11 12 12 12 8 8 8 8 9 9 9 10
7 7 6 6 6 6 6 6 6 5 5 5 5 5 4 5 4 4 6 6 5 5 5 5 5 3 2 3 3 8 8 6 7 6 9 9 12 10 13 12 11 9 8 11 11 9 8 8 8 9 9 10 10 10
7 6 6 6 6 6 6 6 6 5 5 4 4 5 5 5 5 5 6 5 6 7 8 7 3 4 3 4 3 4 5 5 5 6 8 10 11 8 11 10 10 9 9 10 10 8 8 9 9 9 10 11 11 11
7 6 6 6 6 6 6 6 6 5 5 4 4 5 5 5 5 5 5 5 5 7 9 7 5 5 5 4 4 4 5 6 7 8 9 10 8 9 8 9 10 8 9 10 11 8 8 9 9 10 10 12 12 12
7 6 6 6 6 6 6 6 5 5 5 4 4 4 5 5 5 6 7 4 4 4 6 10 5 6 6 5 6 6 6 7 7 8 9 8 6 8 11 12 8 7 7 6 7 8 9 9 10 10 11 11 12 12
7 6 6 7 6 5 6 6 5 5 4 4 3 4 4 4 5 9 8 6 4 5 6 10 9 6 6 6 6 7 6 7 7 8 9 8 8 8 10 12 7 7 7 7 7 8 10 10 10 10 11 12 12 13
7 6 6 7 6 6 6 5 5 5 4 3 3 4 4 4 5 7 5 4 4 6 5 10 10 8 6 8 8 7 8 8 8 8 8 9 9 9 12 8 7 7 8 9 9 9 9 10 10 11 12 12 13 14
7 7 7 6 6 6 5 5 6 5 4 4 3 4 4 6 8 6 5 4 3 5 9 9 11 12 6 7 8 8 8 10 8 10 10 10 11 12 9 8 8 8 9 9 10 10 10 11 12 12 12 13 14 15
7 6 7 6 6 6 5 6 5 5 5 4 5 7 8 7 6 6 5 6 6 6 6 9 8 10 7 7 9 9 10 11 13 11 11 12 11 8 7 8 8 8 9 10 12 13 13 13 13 12 12 12 13 14
7 7 7 6 6 6 6 6 5 6 5 6 9 10 8 6 7 6 9 9 8 10 7 7 8 9 7 10 10 10 11 12 14 13 13 12 13 11 11 11 10 9 10 10 10 10 11 11 11 12 13 13 14 14
7 7 7 7 6 6 6 6 6 7 7 7 8 7 8 8 9 10 11 10 10 11 8 9 8 8 8 8 9 10 12 12 14 12 14 15 12 11 12 12 11 10 10 10 10 10 10 11 11 12 13 14 14 15
7 7 7 7 6 6 6 6 7 6 6 6 8 11 10 10 12 12 13 12 12 11 10 10 10 8 8 8 11 11 13 13 12 14 15 13 11 12 12 12 12 11 11 11 12 11 11 12 12 12 13 14 14 15
7 7 7 7 7 6 6 7 7 7 8 10 11 15 13 13 12 12 12 12 11 11 10 9 10 10 9 11 10 13 12 13 14 16 14 11 13 13 12 12 12 12 12 12 12 12 12 12 13 13 13 13 14 16
7 7 7 8 7 6 7 8 7 7 10 12 11 14 13 11 11 11 12 11 10 10 10 10 10 10 12 12 12 12 13 14 14 13 11 12 14 15 12 12 12 12 12 12 12 12 13 13 13 14 13 14 15 16
7 8 10 9 7 7 8 9 8 8 11 11 12 13 11 12 12 12 13 12 9 9 10 11 11 12 12 11 13 13 14 14 12 11 11 14 14 13 12 12 12 12 12 12 12 12 13 13 14 15 15 15 16 16
8 11 9 8 7 9 8 9 10 12 12 13 13 12 11 12 12 11 11 11 9 11 11 12 13 13 13 15 14 13 13 11 12 12 13 14 14 13 13 13 13 13 13 12 13 13 14 15 15 15 17 17 16 17
10 10 9 8 9 11 12 11 12 14 15 13 14 14 12 12 12 12 10 10 10 11 11 12 13 13 14 15 13 13 13 14 14 14 14 14 13 13 13 12 13 13 13 13 14 15 15 15 15 17 17 17 18 18
9 9 8 9 10 13 16 15 13 16 15 14 13 13 13 13 11 11 11 10 10 9 11 12 13 13 13 14 15 15 15 14 15 14 14 14 14 14 13 14 14 14 14 14 14 15 14 15 16 16 17 16 17 17
7 8 9 9 11 15 19 18 13 15 17 16 14 15 14 14 13 13 12 11 11 11 12 12 12 14 15 15 15 15 14 14 14 15 13 13 14 16 15 14 14 15 15 15 15 15 16 17 16 16 16 17 17 18
10 11 11 12 14 15 16 16 18 16 15 16 15 16 17 15 15 15 12 11 12 12 12 15 15 15 15 16 15 14 14 14 14 14 14 14 13 15 15 16 15 15 15 15 15 15 16 17 17 16 15 17 17 18
12 11 14 15 18 20 18 16 18 17 18 17 16 19 18 17 16 15 15 15 14 17 17 17 17 17 17 16 16 15 15 15 13 13 12 12 14 15 16 15 15 16 15 15 14 16 17 16 16 17 18 18 17 17
12 13 17 19 20 21 22 20 20 19 21 20 22 21 20 19 18 18 16 18 18 17 17 18 18 18 18 17 16 14 13 14 14 14 13 13 14 14 14 15 14 16 16 16 15 17 17 16 16 17 17 18 18 18
13 17 19 21 21 23 22 24 21 22 22 21 20 22 22 21 19 19 18 19 18 18 18 20 20 20 19 18 17 16 15 15 15 14 13 14 14 15 14 14 15 14 14 16 16 17 16 17 16 18 18 18 19 20
17 19 21 24 25 24 25 24 25 22 25 26 22 23 22 22 21 22 21 19 20 20 20 20 21 20 21 20 18 16 15 15 17 17 16 14 14 15 15 15 15 15 15 16 17 17 17 17 18 18 18 19 20 20
20 22 23 21 24 23 23 25 24 24 25 24 23 23 24 22 23 22 20 19 20 21 21 21 21 21 20 18 18 17 16 15 16 18 17 14 14 15 16 16 17 17 15 15 16 17 18 18 18 18 19 18 17 20
21 22 21 19 21 22 23 22 21 23 25 25 23 24 24 26 25 20 19 20 20 21 21 20 21 21 20 19 17 16 15 14 15 17 16 16 15 14 14 15 16 15 15 15 15 17 17 18 18 18 18 18 19 20
18 19 20 21 23 23 24 24 25 24 23 21 21 26 24 23 20 19 19 20 21 22 22 21 21 20 20 19 17 16 15 14 14 15 15 15 15 14 13 13 14 14 14 15 15 16 16 17 17 18 18 20 20 19
19 20 20 25 26 25 24 23 23 21 20 21 22 22 22 20 21 21 21 22 24 23 22 21 19 20 20 18 16 15 14 15 16 17 17 17 17 16 14 15 14 14 15 15 14 15 16 16 17 18 19 20 20 20
20 20 22 25 24 23 23 24 24 26 23 23 23 22 22 22 22 24 23 23 22 21 21 23 23 23 21 20 18 17 14 14 14 15 17 16 16 15 15 15 15 15 15 15 16 16 14 17 18 21 21 21 21 22
22 22 25 24 24 28 28 27 26 24 27 27 29 25 23 24 23 23 24 23 23 25 24 21 21 21 21 20 19 19 18 14 14 15 15 14 15 15 15 15 15 15 16 16 16 18 19 20 21 22 22 22 22 22
22 24 24 26 27 29 29 30 30 29 29 28 27 30 27 25 23 21 23 24 23 21 19 20 21 20 19 18 17 16 14 15 15 15 15 15 15 15 15 15 15 15 16 18 19 20 20 21 21 22 22 22 23 23
27 28 30 29 31 30 29 29 29 30 30 31 28 28 28 25 22 21 23 24 21 21 21 21 20 18 16 15 14 14 13 15 14 13 13 14 14 14 16 16 17 18 18 19 19 20 20 21 22 22 23 23 23 23

GFSWCAN_con_lsi_039.txt.gz
Lid_Strength_Index
7 6 6 6 5 6 6 6 6 6 6 5 5 5 5 4 5 5 6 4 7 8 6 4 4 6 6 7 10 8 9 9 10 13 13 12 12 11 12 11 12 13 15 16 15 17 18 8 8 11 9 7 8 9
7 7 6 6 6 6 6 6 6 6 6 5 5 5 4 5 5 5 7 5 5 8 5 2 2 2 3 4 6 6 8 8 8 11 11 10 11 10 11 14 9 13 10 14 13 12 7 6 7 6 8 8 8 9
7 7 6 5 6 6 6 6 6 6 6 5 5 4 5 5 5 5 6 6 6 6 5 4 5 2 1 2 2 7 7 6 7 5 9 9 12 9 13 12 10 9 7 10 10 8 7 6 6 7 8 9 9 9
7 7 6 5 6 6 6 6 6 5 5 5 5 4 5 5 5 5 6 5 7 7 9 7 2 3 2 2 3 3 5 5 5 6 8 10 11 7 10 10 10 8 8 9 10 8 7 8 8 8 9 10 10 10
7 7 7 6 6 6 6 5 5 6 5 5 5 4 5 5 5 5 5 5 5 8 9 7 3 3 3 4 4 4 5 6 7 8 9 10 8 8 8 9 10 7 9 10 10 7 7 8 8 9 10 11 11 11
7 7 7 6 6 6 6 5 5 5 6 5 4 3 4 5 5 6 7 5 4 5 8 9 4 5 5 4 5 5 5 6 7 8 9 7 6 8 11 11 7 6 5 5 7 7 7 8 9 9 10 11 11 11
7 7 6 6 6 6 6 5 5 6 6 5 3 3 4 5 5 8 8 6 4 5 7 9 8 5 5 6 6 6 6 7 7 8 8 8 8 8 10 12 7 6 5 5 5 6 8 8 9 10 11 11 11 12
7 7 6 6 6 6 6 5 5 6 5 5 3 2 3 4 4 7 5 4 4 6 5 10 10 7 5 7 8 6 8 7 8 8 8 9 8 8 12 8 7 6 5 6 6 6 7 8 9 11 12 12 13 14
7 7 6 6 6 6 6 5 6 6 6 4 3 3 4 5 7 6 5 4 4 5 8 9 11 12 5 6 7 7 7 10 8 10 9 9 10 12 9 7 7 6 7 7 8 8 9 10 11 12 12 12 13 14
7 7 6 6 6 6 6 5 6 6 6 4 4 6 8 6 5 5 5 6 5 5 6 9 6 9 6 7 8 8 9 11 13 11 10 12 11 8 6 6 6 7 7 8 10 11 11 12 12 12 12 12 12 13
8 7 6 7 6 6 6 6 6 6 6 5 7 9 7 6 5 6 9 8 8 10 7 7 7 9 6 9 9 8 10 11 14 13 13 12 12 9 9 9 9 8 7 8 8 8 9 10 11 11 11 12 13 13
8 7 7 7 7 7 7 6 6 7 8 7 8 7 8 7 8 10 11 9 10 11 8 9 8 7 6 6 9 9 11 11 14 11 13 14 10 10 11 11 10 9 9 9 9 9 9 10 10 11 12 13 13 14
7 7 7 7 7 7 7 7 7 7 6 6 8 10 9 10 12 12 13 12 12 10 10 10 9 8 7 7 10 10 13 13 10 13 14 12 10 11 11 11 10 10 10 10 10 9 9 10 10 11 12 12 14 15
8 7 7 7 7 7 7 8 7 7 8 9 11 12 11 12 11 11 11 11 10 10 10 9 10 9 8 9 9 13 10 11 14 15 14 9 11 12 11 11 10 10 10 11 11 11 11 11 12 12 12 13 14 15
7 7 7 8 8 7 8 8 7 6 9 11 11 13 12 10 10 11 11 11 9 9 9 9 9 9 10 11 11 11 13 14 13 13 10 11 12 12 11 10 10 10 10 10 10 11 11 11 12 13 13 13 13 14
7 7 9 8 8 9 9 9 7 7 10 11 12 12 11 11 11 11 12 11 9 9 9 10 11 11 11 11 12 12 13 14 12 10 10 11 12 11 11 11 11 11 10 10 10 10 11 12 12 13 13 13 14 14
7 9 9 8 8 10 9 9 9 11 12 12 13 11 11 12 11 10 10 11 9 10 11 11 12 12 11 12 13 11 12 11 12 12 11 11 13 13 13 12 11 11 11 11 11 11 11 12 13 14 15 15 15 15
8 8 9 8 9 10 10 10 12 13 14 12 14 13 12 12 12 11 10 9 10 10 11 12 12 12 13 13 12 12 12 12 12 12 12 12 12 12 12 12 12 12 11 11 12 13 13 14 14 15 15 16 16 17
7 8 8 9 10 11 14 14 13 16 14 13 13 12 13 12 11 11 11 11 10 9 11 11 12 12 12 12 13 13 14 14 14 13 12 11 11 12 13 13 13 13 13 13 13 13 13 13 15 16 16 16 17 17
6 7 9 9 10 13 16 16 13 15 16 14 14 14 14 14 13 13 12 11 11 11 12 13 12 12 12 13 13 14 14 13 14 14 12 11 11 12 13 13 12 13 13 13 13 13 15 15 15 15 15 16 16 17
9 10 10 11 13 13 15 16 17 16 15 16 15 15 16 15 15 14 13 11 12 12 13 11 12 13 14 14 14 14 14 13 14 14 14 14 12 11 12 13 13 13 13 13 14 14 15 15 15 15 15 16 16 16
10 10 13 13 14 16 16 16 16 16 17 16 16 18 17 16 16 14 14 15 14 12 13 14 14 15 15 15 15 15 15 15 14 13 12 12 13 12 12 13 13 13 13 13 13 14 15 15 15 15 16 16 16 17
11 12 14 15 16 17 19 17 18 18 19 18 19 18 18 18 16 16 16 14 14 14 14 15 16 17 17 17 16 16 15 14 15 14 13 13 13 12 12 12 13 13 13 13 13 15 16 14 15 16 16 17 17 17
12 14 15 16 17 19 19 20 18 19 19 19 19 19 19 17 18 17 17 15 14 15 16 17 17 17 16 17 17 16 16 16 16 16 14 15 14 13 12 12 13 13 13 14 15 15 16 16 15 16 17 17 17 18
15 16 17 19 20 20 20 21 21 20 20 21 20 20 19 19 18 18 18 15 16 16 15 16 17 18 19 18 18 17 16 17 18 18 16 15 15 13 13 13 13 13 14 15 16 16 16 16 16 17 17 17 18 18
17 17 19 18 20 20 20 22 22 21 20 22 21 20 20 18 20 20 17 15 15 15 16 17 17 18 18 18 19 18 17 16 17 17 16 15 14 14 14 14 15 15 14 14 15 16 16 16 17 17 17 17 16 18
17 18 19 18 18 20 20 20 19 20 22 22 20 21 20 22 21 17 15 16 15 15 16 17 18 19 19 19 18 17 16 16 16 16 14 14 14 14 15 16 14 14 14 14 14 15 16 16 17 17 17 17 17 18
16 17 19 19 20 20 21 21 21 22 20 19 18 22 22 20 19 15 15 16 16 18 18 19 19 19 19 18 17 17 17 16 15 15 14 13 13 13 13 14 12 12 13 13 14 15 15 16 16 17 17 18 18 18
17 17 17 21 21 21 20 20 19 18 18 18 19 19 19 17 16 16 17 19 20 20 20 19 18 18 18 18 17 17 16 15 16 17 17 17 15 12 12 12 12 12 13 13 13 14 15 15 16 16 17 18 18 18
18 16 18 21 22 21 19 21 20 22 21 20 20 19 19 18 18 19 20 21 21 20 19 19 19 20 20 19 18 17 15 15 15 15 16 16 14 11 12 13 13 13 13 14 14 14 13 14 16 18 20 19 19 19
18 18 20 19 20 22 24 25 24 22 22 22 24 21 19 20 19 19 21 20 20 21 21 20 18 18 18 18 18 18 18 15 15 14 14 14 13 13 13 13 13 13 14 14 15 15 17 19 20 20 20 21 20 21
19 19 20 22 22 25 25 24 24 23 23 23 21 25 22 21 21 17 21 22 22 20 18 17 18 17 16 17 16 16 14 15 15 15 15 14 13 13 13 13 13 14 14 15 17 18 19 19 20 20 21 21 22 22
23 23 24 23 24 24 25 24 24 23 24 23 23 24 23 22 21 18 22 22 20 18 18 17 17 17 17 17 15 13 11 12 14 11 10 11 11 12 13 13 14 15 16 17 18 18 19 19 20 20 21 22 22 22

GFSWCAN_con_lsi_042.txt.gz
Lid_Strength_Index
8 7 7 7 6 5 5 6 6 6 5 5 5 5 4 4 5 6 6 5 7 9 7 5 5 7 7 7 10 8 9 8 9 12 13 13 13 12 13 12 13 14 15 16 15 17 18 9 8 13 10 10 10 9
8 7 7 7 7 5 5 6 6 6 5 5 5 5 5 5 5 5 7 5 5 8 6 2 2 2 3 4 6 7 8 8 8 11 11 11 13 12 13 15 11 14 12 14 13 13 9 8 9 9 9 10 11 10
8 8 7 7 6 5 6 6 6 6 5 5 5 5 4 5 5 6 7 6 6 7 5 5 5 3 2 2 2 8 7 6 7 6 9 10 13 11 14 13 12 11 9 12 11 9 8 9 8 10 10 11 11 10
8 8 7 7 6 5 6 6 6 6 5 5 5 5 4 4 5 6 7 5 7 8 9 7 2 4 2 2 3 3 5 5 5 6 9 10 12 8 12 11 12 10 10 11 11 9 9 9 10 10 11 11 11 10
8 8 7 7 6 5 6 6 6 5 5 5 5 5 3 3 5 6 6 5 6 8 9 8 4 4 3 3 4 4 5 6 7 8 9 10 9 9 9 10 11 10 10 11 12 9 9 10 10 9 11 11 11 12
8 7 7 7 6 5 6 6 6 5 5 6 5 3 3 3 5 7 8 5 4 5 8 10 5 5 4 4 5 5 5 6 7 8 9 8 7 9 12 13 8 9 8 8 9 8 8 9 10 10 12 12 12 12
8 8 8 7 6 6 6 6 5 5 5 5 5 3 3 4 6 9 8 6 4 5 7 9 9 6 5 5 6 6 5 7 7 8 9 8 8 8 11 13 9 8 8 7 7 8 10 9 11 11 12 12 12 13
8 8 7 7 6 6 6 6 5 5 5 5 4 3 3 5 5 7 4 4 4 6 6 10 10 8 5 7 8 6 8 7 8 8 8 9 8 9 12 9 7 7 7 8 8 8 9 10 11 12 13 13 14 14
8 8 7 7 6 7 6 6 5 6 5 5 4 3 5 6 7 6 4 4 4 5 9 9 11 13 6 7 7 7 7 10 8 10 9 9 10 12 10 8 8 8 8 9 9 9 10 11 13 13 13 13 14 15
8 8 7 7 6 6 6 6 6 6 6 5 5 6 8 6 5 5 5 6 6 6 6 9 7 10 8 8 9 9 9 11 13 11 10 11 11 8 8 8 9 8 8 9 12 13 13 14 13 13 13 13 14 14
8 8 8 7 7 6 6 6 6 6 6 7 8 8 7 5 5 6 9 9 8 10 7 7 8 9 7 10 10 9 11 12 14 13 13 13 12 10 11 11 11 10 10 9 9 10 10 11 11 12 13 13 14 14
8 8 7 6 7 7 7 7 6 8 8 8 8 7 8 7 8 10 11 10 10 11 8 9 8 8 7 7 10 10 12 12 14 12 13 15 12 12 13 12 11 11 10 10 9 10 9 10 10 11 13 13 14 15
8 8 8 7 7 7 7 7 7 7 7 7 8 10 9 9 12 12 14 12 12 10 10 10 10 8 8 8 11 12 13 13 11 14 14 14 13 13 14 12 12 11 10 10 11 10 10 10 11 12 13 14 15 16
8 8 7 7 7 8 7 8 8 7 9 10 12 15 12 12 11 11 11 11 10 10 10 9 10 10 9 10 10 13 11 13 14 15 16 13 14 14 13 12 12 12 11 11 11 11 11 11 12 12 13 14 15 16
7 8 7 7 8 8 8 9 8 8 10 12 13 15 13 10 11 11 11 11 10 9 10 10 11 10 11 12 11 12 13 14 13 15 13 14 14 14 13 12 12 12 12 12 12 12 12 12 13 14 14 14 15 15
7 8 9 8 8 9 9 9 9 9 12 12 13 13 11 12 11 11 12 11 10 10 10 11 11 12 14 12 13 13 14 15 14 15 15 14 14 14 14 13 13 12 12 12 11 11 12 13 14 14 14 15 15 15
7 9 8 9 9 10 9 11 11 13 13 13 14 12 12 12 12 12 11 11 9 11 11 11 12 12 12 13 13 11 13 13 15 16 16 15 15 14 14 13 13 13 12 12 12 12 12 13 14 15 16 17 17 17
9 8 8 8 9 11 11 13 15 14 16 13 14 13 12 12 12 12 11 10 11 11 11 12 12 13 13 13 13 14 14 14 16 16 15 14 14 14 14 14 14 14 14 14 16 16 17 16 16 17 17 17 17 17
7 7 7 8 10 12 14 15 15 17 15 14 13 13 13 12 12 11 12 11 11 10 12 12 13 13 12 13 13 15 16 15 15 15 14 13 13 14 14 15 15 16 16 16 15 15 15 15 16 17 16 16 17 17
6 6 7 8 10 13 16 16 14 16 17 16 14 15 14 14 13 13 14 13 13 13 13 14 13 13 14 14 16 16 15 15 15 15 15 14 13 15 15 16 15 15 15 15 16 15 17 17 16 15 16 16 17 17
8 9 10 10 12 13 15 16 16 16 16 17 15 15 16 15 16 16 14 12 14 19 19 15 14 15 16 16 15 15 16 16 17 15 15 15 14 13 13 13 17 15 15 15 16 16 15 17 16 16 14 15 16 17
10 9 12 12 14 15 16 16 16 16 17 17 18 18 19 20 19 17 15 15 15 17 17 16 17 17 17 17 18 18 17 17 17 15 13 13 14 14 13 12 14 18 17 15 14 14 16 16 15 16 16 16 16 16
9 11 13 13 15 17 19 17 18 17 18 19 20 22 22 19 17 17 18 16 18 18 18 18 19 19 20 19 18 17 17 17 17 17 16 16 15 14 14 13 13 15 15 15 15 14 14 14 14 16 16 17 17 17
10 13 15 16 16 19 19 20 18 18 19 19 20 23 24 23 21 19 19 19 19 19 19 20 21 21 20 21 21 19 18 18 19 19 19 19 18 18 16 15 14 14 12 14 16 15 14 14 14 15 16 17 17 18
14 16 16 19 21 22 21 22 20 19 20 20 21 23 24 23 25 25 24 21 22 22 21 21 21 22 24 24 21 20 19 19 21 20 20 20 19 18 18 17 15 14 14 14 15 16 15 15 15 16 17 17 18 19
16 17 19 19 23 22 20 21 20 20 20 24 23 23 24 24 27 26 23 22 21 20 19 19 21 23 21 19 21 22 21 20 21 21 20 20 19 18 18 19 19 17 14 13 13 15 15 15 16 16 17 16 16 18
17 19 19 18 19 19 20 18 18 19 21 23 23 25 25 28 28 22 21 21 20 21 21 20 20 20 21 22 21 21 21 23 22 21 19 18 18 18 18 18 18 16 14 12 12 13 15 15 16 16 17 17 17 18
16 19 21 20 19 19 19 20 20 21 20 19 20 26 26 25 24 21 21 22 23 24 24 24 24 24 24 24 24 23 23 22 22 20 18 17 16 16 16 15 14 12 13 12 11 12 14 15 15 16 16 17 18 18
19 17 17 19 19 19 19 20 20 19 19 20 22 22 22 21 22 23 23 24 25 25 26 26 25 26 26 25 23 22 22 23 21 21 21 20 19 19 17 15 14 12 11 11 9 12 13 14 15 15 16 17 18 18
18 16 17 19 19 20 20 21 21 23 22 22 22 22 22 23 23 24 24 26 26 26 26 26 27 28 28 28 26 24 22 20 19 19 19 19 19 19 19 17 14 12 11 11 12 13 11 13 13 16 18 18 19 19
16 16 18 18 19 22 24 24 24 22 24 26 27 27 25 25 23 24 25 26 26 28 28 29 28 28 26 25 26 22 20 21 20 19 17 16 16 17 16 15 13 12 11 11 13 14 14 16 18 19 19 19 19 19
17 19 20 22 23 26 27 27 27 26 27 28 28 29 27 26 26 23 26 28 28 28 24 25 27 25 24 24 22 19 15 16 16 16 16 16 16 16 16 14 13 11 11 12 13 15 17 18 19 19 19 20 21 21
23 22 22 23 27 28 27 27 26 27 28 27 27 27 28 27 25 24 26 27 26 26 25 25 26 25 23 22 19 17 14 15 14 10 10 10 10 12 12 12 11 12 14 15 16 17 18 19 19 19 20 20 20 21

GFSWCAN_con_lsi_045.txt.gz
Lid_Strength_Index
6 8 8 8 8 7 7 6 6 6 6 6 6 5 5 5 4 6 7 4 7 9 7 5 5 7 7 7 10 9 9 8 9 12 13 13 14 13 14 13 13 14 15 16 15 17 18 10 10 13 11 10 11 10
7 7 7 8 8 7 6 6 6 6 6 6 6 6 5 5 5 5 8 5 5 9 7 4 3 2 4 5 6 8 9 9 8 11 11 12 13 13 13 16 10 14 13 14 14 14 11 10 10 10 10 11 11 11
7 7 7 7 8 7 7 6 6 5 5 6 6 6 6 5 4 6 8 6 6 8 6 5 6 3 2 2 3 8 8 7 8 7 9 10 13 11 15 13 12 10 9 11 12 10 9 10 11 11 11 12 11 10
7 8 7 7 8 7 7 6 6 6 5 6 6 6 5 4 4 5 9 6 7 9 9 7 2 4 3 3 4 4 6 5 5 6 8 10 11 9 12 11 12 11 10 11 11 10 10 10 11 11 11 11 11 10
7 7 7 7 8 7 6 6 6 6 6 5 5 6 4 3 3 6 8 6 6 9 9 8 5 5 4 4 4 4 5 6 7 8 9 10 9 10 11 11 12 10 11 12 12 9 10 10 10 10 12 12 11 12
8 7 7 7 8 7 6 6 6 6 6 5 6 5 3 3 3 7 9 5 5 5 8 10 5 7 5 4 5 5 5 6 6 8 9 8 7 8 12 13 9 9 9 9 10 9 9 10 10 11 12 12 12 12
8 7 7 7 8 7 6 6 6 6 5 6 6 5 3 2 6 9 9 6 5 5 8 9 9 6 5 5 6 6 5 7 7 8 9 9 8 8 10 13 9 9 9 9 9 9 10 10 11 12 12 12 12 13
8 7 7 8 8 6 6 6 6 5 6 6 5 4 3 4 5 8 5 4 4 7 6 10 10 9 5 7 8 6 7 7 8 9 8 9 9 9 12 9 8 7 8 8 9 9 9 11 12 13 13 14 14 15
7 7 7 8 7 6 6 6 5 6 6 5 4 3 5 6 8 6 4 4 4 6 9 9 11 12 6 7 7 7 7 10 8 10 9 9 10 12 10 9 8 8 9 10 10 10 11 13 14 14 14 14 15 15
8 8 8 8 7 6 6 6 6 6 6 5 5 7 9 7 5 5 6 6 7 6 7 9 8 10 8 8 10 9 8 10 13 11 10 11 11 8 10 10 10 10 10 10 11 13 14 15 14 14 14 14 14 15
8 8 8 8 7 7 7 6 6 6 6 9 9 9 7 5 6 7 8 9 8 10 7 7 9 9 7 10 10 9 12 12 13 13 12 14 12 12 12 12 11 11 11 11 10 10 10 12 12 13 13 14 14 15
7 8 8 7 7 7 7 7 7 10 9 9 9 7 8 8 8 10 11 10 10 11 8 9 9 8 8 7 10 10 12 13 15 11 13 15 13 13 13 13 12 11 11 11 10 10 10 10 11 11 13 14 15 16
8 7 8 7 7 7 7 7 8 7 7 7 8 11 10 10 12 12 13 12 12 10 10 10 10 9 8 8 11 12 13 13 11 14 14 14 14 14 14 13 12 11 11 11 11 10 9 10 10 12 14 14 16 16
8 8 8 8 7 7 7 8 8 8 9 11 12 15 12 13 12 11 12 12 11 11 10 9 10 10 9 11 11 13 11 12 14 15 16 14 14 14 14 13 13 13 13 12 12 11 11 11 12 13 14 15 15 16
8 7 8 8 8 8 8 9 9 10 10 13 13 16 13 12 11 12 11 11 11 10 10 10 11 11 12 12 13 12 13 14 13 14 14 16 15 15 14 14 14 13 13 13 12 12 12 12 13 15 15 15 15 16
7 8 8 8 8 9 9 9 10 11 14 13 15 14 12 12 12 12 12 11 11 10 10 10 11 12 12 12 13 13 14 15 13 15 18 17 15 15 14 14 14 13 13 13 12 12 12 13 14 15 15 15 15 16
7 9 7 8 8 9 9 12 13 16 18 15 15 12 13 13 14 12 11 11 10 11 11 11 12 13 12 13 14 12 13 14 14 18 18 16 16 16 15 14 14 14 13 13 13 13 13 14 15 16 17 17 17 17
9 8 7 8 9 10 12 13 16 16 17 15 16 14 12 12 13 12 11 11 11 11 11 11 12 13 13 13 14 13 14 14 17 17 16 15 15 14 14 15 14 15 14 15 16 16 17 17 17 17 18 18 18 17
7 7 7 7 10 12 15 16 15 17 18 16 15 14 13 13 12 12 12 12 11 11 12 12 14 13 13 13 13 14 19 18 16 16 15 14 15 15 15 15 14 15 15 16 15 15 15 16 16 17 17 17 17 17
5 6 6 8 9 14 17 18 14 18 18 17 15 16 15 15 14 13 13 13 13 14 15 15 14 15 15 16 17 17 17 16 16 17 16 15 15 16 15 13 13 14 15 15 16 14 18 16 16 16 16 16 17 17
7 8 8 10 12 13 16 17 18 18 17 18 17 16 17 16 16 16 16 15 14 19 21 17 16 16 17 17 16 16 16 17 17 17 17 19 16 14 13 13 13 13 14 16 16 16 14 16 16 16 17 15 16 16
9 8 11 11 14 16 17 16 18 17 19 19 18 18 19 20 19 17 18 15 15 19 18 17 19 18 18 18 19 18 18 17 17 17 15 15 17 18 17 15 14 14 13 14 16 16 14 14 15 15 15 16 16 16
8 9 12 13 15 18 20 18 21 21 21 21 20 20 21 20 19 17 19 17 18 19 19 19 21 21 20 20 18 18 18 19 19 18 17 18 18 17 18 18 17 16 15 13 15 14 13 13 13 14 15 15 16 16
7 11 13 15 17 19 20 24 19 21 21 20 21 21 22 21 20 19 20 20 19 21 20 22 22 22 22 24 23 21 19 19 20 21 21 21 20 18 18 17 17 17 16 15 14 14 13 13 13 14 15 16 16 16
12 14 16 21 22 23 25 24 24 20 21 19 20 21 23 22 25 26 22 21 25 24 23 23 23 24 25 28 22 21 20 20 21 21 22 20 20 19 20 19 18 17 16 16 14 15 15 14 14 14 15 16 16 17
15 16 18 19 23 22 23 22 22 21 20 20 20 23 22 22 25 24 21 23 24 23 22 20 21 25 23 21 23 23 22 21 22 22 21 21 21 21 23 21 20 19 18 17 15 15 16 15 15 15 15 15 14 17
16 19 17 15 18 19 20 19 19 20 21 21 23 22 22 26 24 21 21 21 21 21 21 20 20 20 20 23 22 22 23 25 23 22 22 21 20 20 20 21 21 19 18 19 17 15 15 15 15 15 15 15 15 16
15 17 20 21 20 19 21 21 21 22 21 19 19 21 22 23 20 20 20 23 25 27 28 27 26 25 25 26 26 25 25 27 27 25 22 21 20 20 20 18 17 15 15 15 15 15 14 13 14 14 14 15 15 16
18 18 18 22 20 20 19 20 20 19 17 18 20 21 21 19 21 23 22 24 29 26 26 26 26 30 29 28 28 27 27 27 26 24 24 23 21 22 22 20 18 16 15 14 12 11 12 12 12 13 13 14 16 17
20 17 19 20 20 20 19 20 20 21 20 21 20 21 20 21 22 25 25 28 26 24 27 29 30 29 28 29 29 27 27 24 23 22 22 22 21 22 23 21 18 17 17 15 14 12 10 9 10 11 13 16 17 18
16 16 18 18 20 22 23 22 22 21 22 24 25 23 22 23 23 24 26 28 29 31 29 29 31 33 30 29 30 29 24 24 25 23 20 19 18 17 17 17 18 17 17 15 14 12 11 11 12 14 16 17 18 18
18 18 18 21 22 24 23 24 24 24 24 26 25 28 27 26 25 23 28 29 30 29 24 26 29 26 26 26 27 24 18 19 19 18 18 17 17 16 16 17 18 17 16 14 12 11 12 14 14 16 17 17 18 19
22 23 22 22 24 26 25 24 25 26 27 29 29 29 30 27 24 23 26 29 27 26 26 26 26 27 27 27 24 22 18 19 19 14 12 12 11 10 15 16 15 14 14 12 13 13 14 14 15 16 17 18 19 19

GFSWCAN_con_lsi_048.txt.gz
Lid_Strength_Index
5 6 6 6 7 7 7 6 6 7 6 6 6 6 6 5 5 7 7 4 7 9 8 6 5 8 7 7 10 8 9 8 9 12 13 13 14 13 13 12 13 14 15 15 15 17 19 11 10 14 11 11 11 11
5 5 6 6 7 7 7 6 6 7 6 6 6 6 6 5 6 6 8 5 5 9 8 6 5 4 4 4 6 7 8 9 8 11 11 12 14 13 13 16 11 15 13 14 14 14 11 11 10 10 11 11 11 11
4 5 6 6 7 7 7 7 6 8 6 6 6 6 5 5 5 5 7 6 6 8 7 6 6 2 2 2 2 8 7 6 8 7 10 11 13 12 15 14 12 10 9 12 12 10 10 10 10 11 11 12 11 10
5 5 6 6 7 7 7 7 6 7 6 6 6 5 5 6 5 4 7 5 7 9 10 7 2 4 3 3 4 4 5 5 6 6 8 10 11 8 12 11 12 10 10 11 12 10 10 10 10 11 11 12 11 10
5 5 6 6 7 7 7 7 7 7 6 5 5 5 6 4 3 3 6 6 6 9 10 8 5 5 4 4 5 4 5 6 6 8 9 10 8 10 11 11 13 10 10 12 12 9 10 10 10 10 12 12 11 11
5 6 6 7 7 7 7 7 7 6 6 6 6 6 5 3 2 6 9 6 6 6 9 10 5 7 5 4 4 4 5 6 6 8 8 8 7 8 11 12 10 9 9 9 10 9 9 10 11 11 12 12 12 12
6 6 7 7 7 7 7 6 7 6 6 6 6 5 3 3 6 9 9 6 4 5 8 9 9 5 5 5 5 6 5 6 7 8 9 8 8 8 10 12 9 8 7 8 9 10 11 11 11 11 12 12 12 13
5 7 7 7 7 7 7 6 6 6 6 6 6 4 3 4 6 8 6 5 5 7 7 10 10 9 5 7 8 6 7 7 7 8 8 9 9 9 12 9 9 8 8 9 10 10 11 12 12 13 13 14 15 15
6 7 7 8 7 7 6 6 6 6 6 6 5 4 7 6 8 7 4 4 4 6 9 9 11 12 6 7 6 7 7 10 8 10 9 9 10 12 13 13 12 10 10 10 10 12 12 13 13 14 14 15 16 16
6 7 8 8 7 7 6 6 6 6 6 4 6 7 9 7 5 5 6 7 7 7 7 9 9 11 8 8 9 9 8 10 13 10 9 11 11 11 12 12 13 11 11 11 11 12 14 15 14 14 14 14 15 15
6 7 8 7 7 7 7 6 6 6 6 9 9 9 7 5 6 7 9 9 8 10 7 7 8 10 8 11 10 9 11 12 13 12 12 13 13 13 13 13 13 11 11 11 11 11 10 10 12 13 13 13 13 14
6 7 7 8 7 7 7 7 7 10 10 9 9 8 8 8 9 10 10 10 10 11 8 9 9 8 8 7 9 10 12 12 15 11 13 14 12 14 14 13 13 12 12 11 11 11 10 10 11 11 12 13 14 15
7 7 7 8 7 7 7 7 8 7 6 7 9 11 10 10 12 12 13 12 11 10 10 10 10 9 8 8 10 11 12 13 11 14 14 13 13 14 14 14 14 13 12 11 11 10 9 10 11 12 13 13 15 16
6 7 7 8 7 7 7 8 8 8 8 11 14 13 12 13 12 12 15 12 10 11 10 9 10 9 8 10 10 12 11 12 14 15 15 15 15 14 14 14 14 14 13 13 12 11 11 10 11 11 13 14 15 16
6 7 7 7 7 8 8 9 9 10 11 14 12 16 13 12 12 12 12 11 10 9 9 10 11 10 11 12 11 13 13 14 13 14 14 17 15 15 15 14 15 14 14 13 13 12 12 12 12 14 14 14 15 16
6 7 8 7 8 8 9 9 11 12 15 15 15 15 12 12 12 12 12 11 10 10 10 10 11 12 12 12 13 14 14 15 15 14 17 17 15 15 15 15 15 14 14 14 13 13 12 13 14 14 15 15 15 16
6 9 6 7 7 9 9 12 13 17 20 19 18 13 14 15 12 12 11 11 10 11 11 11 12 12 12 13 14 12 13 13 13 16 18 17 16 15 15 15 14 14 14 14 14 14 15 14 15 16 17 17 17 17
8 7 6 7 8 10 12 13 16 17 19 18 19 18 13 12 12 12 11 11 11 11 11 11 12 13 13 13 16 16 13 13 13 14 14 16 16 15 15 15 14 14 15 15 15 16 16 17 16 16 17 18 18 18
6 6 6 6 9 12 15 15 15 19 18 16 16 16 14 13 12 12 12 12 11 11 12 12 14 13 14 16 13 14 14 13 14 14 14 13 14 15 15 16 13 13 15 16 16 15 15 15 16 16 17 17 17 18
4 5 5 6 9 13 16 17 15 18 20 17 16 16 15 15 14 14 13 13 13 15 15 15 14 13 15 15 17 15 16 16 16 17 17 16 16 18 17 16 14 14 14 14 16 13 17 16 16 16 16 17 17 17
5 7 7 10 12 14 17 18 19 19 19 19 18 17 19 16 17 17 17 14 15 17 20 17 16 16 18 17 16 16 16 17 18 18 18 20 18 18 18 18 19 15 13 13 14 14 14 15 15 15 16 16 16 15
6 6 9 10 15 17 19 17 18 17 19 19 19 18 21 21 20 18 18 17 17 17 17 17 18 18 19 18 19 19 18 18 18 18 16 16 19 20 19 19 19 21 20 16 14 14 15 14 13 14 15 15 14 16
6 7 10 13 18 20 21 17 20 20 21 22 20 22 22 21 20 17 20 20 17 17 18 18 20 21 20 21 19 19 19 20 20 19 19 19 19 19 19 20 19 22 19 18 18 16 16 13 12 12 14 14 16 16
6 10 14 16 19 20 19 22 18 19 21 20 21 22 23 24 20 20 24 19 17 22 21 20 21 21 21 23 23 22 20 20 21 22 22 23 22 20 19 18 18 18 18 17 17 16 14 14 13 13 14 15 15 15
11 15 16 21 20 22 24 24 23 21 24 21 21 21 23 23 25 25 24 19 22 24 22 22 22 23 23 26 24 23 22 20 21 22 23 21 22 21 21 20 19 18 18 21 18 18 16 14 15 15 15 15 15 15
13 15 15 19 23 21 21 23 22 23 20 21 21 22 24 24 27 25 21 18 21 22 21 20 20 23 23 22 23 25 22 21 22 23 23 21 22 23 26 23 21 20 19 18 21 20 18 16 16 16 16 15 13 15
14 18 16 14 17 18 20 19 18 19 22 22 24 25 24 25 25 20 19 19 19 20 20 18 19 19 20 23 23 23 24 25 23 23 23 24 23 21 21 21 21 20 19 21 21 20 19 18 17 16 16 16 14 15
14 16 18 18 20 20 22 21 21 21 20 19 20 24 24 23 21 19 20 21 22 23 24 25 24 23 24 25 26 25 27 29 29 28 25 23 22 21 21 20 19 17 17 18 18 18 18 18 18 16 15 15 15 14
18 17 17 23 23 23 21 19 19 18 17 18 21 21 21 20 20 22 22 23 25 23 23 23 24 30 29 30 29 29 29 28 27 27 25 22 24 24 24 23 22 22 19 18 15 14 14 14 15 15 14 13 13 13
20 17 20 23 21 21 19 19 20 21 20 20 21 22 22 21 21 25 25 26 24 22 22 25 28 26 26 27 28 28 29 27 25 24 25 22 23 25 26 24 21 20 19 20 19 18 14 14 12 11 11 13 14 15
16 20 21 21 21 22 23 21 22 21 25 27 27 25 22 23 21 21 22 24 25 26 26 28 30 33 29 31 31 31 26 27 28 26 24 22 21 20 20 19 18 17 18 18 19 19 18 15 13 12 14 15 15 15
19 20 19 21 22 22 22 24 24 25 27 28 27 28 25 25 22 20 26 26 26 27 23 25 28 26 27 27 28 27 19 22 22 21 21 20 19 19 18 17 15 16 17 18 18 18 16 15 14 14 14 14 14 15
22 21 22 24 26 26 24 22 25 27 27 27 26 26 26 24 22 21 27 29 27 26 26 26 27 28 28 27 26 26 20 23 21 16 15 14 13 11 11 12 15 16 16 17 16 15 14 14 14 14 14 14 15 15

GFSWCAN_con_lsi_051.txt.gz
Lid_Strength_Index
3 4 4 4 5 5 5 6 6 6 7 6 7 7 6 6 6 9 9 5 7 9 9 7 6 8 8 7 11 8 9 8 9 12 13 13 14 12 13 12 13 14 15 15 15 17 19 12 11 14 11 11 10 11
3 4 4 4 4 5 5 5 6 6 7 7 7 6 6 6 6 7 11 5 5 8 8 6 6 5 6 5 6 7 8 8 8 11 11 11 13 13 14 16 11 14 13 14 15 15 12 11 10 9 10 11 11 11
3 4 4 4 5 5 5 5 6 6 6 7 7 6 6 5 6 7 8 7 6 8 7 7 6 3 4 3 2 8 7 6 7 7 9 12 13 12 15 14 13 10 10 12 12 11 10 10 10 10 10 11 11 11
3 4 4 4 5 5 5 6 6 6 6 7 7 6 6 5 5 6 8 6 6 9 10 7 3 4 2 3 4 4 5 5 5 6 8 10 12 9 12 12 12 10 9 10 12 10 10 10 10 10 11 11 11 10
4 4 4 4 5 6 6 6 7 6 7 7 6 6 6 5 5 4 5 5 5 10 11 8 5 4 3 4 5 5 5 5 6 8 9 10 8 9 11 10 13 11 11 12 12 10 10 10 10 10 11 12 11 11
3 4 4 5 5 6 6 6 7 6 7 6 6 6 5 5 4 6 9 6 5 7 10 10 6 6 6 5 4 5 5 5 6 8 8 7 6 8 12 13 9 9 9 9 10 10 9 10 11 11 11 12 12 11
3 4 5 5 5 6 6 7 6 7 7 6 6 5 5 3 7 10 9 6 5 6 10 10 9 6 4 5 5 5 4 5 6 7 8 8 8 8 10 13 10 9 9 8 9 10 11 11 10 11 12 12 11 13
3 4 5 5 5 6 7 7 6 7 6 6 6 5 4 3 6 9 6 5 4 8 7 10 10 8 5 7 8 5 7 7 7 8 8 9 8 8 12 11 11 10 10 9 10 11 12 12 13 13 13 14 14 14
4 4 5 5 6 7 7 7 7 7 6 6 5 4 7 7 9 7 4 4 5 7 9 9 12 12 5 7 7 6 6 10 7 10 9 9 10 12 12 13 12 12 12 11 10 10 12 13 13 14 14 15 15 16
4 5 5 5 6 7 7 6 7 6 6 5 6 8 9 7 5 5 6 8 8 7 8 9 9 11 8 8 9 9 8 10 13 10 9 10 11 11 12 12 12 13 12 12 12 13 12 15 14 14 14 14 14 15
4 5 5 5 6 6 6 7 7 6 7 9 9 9 7 5 6 7 9 9 9 10 8 9 9 10 8 11 10 9 11 12 13 12 12 13 13 12 13 14 14 13 12 12 12 11 11 11 10 11 13 13 13 14
4 5 5 6 7 7 6 7 7 10 11 10 9 8 8 8 9 11 11 10 10 12 9 9 9 8 8 7 10 10 12 12 14 11 13 15 12 14 14 14 13 13 12 12 11 11 11 11 10 10 12 12 13 14
4 5 5 7 7 7 6 7 7 7 6 7 9 11 10 10 12 12 13 12 11 10 10 10 10 9 8 8 10 11 12 13 10 13 15 13 14 14 15 14 14 13 12 12 11 11 10 10 11 11 13 13 14 15
4 5 5 6 7 6 6 7 8 7 8 10 12 13 12 13 12 12 15 12 10 10 10 9 10 9 8 10 10 12 11 12 14 15 15 15 16 15 14 14 14 14 14 13 13 12 11 10 10 11 12 14 15 16
4 5 6 6 6 7 7 8 8 9 11 13 12 16 13 12 12 12 11 11 11 9 9 10 10 10 11 12 11 12 13 14 14 14 14 16 15 15 15 15 15 15 14 14 14 14 13 12 12 13 13 13 14 15
5 5 7 6 7 7 8 9 10 11 15 15 15 17 12 12 13 12 12 11 10 10 10 10 11 12 13 12 13 14 14 15 16 14 13 17 15 15 15 15 15 15 15 14 14 14 14 14 14 14 14 14 15 16
5 8 6 6 7 7 8 11 12 16 18 20 19 15 13 19 17 13 11 11 10 10 11 11 12 14 12 13 13 12 12 13 17 14 15 16 16 16 16 15 14 14 14 15 15 15 15 15 15 15 16 16 16 16
7 6 6 6 7 9 11 12 15 17 19 18 18 18 14 13 12 11 11 11 10 11 11 11 12 13 13 14 14 14 13 13 13 13 14 15 16 16 15 15 15 14 13 14 15 15 16 16 16 16 17 18 18 18
6 5 5 5 8 11 14 14 15 18 17 16 16 16 15 14 12 12 12 11 11 10 12 12 14 13 15 15 16 20 19 17 13 13 13 14 15 15 15 16 15 16 16 16 15 14 15 15 15 16 16 16 17 17
4 4 5 5 8 13 15 15 14 17 18 16 15 16 16 16 15 14 13 13 13 14 15 15 14 14 15 15 17 17 17 15 16 16 17 17 17 20 18 18 17 17 16 16 16 12 13 14 15 15 15 16 17 17
5 6 6 9 11 13 15 16 17 17 16 17 17 16 17 17 17 17 17 14 15 16 18 16 16 15 18 18 15 15 16 17 17 17 18 21 18 19 20 20 22 17 18 18 17 16 14 14 15 14 13 14 15 16
6 4 8 9 14 16 16 15 17 16 18 18 18 18 19 20 21 20 17 17 17 17 17 18 19 17 18 17 19 19 18 17 18 18 16 17 20 21 21 20 21 24 23 23 20 18 17 16 15 14 13 13 13 14
5 7 11 14 16 17 19 16 19 19 21 21 20 22 22 22 21 17 19 19 18 16 18 19 21 21 18 20 18 18 18 19 20 20 19 19 20 20 21 21 21 25 23 21 20 19 19 16 14 14 14 13 14 15
6 11 14 17 18 19 17 21 17 20 21 21 23 24 24 24 21 21 23 21 17 19 20 21 22 22 22 23 22 20 20 20 21 23 23 23 24 21 20 20 19 20 19 19 20 20 19 17 15 15 15 14 15 15
10 15 15 21 19 21 23 22 23 22 24 23 23 24 25 24 26 27 24 19 19 21 21 21 22 22 21 23 23 22 23 21 21 21 23 22 24 24 24 22 20 19 19 23 20 20 20 20 16 16 15 15 15 16
15 16 14 18 23 20 20 24 24 24 24 25 24 25 26 26 28 25 22 21 24 23 22 21 19 22 24 23 23 24 21 21 22 23 23 22 22 24 27 25 22 21 19 19 22 22 21 21 21 21 18 17 14 14
16 17 14 13 16 18 19 18 18 21 25 24 24 24 26 27 26 21 21 21 21 22 22 19 18 18 18 20 22 23 25 23 22 23 23 24 23 22 22 23 22 20 20 22 22 21 21 20 20 20 20 18 17 16
12 15 17 17 19 20 21 21 22 22 21 18 19 23 23 24 21 20 20 22 24 25 26 24 24 22 21 23 24 23 25 27 27 26 25 24 23 24 23 21 20 17 18 20 20 19 20 19 19 19 19 19 18 17
15 17 16 23 23 22 20 19 19 17 15 18 20 21 21 20 20 22 21 23 26 24 24 24 24 28 28 29 29 27 26 25 24 25 24 21 26 24 25 24 24 23 23 21 17 15 16 17 17 17 17 17 16 15
18 17 20 23 21 20 19 18 21 21 19 20 20 22 22 21 20 24 26 27 24 22 22 24 26 23 24 24 24 27 29 26 24 22 23 22 24 26 28 25 22 21 22 21 20 20 16 18 18 18 17 15 14 15
16 20 22 21 20 23 25 23 22 19 24 27 28 25 23 24 22 22 22 23 24 27 27 28 30 31 25 27 27 28 25 27 27 26 26 25 25 23 22 21 20 20 20 19 19 19 19 20 22 20 18 15 15 14
19 21 20 23 24 26 23 24 25 26 28 28 28 30 28 26 24 20 25 27 26 24 21 21 23 22 25 26 28 28 19 26 26 25 25 23 22 21 20 19 19 19 18 17 17 18 18 20 19 18 17 16 15 15
18 22 24 24 25 25 23 22 24 26 28 29 28 29 29 26 23 20 25 28 25 23 23 24 26 28 28 28 27 27 21 27 25 17 15 15 14 14 14 15 14 14 15 16 17 17 18 18 18 16 16 15 14 15

GFSWCAN_con_lsi_054.txt.gz
Lid_Strength_Index
3 3 3 3 4 4 4 4 4 4 4 5 6 6 7 7 7 9 11 6 8 9 8 7 7 7 9 9 11 9 10 9 9 12 12 13 14 12 14 12 13 14 15 15 15 17 18 12 11 13 10 10 11 11
3 3 4 3 4 4 4 4 4 5 5 5 6 7 6 7 7 8 12 8 7 10 8 6 7 6 6 7 7 7 9 8 8 11 11 11 13 12 14 16 11 14 13 15 14 15 11 11 11 9 10 10 12 11
3 3 3 3 3 4 4 4 4 5 5 4 6 7 6 6 7 7 10 10 10 10 9 8 8 5 5 6 4 8 7 6 7 6 8 10 13 12 15 15 14 11 10 12 12 10 10 10 9 10 10 10 11 10
2 3 3 3 3 4 4 4 4 5 5 5 6 7 6 7 6 6 9 8 10 9 10 8 3 4 3 3 4 5 5 5 5 6 8 10 12 10 13 12 11 11 10 12 12 10 10 10 10 10 10 11 11 11
2 3 3 3 3 4 4 4 5 5 5 6 7 7 7 6 5 6 7 6 6 8 10 9 6 4 3 3 4 5 5 5 6 8 9 10 8 9 12 12 13 11 10 11 12 10 11 11 10 10 10 11 11 11
2 2 3 3 3 4 5 5 5 6 6 7 7 7 6 5 5 9 11 8 5 7 11 12 5 6 5 4 4 5 4 5 6 8 8 8 6 8 11 12 10 9 10 9 10 10 10 10 10 11 11 11 11 11
2 2 3 3 3 4 5 5 5 6 6 7 7 6 5 5 9 11 10 6 5 7 11 12 9 5 4 4 4 5 4 5 6 7 8 8 8 8 10 13 11 11 9 9 9 10 11 12 11 11 11 12 11 12
2 2 3 3 4 4 5 5 5 6 7 7 6 5 5 4 5 9 5 4 6 9 9 11 10 8 5 7 8 5 7 6 6 7 8 9 8 8 12 10 12 12 11 10 10 10 11 12 13 13 13 14 14 14
2 2 3 3 4 4 5 5 5 6 7 6 5 5 6 7 9 7 4 4 5 8 10 9 12 13 6 7 6 6 6 10 7 9 9 9 10 12 11 12 13 12 13 12 11 11 10 11 13 13 14 15 14 15
3 3 3 4 4 5 5 5 5 6 7 6 6 8 9 7 4 4 6 9 9 8 8 10 8 11 7 8 9 9 8 10 13 10 9 11 11 11 11 12 12 13 12 13 13 13 12 13 12 13 14 14 14 14
3 3 4 4 5 5 5 5 6 7 8 9 9 9 7 5 7 8 10 10 9 11 8 9 9 11 9 10 10 9 11 11 13 12 12 13 12 11 12 14 14 14 13 12 12 12 12 12 12 11 11 13 13 13
3 4 4 4 5 5 5 5 6 10 11 9 9 7 8 8 9 11 11 11 11 12 9 9 9 9 8 8 11 11 12 12 14 11 13 15 12 14 15 15 14 14 12 12 11 11 11 11 11 11 11 11 12 13
3 4 4 5 6 5 5 5 7 8 8 7 9 11 10 10 13 14 14 12 12 10 10 10 10 8 8 8 10 11 12 13 10 12 15 14 14 15 15 15 15 13 12 13 12 11 11 11 10 12 12 13 13 14
4 4 4 5 5 6 5 6 7 8 9 10 12 13 13 13 13 12 15 16 11 10 10 9 10 9 8 10 10 12 11 12 14 15 14 13 15 15 15 14 15 14 14 13 13 13 13 12 11 11 12 13 14 15
4 4 4 5 5 5 6 7 7 9 11 12 13 17 14 12 12 12 11 11 10 9 9 9 10 9 11 11 11 12 13 14 13 15 15 14 16 15 15 15 15 15 14 14 14 14 14 14 13 12 13 13 14 15
3 4 5 4 5 6 7 8 9 11 15 13 14 16 13 12 13 12 12 11 10 9 9 10 11 14 12 13 13 13 14 15 16 15 14 14 16 15 15 15 15 15 15 15 15 15 14 15 15 15 14 13 13 14
4 7 4 5 6 7 7 10 11 15 18 20 19 15 13 14 13 12 11 11 10 10 11 11 13 13 12 13 13 12 13 15 17 13 13 14 16 15 16 15 14 14 14 14 15 15 15 15 15 15 16 16 16 15
7 5 4 5 7 8 10 11 14 16 18 19 17 18 13 12 12 11 11 11 10 11 12 12 11 13 13 14 16 15 17 18 15 13 13 14 15 16 15 16 15 15 15 15 16 16 15 15 16 16 17 17 17 17
5 5 5 5 8 10 13 13 13 17 17 15 15 16 15 14 13 13 12 11 10 10 12 12 13 13 15 15 17 20 21 17 15 14 13 13 14 15 16 17 16 17 17 18 17 16 15 14 15 15 15 16 16 17
3 4 4 5 8 12 14 14 12 15 17 15 15 16 16 15 15 14 12 12 12 13 14 15 14 13 15 15 16 16 17 15 15 16 17 17 17 21 19 19 17 19 18 18 19 15 18 16 15 15 15 14 15 15
6 5 6 8 11 11 13 15 15 15 15 16 16 15 17 17 18 19 16 13 14 15 18 16 16 15 17 18 15 15 15 16 16 16 17 21 18 20 21 21 23 18 19 20 20 19 18 18 17 16 18 14 14 14
6 4 8 9 14 15 15 14 15 14 16 17 17 17 18 19 19 19 18 19 18 16 16 18 19 18 18 17 18 19 17 17 18 17 16 16 20 21 21 21 22 25 25 24 22 21 20 19 18 16 14 14 13 14
5 8 12 14 15 17 19 16 18 18 19 19 19 19 20 20 20 18 20 18 17 15 18 19 22 22 19 20 18 18 18 18 18 19 19 19 20 21 22 22 22 26 25 22 21 21 23 18 17 17 16 15 14 15
6 13 16 18 18 19 17 21 17 19 20 20 22 22 22 22 20 20 22 21 18 19 20 20 22 23 23 22 22 21 20 20 21 23 22 21 22 22 21 21 20 21 20 20 22 22 21 20 17 19 17 16 15 15
13 16 15 21 19 21 22 22 24 20 22 23 23 23 23 23 26 26 23 20 21 23 22 22 22 22 22 23 22 22 22 21 22 21 22 22 23 24 24 22 21 20 20 24 21 21 22 23 22 21 21 20 20 19
15 17 14 15 21 20 21 24 23 22 22 23 23 24 25 25 27 24 22 22 24 25 26 22 21 23 22 22 22 23 21 21 22 23 24 22 22 23 25 24 22 22 22 21 24 23 22 22 22 23 22 21 17 18
18 18 14 13 16 17 19 18 18 21 24 22 22 24 25 25 25 21 20 22 22 23 25 23 20 19 19 21 22 23 25 21 22 22 23 24 23 22 23 23 22 21 22 23 23 22 22 21 21 22 22 22 22 21
13 16 17 18 20 21 21 21 22 22 21 18 19 24 23 22 19 19 19 21 23 26 27 26 25 23 22 22 23 22 26 28 26 25 23 23 23 24 24 22 22 18 19 22 22 21 21 21 21 20 20 20 20 20
15 17 16 24 23 23 20 19 19 18 15 17 19 21 20 19 20 20 21 24 27 25 23 23 24 26 28 29 28 28 26 23 22 23 22 20 26 24 28 26 26 26 25 23 18 16 18 18 18 18 18 19 18 18
17 17 20 24 19 19 18 18 21 22 19 18 18 20 20 20 20 23 25 27 24 21 20 22 24 22 22 23 25 26 28 27 23 21 21 20 22 27 29 28 26 23 22 23 23 22 17 18 19 21 21 21 20 19
17 21 22 21 20 22 24 23 23 19 24 26 27 23 22 23 21 22 21 21 22 27 26 27 29 29 25 25 26 27 24 26 25 24 25 27 27 27 26 24 22 22 22 21 21 21 21 21 22 21 21 22 22 17
20 18 19 22 22 26 26 26 26 26 28 27 25 30 26 25 23 20 25 27 27 26 21 22 24 23 24 26 26 25 19 25 27 26 27 26 25 23 22 21 20 20 20 20 19 19 20 20 20 20 19 21 21 18
23 24 25 24 24 25 25 25 26 26 27 28 26 27 28 24 22 20 24 28 26 25 25 25 26 26 25 25 25 27 22 29 26 18 15 15 14 15 14 15 16 17 17 17 18 17 18 19 19 19 19 19 17 17

GFSWCAN_con_lsi_057.txt.gz
Lid_Strength_Index
1 2 2 3 3 4 4 3 3 4 4 4 4 5 5 5 7 9 11 8 10 11 10 8 7 7 8 10 12 10 11 10 10 12 12 13 14 12 13 13 14 15 16 16 16 17 20 11 10 13 10 10 10 10
1 2 2 3 3 3 3 3 3 4 4 4 4 4 5 5 6 8 12 9 8 12 11 8 8 6 5 5 8 9 11 10 9 11 11 11 13 12 13 16 11 14 14 15 15 15 11 9 9 8 9 10 10 10
1 2 2 2 2 3 3 3 3 4 4 4 4 4 5 5 5 8 10 10 11 13 13 12 12 7 5 6 5 10 9 7 7 7 9 10 13 12 15 15 14 11 10 12 11 10 10 9 9 9 10 10 10 10
1 2 2 2 2 3 3 3 3 3 4 4 4 4 5 6 7 7 10 10 11 12 14 12 6 8 3 5 6 5 6 6 6 7 8 10 11 10 13 13 13 11 10 11 12 10 9 8 9 9 10 10 10 10
1 1 1 1 2 2 3 3 3 3 4 4 4 6 6 6 7 8 10 9 8 12 13 12 7 5 3 3 4 5 6 6 6 8 9 10 8 9 11 12 13 11 11 12 12 9 10 9 9 9 10 10 10 11
1 1 1 1 2 2 3 3 3 4 4 4 5 6 6 6 6 9 11 10 6 6 11 12 5 5 3 3 4 5 5 6 6 7 8 8 6 8 11 12 10 10 10 9 10 10 10 9 10 11 11 11 11 11
1 1 0 1 1 1 3 3 4 4 5 4 5 6 6 6 9 11 12 6 5 6 10 13 11 5 4 4 4 5 5 5 6 7 8 8 8 7 10 12 10 11 11 10 9 9 11 10 11 12 12 12 11 12
0 1 1 2 2 2 3 4 4 4 5 4 6 6 6 4 6 8 6 5 6 9 10 13 11 8 4 7 8 5 7 6 7 8 7 9 8 8 12 9 12 11 12 11 11 11 10 10 10 12 13 13 13 13
0 0 0 1 2 2 3 4 5 5 4 5 6 6 7 8 9 8 4 4 6 9 11 10 12 12 6 7 6 6 6 10 6 9 9 8 10 12 10 11 11 12 12 13 12 12 11 11 11 11 13 13 14 14
0 0 1 2 2 3 4 4 5 4 5 6 7 8 9 7 4 4 7 9 9 9 10 11 9 10 8 8 9 9 8 10 12 10 8 11 11 10 12 12 12 13 13 13 13 13 13 12 12 11 11 12 13 14
0 2 2 2 3 4 4 4 4 5 6 9 10 9 7 5 6 8 10 11 10 11 9 9 9 9 7 10 10 8 11 11 13 12 11 13 12 11 13 13 13 14 14 13 12 12 11 11 12 12 12 11 12 13
1 1 2 3 4 4 4 4 5 9 10 9 9 7 7 8 9 11 11 11 11 13 10 9 9 8 8 8 11 11 12 12 14 10 12 14 12 14 14 15 15 15 13 12 11 11 11 11 10 11 11 10 11 12
2 2 3 3 4 4 4 4 5 6 7 9 9 11 10 10 13 13 15 13 12 10 10 10 10 9 9 9 11 11 12 13 10 13 13 14 14 14 15 15 15 14 12 12 12 12 12 11 10 10 13 13 13 14
2 3 3 4 5 5 5 4 5 6 9 11 12 13 13 13 13 12 14 13 13 11 10 9 10 9 8 11 10 12 11 11 14 15 15 13 13 15 15 15 14 14 14 14 13 13 13 13 12 11 11 13 14 14
3 3 4 5 5 5 5 5 5 8 10 13 12 15 13 12 12 12 12 11 10 9 9 10 10 9 11 11 11 12 13 14 13 15 16 14 14 15 15 15 15 15 15 15 14 14 14 14 14 14 13 12 13 14
3 4 6 5 4 4 5 6 8 10 14 13 14 16 14 13 13 13 12 11 10 9 9 10 11 14 12 14 13 14 15 17 16 17 16 14 15 15 15 15 15 14 14 15 15 15 15 15 15 15 15 15 14 13
4 7 4 4 4 5 6 9 10 14 15 19 19 15 13 15 18 14 11 11 9 10 11 11 12 13 12 13 14 12 17 16 17 17 15 13 13 15 16 15 14 14 15 15 15 15 15 15 15 16 16 16 16 16
7 5 4 4 6 7 9 11 14 16 19 19 17 17 14 13 14 13 12 11 10 11 11 12 11 12 13 14 16 16 18 20 18 16 15 14 14 15 15 15 15 15 16 16 17 17 17 15 16 16 17 17 17 17
6 4 4 5 7 10 12 13 14 18 17 15 14 14 15 14 13 14 14 12 10 10 12 13 13 14 14 16 17 20 20 18 15 15 15 14 13 14 15 17 17 18 19 20 18 18 17 16 16 16 16 15 16 16
3 4 4 5 7 12 14 15 12 14 16 14 14 15 15 16 15 16 15 14 12 13 15 16 16 14 14 14 16 16 16 15 15 16 16 17 17 21 18 19 17 19 19 19 20 17 20 18 17 17 17 16 14 15
5 5 6 8 10 11 13 14 14 14 14 15 14 14 15 16 18 19 19 15 14 15 18 15 15 14 17 18 15 14 15 16 15 15 15 20 18 19 21 22 24 19 20 20 20 20 19 19 19 19 20 15 14 14
7 6 9 9 14 15 15 14 14 13 15 15 15 16 17 18 18 18 17 18 17 15 14 16 18 18 17 17 18 18 17 16 17 17 15 16 20 21 21 21 23 25 26 25 24 22 21 21 20 19 18 18 15 15
6 9 13 15 17 18 20 16 18 18 18 18 18 18 18 19 19 18 21 20 17 15 16 19 21 22 19 20 18 18 18 19 18 18 18 19 20 21 21 21 22 25 26 23 22 22 23 19 18 19 19 19 16 16
7 13 14 16 19 20 18 22 17 19 20 19 21 21 20 20 19 20 21 19 17 19 20 20 21 22 21 21 21 21 20 20 22 24 24 22 24 22 20 20 19 20 20 21 23 23 22 21 19 21 21 22 21 21
12 15 13 17 18 21 23 23 24 21 22 22 23 22 22 21 22 22 21 19 20 22 21 22 21 22 22 23 22 22 22 20 21 21 23 22 23 24 24 23 21 20 20 24 22 22 22 23 23 23 23 22 23 23
18 16 15 14 17 21 21 24 24 23 23 23 23 23 25 24 24 22 20 20 21 22 23 23 23 24 22 21 21 22 20 20 21 22 23 21 21 23 26 24 25 22 22 21 24 23 23 24 24 25 23 23 19 21
18 19 14 14 17 18 20 19 18 21 25 22 22 23 23 23 23 19 19 20 20 21 22 24 21 19 19 20 20 21 23 20 21 21 23 22 21 21 20 21 22 21 21 22 24 23 23 23 23 23 23 23 24 23
13 17 17 18 20 21 22 22 23 22 21 18 18 23 22 20 17 17 18 19 21 25 26 25 23 22 21 21 23 22 26 28 28 26 24 23 25 25 26 23 23 18 20 22 22 24 23 22 22 22 22 22 21 22
13 15 17 24 23 23 21 19 20 18 16 17 19 20 19 18 19 20 19 23 27 26 24 24 24 27 27 27 28 28 27 22 21 22 22 20 24 22 28 27 26 27 27 26 19 17 21 21 20 20 20 19 19 20
16 16 20 25 21 20 18 19 21 23 20 19 19 20 20 19 19 23 23 25 23 20 19 22 23 22 21 22 23 24 26 25 22 19 20 19 21 26 30 29 28 28 28 27 25 24 18 19 20 21 21 21 22 21
17 20 22 22 21 22 25 25 25 20 25 27 28 23 21 23 20 20 19 18 17 26 25 24 27 27 23 24 23 24 21 24 24 24 26 27 29 29 28 27 26 25 25 25 24 22 22 22 22 22 21 22 23 19
21 20 20 22 22 26 28 27 27 26 28 27 25 30 26 25 22 18 23 25 26 24 20 21 22 21 23 25 26 26 19 26 27 26 26 26 28 26 25 24 24 23 23 22 21 21 21 21 21 21 21 22 21 21
25 26 28 26 24 24 25 24 26 26 28 28 25 25 26 23 20 18 24 27 25 25 25 24 26 27 27 26 25 26 22 28 27 19 17 16 14 16 17 18 18 20 21 20 19 19 20 19 19 20 20 20 19 19

GFSWCAN_con_lsi_060.txt.gz
Lid_Strength_Index
1 1 1 1 2 2 2 3 3 3 3 3 3 3 4 4 5 6 7 6 9 11 11 9 8 8 7 7 9 7 8 8 8 11 11 12 12 11 12 11 12 13 14 15 14 16 17 9 8 12 9 7 8 8
-0 -1 -0 0 1 2 2 3 3 3 3 3 3 3 3 4 4 5 8 6 6 11 12 9 8 7 7 6 7 6 7 7 7 9 9 9 11 11 12 15 9 13 11 12 12 12 9 8 8 6 7 7 8 8
-1 -1 -0 0 1 1 2 2 2 2 3 3 3 3 3 4 4 5 7 8 9 12 12 12 12 10 8 8 5 7 6 5 6 4 7 8 11 9 13 12 11 9 8 10 10 8 8 7 7 7 7 8 7 8
-1 -1 -0 0 0 1 1 1 1 2 3 3 3 3 3 4 5 6 8 8 10 12 16 14 9 9 6 7 7 5 4 4 4 4 7 8 10 7 10 9 10 8 8 9 9 8 7 6 6 7 7 7 8 8
-1 -1 -1 -0 0 0 1 1 1 2 2 3 3 3 4 4 5 6 7 8 7 11 15 13 10 8 8 5 7 5 4 5 6 7 8 9 8 8 8 8 10 7 9 10 10 7 7 7 7 8 8 8 8 8
-1 -1 -1 -0 -0 0 0 1 1 2 2 3 4 4 4 4 6 8 11 7 6 6 11 14 7 6 4 3 5 5 4 5 5 7 8 7 6 7 10 11 7 7 7 7 7 7 7 6 7 8 9 9 9 9
-0 -1 -1 -0 0 0 1 1 1 2 3 4 4 4 5 5 7 10 9 6 5 5 10 12 10 6 3 4 4 5 4 5 5 6 8 7 7 7 9 12 7 6 7 8 7 7 7 7 7 8 9 10 10 9
0 -0 -1 -0 0 0 0 1 2 2 3 4 4 4 5 5 6 7 5 4 4 8 9 13 11 8 4 8 8 5 7 6 6 7 7 8 7 8 12 8 7 8 8 9 9 9 9 8 9 8 9 10 11 10
1 0 -0 0 0 0 0 1 2 3 4 4 4 5 6 7 8 7 4 4 5 8 12 11 11 12 5 6 6 6 6 10 6 9 9 8 10 12 9 8 8 9 10 10 10 10 9 9 9 9 9 10 12 10
1 1 0 -0 0 -0 0 2 2 4 4 5 5 8 11 7 4 4 7 10 10 10 10 12 8 10 7 7 8 8 7 10 12 9 7 10 11 9 10 11 11 11 11 11 11 11 11 11 10 9 9 9 10 11
1 1 0 -0 -0 1 1 2 3 4 5 7 8 9 6 4 5 8 10 11 11 12 10 9 8 9 6 10 10 7 11 10 13 11 11 12 12 11 11 12 12 12 12 11 11 11 10 10 10 10 9 9 9 9
1 1 -0 -1 0 1 2 3 3 7 7 7 7 7 7 7 9 11 11 10 11 12 9 9 8 8 7 7 9 9 10 10 14 10 12 14 11 13 13 13 13 12 11 11 11 11 11 11 10 10 9 10 9 8
0 -0 -1 -0 1 3 3 3 4 6 6 7 8 11 10 10 12 13 14 12 12 10 9 9 9 8 7 7 9 9 12 12 9 12 13 11 12 13 13 13 13 12 12 12 11 12 12 12 11 11 11 11 11 10
-0 0 1 2 3 3 3 3 5 5 7 10 11 13 12 12 11 11 11 11 10 10 9 8 9 9 8 10 9 12 11 10 13 14 13 11 12 12 13 13 12 13 13 13 13 12 12 13 13 12 12 11 12 12
0 1 2 3 3 3 4 4 5 7 8 11 11 14 13 10 11 11 11 10 10 9 9 9 10 9 10 11 10 11 12 14 12 12 11 11 12 13 13 13 13 13 13 13 13 13 13 13 13 13 13 12 12 12
2 3 5 3 4 4 4 5 7 9 11 11 12 14 13 12 11 11 11 11 9 8 9 9 11 12 12 11 12 13 13 14 11 10 10 12 12 13 13 13 13 13 13 13 14 14 13 13 14 14 13 14 14 14
4 6 4 4 4 4 6 8 9 12 12 15 15 13 13 13 12 11 10 10 9 9 11 11 13 12 11 13 13 11 12 10 10 11 11 11 12 12 12 13 13 13 14 14 13 13 14 13 14 14 15 14 14 15
6 4 3 4 6 7 9 10 12 13 15 14 15 14 13 11 12 11 10 10 10 10 11 11 11 12 12 13 12 10 10 12 13 11 11 11 12 13 13 13 13 14 15 14 15 15 14 14 14 14 15 16 15 14
4 5 5 5 7 9 11 11 11 15 15 13 13 13 12 12 12 12 12 10 10 10 11 11 12 13 12 11 10 11 12 12 11 11 11 12 12 12 13 14 14 15 16 15 15 15 15 15 15 15 15 15 14 14
4 4 5 5 7 10 13 14 11 13 15 14 13 13 13 13 13 14 13 12 12 12 13 14 13 11 11 11 11 11 11 12 11 12 13 13 13 14 14 14 14 15 16 16 16 15 15 16 15 16 15 14 14 14
5 6 6 8 10 10 12 14 14 13 13 14 13 13 14 14 14 15 14 13 14 14 15 14 13 12 13 13 12 12 12 12 11 11 11 13 14 14 15 16 16 17 16 16 16 16 17 17 16 16 16 15 15 14
7 5 9 9 12 13 14 14 13 13 13 14 14 14 15 16 16 15 15 15 14 13 13 13 14 14 14 14 13 14 13 13 14 14 13 13 16 16 16 16 17 17 17 17 17 17 17 17 17 16 16 16 15 15
7 9 13 14 17 17 18 15 16 16 16 16 15 16 16 16 16 15 17 16 15 13 14 15 15 17 15 15 15 15 15 14 15 15 15 16 16 16 16 16 16 17 17 17 17 17 17 17 17 17 17 17 16 16
8 13 15 16 17 20 18 20 17 18 17 17 18 18 18 17 16 17 18 17 15 15 16 16 18 17 18 18 17 16 16 16 16 18 18 18 18 18 18 17 17 18 17 17 18 17 17 18 17 18 18 19 19 19
12 15 13 16 17 20 21 21 21 18 20 20 19 19 19 19 18 19 18 15 15 16 16 18 18 17 17 17 17 17 19 17 17 17 18 18 19 20 19 19 19 18 18 19 19 19 19 19 19 19 19 19 20 20
16 15 14 14 16 18 19 21 22 21 21 22 20 20 20 19 20 18 17 15 15 16 16 16 17 18 18 17 17 17 17 18 17 17 17 18 18 17 18 18 18 18 18 18 18 19 19 19 20 20 20 20 19 19
15 15 13 14 16 17 18 18 17 19 23 21 19 20 20 21 19 16 15 16 15 15 16 16 17 16 15 16 17 17 19 18 18 17 19 18 17 17 17 18 18 17 18 19 19 19 19 19 19 19 20 19 20 20
13 16 17 17 18 19 20 21 22 21 19 17 17 21 19 18 15 14 14 15 16 18 18 19 19 19 18 17 17 18 20 21 22 20 19 19 20 20 20 19 19 17 19 18 18 18 19 19 19 20 20 20 20 19
13 14 15 21 22 22 21 18 18 17 15 17 17 18 17 16 15 16 16 17 21 18 17 16 17 21 21 21 22 21 20 20 19 20 19 17 17 17 20 21 21 21 20 20 17 17 19 19 19 19 19 18 18 18
14 17 20 25 22 19 16 17 19 21 18 17 17 18 17 17 16 18 19 19 18 16 14 15 17 19 17 18 17 20 22 20 17 16 16 16 16 19 22 22 21 21 22 21 21 20 18 18 19 19 19 19 19 18
18 19 20 21 20 19 23 23 23 19 22 22 24 19 17 18 18 17 17 15 14 18 19 17 19 20 18 19 19 18 17 19 20 20 20 21 22 21 21 21 21 21 21 21 21 21 21 20 20 20 20 20 21 18
19 19 19 21 20 23 25 25 25 24 24 24 21 26 23 21 20 16 18 21 20 19 16 16 19 16 19 18 20 19 17 20 22 22 23 21 21 21 21 21 22 22 21 21 21 21 21 21 20 20 20 20 20 20
23 24 27 24 23 22 23 23 24 24 25 24 22 23 23 20 18 15 21 23 20 19 20 20 20 21 22 23 22 21 20 23 23 18 18 17 17 17 19 19 19 20 20 20 20 19 20 20 20 19 19 19 19 19

GFSWCAN_con_lsi_063.txt.gz
Lid_Strength_Index
-0 -0 0 0 0 1 1 2 2 2 2 3 3 3 3 3 3 4 5 4 7 10 10 9 9 10 9 7 9 7 8 7 8 11 11 12 12 11 11 10 11 12 13 14 13 15 17 8 8 11 9 6 6 6
-1 -1 -0 -0 -0 0 1 1 2 2 2 2 3 2 3 3 3 3 7 5 5 9 10 8 9 9 9 9 10 6 7 7 7 9 9 9 11 10 11 14 9 13 10 12 12 12 8 7 7 6 6 6 6 7
0 -1 -1 -1 -0 -0 0 1 1 1 1 2 2 2 2 2 3 4 5 6 7 11 11 10 11 9 8 9 7 10 6 5 6 4 7 8 11 9 13 11 10 8 7 10 10 8 8 7 6 6 6 6 6 6
0 -0 -1 -1 -1 -1 0 1 1 1 1 1 1 1 2 2 3 4 5 5 7 10 15 13 9 10 7 7 9 8 8 5 4 5 7 8 10 7 10 9 10 8 7 9 9 7 6 6 5 5 6 5 6 6
1 0 -1 -1 -1 -1 0 1 0 0 1 1 1 2 2 3 3 3 4 5 6 11 14 13 11 10 9 9 9 9 9 9 6 7 8 9 7 7 7 8 10 7 8 10 10 6 7 7 5 6 6 6 6 7
2 1 0 -0 -1 -1 0 0 0 0 1 1 1 2 2 3 4 5 9 6 6 6 11 14 8 9 6 7 10 8 8 8 6 7 7 6 5 7 10 11 7 5 5 5 7 5 5 5 6 6 7 7 7 8
2 1 1 0 -0 -0 0 0 0 1 1 1 2 2 3 4 4 8 10 6 5 5 9 12 11 7 6 6 5 5 6 5 6 6 7 7 7 7 9 11 7 5 5 5 5 6 7 6 6 6 7 7 7 8
3 2 1 1 0 0 -0 0 0 1 1 2 2 3 3 4 4 8 4 4 4 7 9 12 12 9 4 7 7 4 7 6 6 7 7 8 7 7 11 8 6 5 5 6 6 6 7 7 7 7 7 7 8 9
3 2 2 1 1 1 -0 -0 0 1 1 2 2 3 4 6 8 6 3 4 4 8 12 11 12 12 5 7 6 6 6 10 6 9 8 8 10 12 9 7 7 6 7 7 8 8 8 8 8 8 8 8 8 8
3 2 2 1 1 1 -0 0 1 1 2 2 4 7 10 7 4 4 7 9 10 10 10 13 9 11 7 8 9 8 8 10 12 9 7 10 11 7 6 8 8 8 9 9 10 10 10 10 9 9 8 8 8 8
2 2 2 1 1 1 0 -0 1 2 2 6 8 8 6 4 6 8 11 12 12 12 11 10 9 10 6 10 10 7 10 10 13 11 11 12 12 9 10 11 11 11 11 11 10 10 9 9 10 9 9 8 7 7
2 1 2 1 1 1 0 0 1 4 5 6 6 5 7 8 9 11 11 11 12 12 9 9 8 8 7 6 9 8 11 11 14 9 12 13 10 11 11 12 12 11 10 10 10 10 10 11 10 10 10 9 9 9
1 1 1 1 1 0 0 1 2 3 4 5 8 10 10 10 13 12 13 12 11 9 7 8 9 8 7 7 9 10 12 13 9 12 13 11 11 12 12 12 12 11 11 11 11 11 11 12 11 11 11 10 11 11
1 1 0 0 -0 -0 0 1 3 5 6 9 11 13 12 12 12 10 9 9 8 8 8 8 8 9 7 9 9 12 10 10 13 14 13 9 11 11 11 11 11 12 12 12 12 11 12 12 12 12 13 11 11 12
1 -0 0 0 1 1 2 3 4 5 7 10 10 13 12 10 10 10 9 9 8 7 8 9 10 9 10 11 10 11 13 14 12 12 10 9 11 11 12 11 11 11 12 12 12 12 12 12 12 12 12 12 12 12
-0 1 3 2 3 2 3 4 6 7 9 10 11 12 10 11 11 10 10 10 8 7 9 9 11 11 12 11 12 13 13 13 11 9 9 10 11 11 12 12 11 11 11 12 12 13 13 13 13 13 12 13 13 14
3 5 3 3 2 4 4 7 8 10 11 13 13 11 11 11 11 10 9 9 8 9 11 11 13 13 11 13 13 11 11 10 8 8 8 9 10 11 12 12 12 12 13 13 12 12 12 12 12 13 14 14 13 13
5 4 3 4 5 6 8 8 10 12 14 13 13 11 11 10 10 10 10 10 10 10 11 12 11 12 13 14 11 9 7 9 10 9 9 10 10 10 11 12 12 12 13 13 14 14 13 13 13 14 14 15 14 13
5 4 4 4 5 8 10 11 10 13 13 12 11 10 10 10 10 10 10 10 10 9 10 11 12 13 11 8 8 8 9 9 9 10 10 9 9 10 11 12 12 13 14 14 14 14 14 15 15 15 15 14 14 13
4 4 5 6 6 9 12 12 10 12 13 12 11 11 11 11 12 11 11 11 10 10 12 13 12 10 9 9 9 9 9 9 10 11 11 11 10 12 12 12 12 13 14 14 15 14 14 14 14 15 15 14 14 14
6 6 6 7 9 9 11 12 12 12 12 13 12 12 12 12 13 12 12 12 12 12 13 11 11 9 11 10 11 10 10 10 10 9 9 10 11 12 12 13 13 14 15 15 15 15 15 15 15 15 15 14 14 14
7 6 9 9 11 12 13 13 13 12 12 13 13 12 13 14 14 13 13 14 13 12 11 12 11 11 12 12 11 12 11 11 11 11 11 11 13 13 13 13 14 15 15 14 15 15 15 15 16 16 15 15 15 15
7 9 11 12 14 14 16 13 14 14 14 14 13 14 14 14 15 13 15 13 13 12 11 12 13 14 14 13 14 13 13 13 12 12 12 12 13 13 13 13 14 14 15 15 15 15 15 15 15 16 15 15 15 16
8 12 13 15 14 17 15 17 15 15 15 15 15 16 16 15 15 15 16 14 12 12 13 13 14 15 14 16 15 13 13 13 12 12 13 14 14 15 15 15 16 15 15 15 16 16 17 17 17 16 16 17 17 17
11 14 13 16 15 16 16 16 17 16 16 17 17 17 17 16 16 16 16 13 12 13 12 13 15 15 15 14 14 14 14 13 13 14 14 15 15 17 17 17 17 16 16 17 17 18 17 17 18 18 18 18 19 19
15 14 14 13 14 14 15 16 17 16 17 17 17 17 17 16 18 16 14 12 12 12 12 13 13 14 15 15 15 14 14 15 15 15 14 15 16 15 15 16 16 16 16 17 16 17 18 18 18 19 19 19 17 18
13 13 12 13 13 15 16 15 15 15 17 18 16 17 17 19 16 13 11 12 12 11 12 12 13 13 13 13 14 14 15 15 15 16 17 16 15 15 14 15 16 15 17 17 17 17 17 18 18 18 18 18 18 19
12 13 15 14 16 16 17 16 17 17 15 14 14 18 17 15 13 10 10 11 11 13 13 13 14 14 14 14 13 14 16 17 18 18 17 16 17 16 17 16 16 16 16 16 17 17 17 18 18 18 18 19 19 18
12 13 14 21 19 16 16 15 14 13 13 14 14 14 14 13 11 11 12 13 15 14 12 12 11 15 16 16 17 17 16 17 17 18 18 15 14 15 16 17 17 17 16 16 15 15 18 18 18 18 18 18 17 17
13 12 15 19 19 16 12 14 13 16 15 14 15 14 14 13 12 12 14 15 14 13 11 10 10 13 13 14 13 15 17 16 16 14 14 14 13 15 17 18 18 18 19 19 19 18 16 16 17 19 19 19 18 18
14 14 15 15 15 12 16 19 18 17 17 16 17 16 14 13 14 13 13 12 11 11 12 12 12 14 14 14 15 14 14 15 16 16 15 16 17 17 17 18 17 18 19 19 19 19 19 19 20 20 20 20 21 18
15 15 15 18 14 17 19 18 17 17 16 18 16 17 17 17 16 12 11 13 14 14 12 12 14 12 14 14 14 14 13 15 16 17 18 16 17 18 18 19 20 19 19 20 20 20 20 21 20 20 20 20 20 20
17 17 18 17 16 15 17 17 17 17 18 18 16 16 16 16 15 11 16 17 15 15 16 15 16 16 18 19 18 16 16 18 19 17 17 17 17 17 19 19 18 19 19 19 19 19 20 20 20 20 20 20 19 19

GFSWCAN_con_lsi_066.txt.gz
Lid_Strength_Index
2 2 1 1 -0 -0 0 1 1 1 2 2 2 2 2 2 2 3 5 4 7 10 10 9 9 11 10 9 11 8 9 8 9 12 13 13 13 11 13 12 12 13 15 15 14 17 18 8 9 12 10 8 8 8
2 1 0 -0 -0 -0 0 0 0 1 1 2 2 2 2 2 1 2 5 3 4 8 10 7 8 9 9 9 11 10 9 8 8 11 10 10 12 12 12 14 11 14 12 14 13 14 9 8 8 7 7 7 8 8
2 1 -0 -1 -1 -1 -1 -0 -0 0 1 1 2 2 2 1 1 2 4 4 6 8 10 10 10 9 7 8 8 12 9 6 7 5 9 9 12 10 13 12 11 9 9 12 12 10 10 9 8 7 7 7 6 7
3 1 0 -0 -1 -1 -1 -0 -0 0 1 1 1 2 2 1 1 2 4 4 6 8 13 12 9 10 8 7 9 9 9 7 8 6 9 10 11 8 11 10 11 9 9 10 11 10 9 8 8 7 7 7 7 7
3 2 1 1 0 -0 -1 -1 -1 0 1 1 1 1 1 2 2 2 3 4 5 9 13 13 11 10 9 10 10 9 10 10 11 9 9 10 8 9 9 10 11 8 10 11 12 8 8 8 7 7 7 8 8 8
4 3 3 2 1 0 -0 -1 -0 0 1 0 1 1 2 2 2 4 8 5 5 6 11 14 9 10 8 8 11 10 10 10 9 8 8 8 6 8 12 12 8 8 7 7 9 7 7 7 7 8 8 8 8 8
4 4 3 2 2 1 1 0 -0 0 0 1 1 2 2 2 3 6 9 6 5 6 10 14 12 7 6 7 10 10 9 10 9 8 8 8 8 7 10 12 8 7 7 7 6 7 8 6 8 8 8 8 7 9
4 4 3 3 2 2 1 1 0 0 -0 1 1 2 2 2 2 6 5 4 5 8 9 14 14 10 5 8 9 7 8 8 8 7 7 9 8 8 12 9 7 7 7 7 8 8 8 8 8 8 8 8 9 9
4 4 4 3 3 3 2 2 1 0 0 1 2 2 3 4 6 6 3 4 5 8 12 12 14 13 6 7 6 7 6 10 7 9 9 8 10 12 9 8 8 7 8 8 8 9 9 9 9 9 9 9 10 9
4 4 4 3 3 3 2 2 2 0 1 2 4 6 8 5 3 4 7 9 9 9 10 13 10 12 8 8 9 9 8 10 12 10 7 10 11 8 7 9 10 9 9 9 10 11 11 12 10 10 10 9 9 9
4 4 3 3 3 2 3 2 1 1 3 5 7 8 3 3 6 8 11 12 11 13 11 12 11 11 6 10 11 8 10 10 13 11 11 12 12 9 11 12 11 10 10 10 10 10 10 10 11 11 10 10 9 8
4 3 3 3 2 2 3 2 1 4 5 5 5 4 5 7 9 11 12 11 12 13 10 10 9 8 7 6 9 8 11 11 14 9 12 13 10 11 12 12 11 11 10 10 10 10 10 11 11 11 10 10 10 10
3 3 3 2 2 2 1 1 2 3 3 4 6 9 9 10 13 14 15 12 12 9 9 9 9 8 7 7 9 10 12 13 9 12 13 12 12 12 12 12 12 11 11 11 11 11 11 11 11 11 12 11 11 11
2 2 2 2 1 1 0 1 2 3 5 8 10 12 12 12 12 12 12 10 9 8 8 8 9 9 8 10 9 12 11 11 14 15 15 12 12 12 12 11 11 12 11 12 11 11 11 11 12 11 12 12 12 12
2 2 2 1 0 0 1 1 3 4 7 10 9 13 12 11 10 10 10 9 8 8 8 9 10 9 11 11 11 12 13 14 13 14 13 13 12 12 12 12 11 12 12 12 12 13 13 12 13 13 13 13 13 14
2 2 3 1 0 -0 1 3 5 5 8 9 10 12 11 12 12 11 11 10 8 7 8 9 11 12 12 12 13 14 14 15 14 13 13 13 12 12 13 12 12 12 13 13 13 13 13 14 14 14 13 14 14 14
1 5 2 0 1 3 4 7 7 10 10 12 13 11 11 11 12 10 9 9 8 9 11 11 12 13 12 13 14 12 15 13 12 14 13 12 11 13 13 13 13 13 14 14 13 14 14 13 13 14 16 16 16 14
4 2 2 3 5 6 8 8 10 12 15 14 14 12 11 11 10 9 9 9 10 11 11 11 11 13 14 15 15 13 13 14 14 13 13 12 12 13 13 13 13 14 15 15 16 17 17 17 16 16 17 17 17 16
4 4 4 4 5 8 10 11 10 15 15 12 12 12 12 11 10 11 10 9 10 10 11 11 12 13 13 13 13 12 15 14 13 13 12 11 12 13 13 14 14 16 16 17 16 17 17 17 17 17 17 16 17 16
3 4 5 5 6 9 12 13 11 13 16 14 12 13 12 12 12 12 11 11 11 11 12 12 12 11 11 12 14 14 14 13 13 14 14 14 13 16 15 15 15 15 16 17 18 16 19 17 17 17 17 16 16 17
5 6 6 7 9 10 12 12 13 13 13 13 13 12 13 12 12 12 12 12 14 15 16 14 12 11 12 13 13 13 13 13 13 13 13 16 14 16 16 17 17 16 17 17 18 18 16 17 18 18 21 17 16 16
7 6 9 9 11 13 14 14 13 12 13 13 13 13 14 15 14 14 14 14 15 13 13 13 14 14 15 14 15 15 14 14 13 14 12 12 16 17 17 16 17 19 19 20 20 19 19 19 19 19 18 19 17 18
7 9 11 11 15 16 18 14 17 17 15 15 18 18 19 20 19 16 19 16 14 12 13 14 16 17 17 16 16 16 15 17 16 15 14 15 15 16 17 16 16 18 20 19 19 19 20 16 17 18 19 19 19 19
8 12 14 16 16 20 17 20 16 18 18 19 20 20 19 17 17 17 19 16 13 13 14 15 17 18 18 20 20 18 17 17 17 18 18 18 19 18 15 16 16 17 18 19 20 21 21 20 17 20 21 21 22 22
13 15 15 18 18 20 21 22 22 20 22 21 22 21 20 19 18 17 16 13 13 13 13 14 15 15 17 19 18 18 18 17 18 19 18 18 19 20 20 19 18 18 18 22 21 21 22 22 22 22 22 22 23 24
17 15 16 17 19 19 20 23 23 22 21 23 21 20 20 19 21 20 16 14 14 13 13 14 14 15 15 15 17 17 16 17 16 17 16 16 16 18 20 21 22 20 19 19 21 20 21 21 22 23 22 21 18 21
15 15 13 13 15 16 18 17 17 19 24 24 22 22 21 23 21 16 14 14 14 14 14 14 14 14 14 14 15 15 17 17 17 17 19 19 18 19 18 18 19 19 19 19 20 20 21 21 21 22 22 23 23 23
13 15 19 17 18 18 20 20 21 22 20 16 17 24 22 19 16 14 15 15 15 16 15 15 14 14 15 14 15 16 17 18 19 19 18 18 18 18 19 20 19 15 21 21 21 21 21 21 21 22 23 23 23 24
16 15 16 23 22 20 20 20 20 17 15 17 19 19 19 16 17 16 16 17 19 18 18 16 14 14 15 18 18 18 18 18 19 19 20 18 20 18 19 19 20 21 21 21 14 17 21 22 22 22 22 22 21 21
18 15 19 23 21 20 19 18 19 20 18 17 17 18 18 18 16 17 19 20 19 17 14 14 13 16 15 17 17 18 17 16 16 15 16 16 17 21 23 22 22 23 23 22 22 23 15 19 20 23 23 24 24 24
16 17 19 19 20 19 22 22 22 19 21 22 22 21 19 19 18 17 16 14 13 14 18 14 13 18 17 18 18 19 16 17 16 16 16 21 21 22 23 22 22 22 23 23 24 24 25 25 26 26 25 25 25 20
17 21 20 21 20 21 23 23 23 23 22 24 23 23 23 22 21 16 16 17 19 16 12 12 18 15 18 19 20 20 12 19 21 21 21 21 21 22 22 23 24 23 24 24 25 25 26 26 26 25 23 24 24 24
21 22 23 23 22 21 22 22 23 23 24 25 22 20 21 20 18 15 20 22 18 19 21 22 23 23 23 23 23 22 17 23 20 15 14 14 14 18 23 23 23 23 24 24 25 24 24 24 23 23 23 23 23 22

GFSWCAN_con_lsi_069.txt.gz
Lid_Strength_Index
2 2 2 2 2 2 2 2 3 3 3 4 3 3 3 3 3 5 7 5 8 12 11 10 9 11 12 12 12 9 9 8 9 12 13 13 13 12 13 13 14 14 14 16 15 17 18 9 10 12 10 8 8 8
3 2 2 2 2 2 2 2 2 2 2 2 2 3 3 3 2 3 6 4 4 8 10 8 7 7 8 9 11 11 9 10 8 10 11 11 13 13 13 16 12 15 13 14 14 14 10 9 9 8 7 7 7 8
3 2 2 2 1 1 1 1 1 1 2 1 2 2 2 2 2 3 6 4 5 8 9 10 11 8 7 8 7 13 11 8 8 9 9 10 12 11 14 13 11 10 10 13 13 11 10 9 8 7 7 8 7 7
4 3 3 2 2 1 -0 -0 -0 0 1 1 2 2 2 2 2 2 5 4 5 7 12 12 8 10 8 8 9 9 10 9 9 11 11 10 11 9 12 11 12 10 10 11 12 10 10 9 9 8 8 7 8 8
5 5 4 3 2 1 1 1 0 0 0 0 1 1 2 2 3 4 5 4 4 8 13 12 9 8 8 9 10 10 10 10 11 13 11 11 9 9 10 10 12 9 10 12 12 9 9 8 8 7 8 8 8 8
6 6 5 4 3 3 3 1 0 0 0 0 1 1 2 3 3 6 8 6 4 5 10 14 10 10 9 9 9 11 10 10 11 12 12 8 6 8 12 13 9 9 8 8 9 8 7 7 8 8 8 8 9 9
7 6 6 6 5 4 3 2 2 1 1 1 1 2 2 3 4 8 9 5 4 7 11 14 16 10 7 7 10 9 9 10 11 12 12 11 9 8 11 13 9 8 8 7 7 7 9 7 8 8 7 8 8 9
7 6 6 5 5 4 3 3 3 2 1 1 1 2 3 3 4 5 4 3 5 9 10 14 16 13 6 9 12 9 10 10 11 11 9 8 8 8 12 9 8 8 8 8 8 8 8 8 8 8 8 8 9 10
6 6 5 5 5 4 4 3 3 2 2 1 2 3 5 6 8 7 2 2 5 8 12 13 18 19 7 8 8 10 8 11 9 11 10 8 10 12 9 8 8 8 8 8 9 9 9 9 9 9 10 10 10 10
6 5 5 5 4 4 4 3 3 3 2 2 5 8 10 7 2 3 5 8 9 9 10 13 13 15 10 8 9 10 9 10 12 11 7 10 11 8 7 8 10 9 9 9 10 11 12 12 11 11 11 9 10 10
5 5 5 5 4 4 3 2 2 2 4 7 9 9 5 3 5 7 10 11 11 13 12 12 12 14 8 10 10 9 11 10 13 11 11 12 12 9 11 12 12 11 11 10 10 9 9 9 10 11 11 10 9 9
5 5 5 4 3 3 2 2 2 6 7 7 7 5 5 7 8 11 12 11 13 14 11 12 10 10 9 7 9 9 11 11 14 9 12 14 11 12 13 13 12 11 10 10 9 10 10 10 10 10 10 10 10 9
5 4 4 3 3 2 2 2 3 4 5 7 8 9 8 8 13 13 19 13 12 10 9 9 10 8 7 7 9 10 12 13 9 12 13 12 12 12 12 12 11 11 10 11 11 11 11 11 11 11 12 11 11 11
4 3 3 3 3 3 3 2 3 5 8 10 10 12 11 12 11 12 12 10 9 9 8 8 9 10 8 9 9 13 10 10 14 15 15 12 12 12 12 11 11 11 11 11 11 11 11 12 12 11 12 12 13 13
3 3 2 3 2 2 2 2 4 6 8 10 9 14 14 11 9 9 10 10 9 8 8 8 10 9 11 11 11 12 13 15 13 14 13 13 13 13 12 12 11 11 12 12 12 12 12 12 13 13 13 13 13 14
2 2 3 2 2 2 3 4 6 6 8 8 10 11 11 13 13 10 10 10 8 7 8 9 11 11 11 12 14 14 15 15 15 13 13 14 13 13 13 12 11 12 13 13 13 13 14 14 14 14 14 16 15 14
2 4 2 2 2 3 4 7 7 9 10 11 14 10 12 13 12 11 9 9 8 9 11 11 12 13 11 13 15 13 14 14 11 13 15 13 12 12 13 13 13 13 14 14 14 14 14 14 14 15 16 16 16 15
5 4 2 2 5 6 8 9 10 11 14 14 14 14 11 11 12 10 9 9 10 10 11 11 11 14 13 14 14 13 13 13 16 15 14 13 13 14 13 13 13 14 14 15 15 17 17 17 16 17 18 18 18 17
4 3 3 4 5 8 10 10 10 15 17 14 13 13 13 12 11 11 11 9 9 10 11 11 12 17 14 11 11 11 13 15 13 13 13 12 13 14 14 15 15 16 17 17 16 17 17 17 17 17 17 17 17 17
4 4 4 4 5 9 12 14 11 17 18 15 14 15 15 14 12 14 14 11 10 11 12 13 13 13 12 11 12 12 13 14 14 14 14 14 14 18 16 16 15 16 16 17 18 16 19 17 17 17 17 17 17 17
5 5 5 7 9 10 13 12 13 13 13 14 14 13 14 13 14 13 13 12 14 15 16 13 12 12 14 13 12 13 13 13 13 14 14 16 14 16 17 18 19 17 17 17 18 18 15 17 18 19 23 17 16 16
6 6 8 9 12 13 15 14 13 13 13 14 14 13 14 15 15 14 14 15 14 15 13 12 14 14 15 14 15 15 14 14 14 14 12 13 16 18 18 17 18 18 18 18 19 19 19 19 19 19 19 19 17 18
6 8 10 11 14 16 17 15 17 15 16 15 19 17 21 23 22 20 19 20 16 16 15 15 16 17 16 17 16 16 16 17 16 16 15 15 15 17 18 17 17 18 19 18 19 19 21 16 17 18 20 19 20 20
7 12 13 15 15 18 17 21 17 20 21 20 23 23 23 23 22 23 22 19 15 15 15 15 17 16 17 19 20 19 17 17 17 19 20 19 20 18 16 16 16 17 17 19 19 20 21 20 17 21 22 22 23 23
12 14 14 18 18 18 20 22 24 22 24 25 24 24 24 23 23 23 20 16 14 14 14 14 14 14 15 16 16 17 18 18 19 19 19 19 20 21 21 20 17 17 18 20 20 20 21 22 22 22 22 22 23 24
17 15 16 18 19 19 20 22 24 23 24 25 25 24 25 23 23 21 18 17 16 15 15 15 14 15 15 14 15 15 15 16 17 18 17 17 17 18 19 20 21 18 18 17 20 20 20 22 22 23 22 21 17 20
16 16 15 14 16 17 19 18 18 21 25 24 25 24 25 24 24 18 15 16 16 16 15 15 15 15 14 14 14 14 15 15 15 16 18 19 19 17 17 18 18 17 18 19 19 20 20 21 21 22 22 25 24 23
15 17 19 19 19 20 21 21 23 22 22 18 19 24 23 21 18 16 16 17 18 19 18 18 16 14 14 15 16 16 18 19 19 19 18 17 16 17 17 16 16 14 19 19 19 20 20 20 21 22 23 23 24 25
17 16 16 21 22 21 21 20 20 19 16 18 21 21 20 17 18 19 17 19 22 21 19 17 14 18 17 20 19 19 18 18 18 18 18 16 18 16 18 17 17 19 21 20 14 18 22 23 23 22 22 23 23 25
18 17 19 23 21 20 20 20 21 23 20 18 18 19 19 18 17 19 20 22 20 17 14 15 17 19 15 19 18 19 18 16 15 14 15 15 15 19 23 22 20 20 21 20 21 22 15 19 20 21 20 23 25 26
18 21 22 23 22 23 23 24 25 20 23 25 25 22 19 20 19 18 15 13 13 14 21 16 15 17 17 19 21 21 17 18 16 16 15 19 20 21 22 23 23 22 22 22 23 24 24 25 26 26 26 27 26 23
19 23 22 20 20 23 25 26 27 26 27 26 24 28 25 24 22 17 20 21 21 18 13 13 17 13 19 19 21 20 12 20 21 20 21 20 20 21 21 22 24 23 23 24 25 25 27 27 27 27 27 26 26 25
26 27 26 26 23 23 24 24 24 24 26 27 24 25 26 22 19 16 20 24 21 21 22 23 25 25 24 24 24 23 18 24 22 14 13 13 14 17 23 24 23 23 23 25 25 26 26 28 28 28 27 25 24 24

GFSWCAN_con_lsi_072.txt.gz
Lid_Strength_Index
4 4 4 4 3 4 4 3 3 3 4 5 5 6 6 6 5 8 10 9 11 13 11 9 10 12 13 12 14 12 12 8 9 12 13 13 14 12 14 13 14 14 15 15 14 17 18 10 10 13 10 9 9 9
4 4 4 4 4 4 3 2 3 3 3 4 4 5 5 5 5 5 8 7 7 10 9 8 8 7 8 8 11 11 11 11 10 11 11 11 14 13 14 16 13 14 13 14 14 14 10 9 10 8 7 8 7 8
4 4 4 4 4 3 2 2 2 3 3 3 3 4 4 4 4 5 7 7 7 10 9 9 10 8 6 7 7 12 11 9 9 11 12 10 13 12 14 14 13 12 11 13 13 11 11 10 9 8 7 8 7 7
5 5 4 4 3 3 2 2 2 2 2 2 2 2 3 2 3 3 6 7 7 8 12 12 8 10 8 8 8 8 9 9 9 10 13 13 12 10 12 11 12 11 10 12 12 11 10 9 9 8 8 8 8 8
6 6 6 4 4 4 4 3 3 2 2 2 2 1 1 2 3 5 6 7 6 8 12 11 9 8 8 8 9 9 10 11 12 13 13 13 10 9 11 11 12 10 10 12 12 9 10 10 9 9 8 8 8 8
7 7 6 5 5 5 4 4 5 4 3 3 2 0 0 2 4 6 11 9 7 5 10 15 10 11 9 9 10 10 10 11 11 12 12 11 9 10 12 13 9 9 8 8 9 8 8 7 8 7 8 8 9 9
8 7 6 6 6 6 6 5 5 4 4 3 2 0 1 3 6 8 11 8 6 6 11 15 16 12 8 8 9 9 9 9 11 12 13 11 10 10 11 14 9 9 9 8 8 7 9 8 7 7 7 8 7 9
8 7 7 7 7 6 6 5 5 5 4 3 1 1 2 3 4 7 6 4 6 8 9 15 16 15 7 10 13 10 10 9 10 12 11 11 9 10 12 9 8 9 9 9 8 9 8 8 9 8 9 8 10 9
8 8 8 8 7 6 6 6 6 5 3 2 2 3 5 6 8 9 4 4 6 8 13 13 18 19 7 9 9 10 10 12 10 13 12 10 11 12 10 9 8 8 9 9 9 9 9 9 9 9 10 10 11 10
8 8 7 7 6 6 6 5 5 4 3 4 7 8 10 8 4 5 8 9 9 9 10 13 12 15 11 10 10 11 10 11 13 11 9 12 12 8 7 8 8 8 9 9 11 12 11 12 10 11 11 10 10 10
7 7 6 6 6 5 5 4 4 3 5 8 9 9 6 4 7 10 12 12 11 14 11 12 12 14 9 13 10 9 11 11 13 12 11 12 12 10 11 12 11 11 10 10 10 9 9 9 9 10 10 10 10 10
6 6 5 6 5 5 4 3 3 6 9 8 7 5 7 9 11 13 12 11 13 16 11 12 11 11 10 8 10 9 11 11 14 10 12 14 10 12 12 13 12 10 9 9 9 9 10 10 10 10 10 9 9 9
6 6 5 5 5 4 4 3 4 4 5 7 8 11 11 11 15 15 20 16 16 11 10 10 10 8 8 7 9 10 12 13 9 12 13 12 12 13 13 12 11 10 10 10 10 10 10 10 10 11 11 11 11 10
5 5 5 5 4 4 3 3 3 5 8 13 12 16 14 15 14 14 15 12 8 9 9 9 9 10 9 10 9 12 10 10 14 15 16 12 12 13 12 11 10 11 10 10 11 11 11 11 11 11 12 12 13 13
5 5 5 4 4 3 3 3 4 7 9 14 13 17 15 13 13 9 9 9 8 7 8 9 9 9 11 11 11 12 14 16 14 15 14 14 12 13 12 11 11 11 11 11 11 12 12 12 12 13 13 13 13 14
4 5 4 3 3 3 2 3 6 7 10 11 12 13 11 11 18 10 9 10 8 8 8 9 11 11 11 11 13 14 14 16 13 12 12 15 13 13 12 11 11 11 11 13 13 13 14 14 14 14 15 16 15 14
4 5 3 3 2 2 4 8 8 10 11 12 14 11 14 14 16 12 9 9 8 9 11 10 12 14 11 15 16 14 14 12 11 12 14 14 12 12 13 12 12 13 13 14 14 14 14 14 14 15 16 16 16 15
5 4 2 1 2 6 9 9 11 12 15 17 17 16 12 11 13 11 10 9 10 10 10 11 11 14 15 17 16 12 11 11 13 14 14 14 13 13 12 12 13 13 14 14 15 16 17 17 16 16 17 18 17 17
4 2 1 3 5 9 11 11 11 14 17 18 15 15 14 13 12 12 12 10 9 9 11 11 12 13 14 11 11 11 12 13 13 13 13 13 13 14 14 16 15 16 17 18 17 16 16 16 17 17 17 17 17 17
2 3 3 4 6 10 13 13 10 14 17 16 16 17 15 14 13 13 13 11 11 11 11 12 13 12 12 11 12 13 13 12 13 13 13 13 14 18 16 16 15 16 17 18 19 16 19 17 17 17 18 17 17 17
6 6 6 8 10 10 12 13 13 15 15 18 18 16 16 16 14 14 14 12 13 14 14 14 12 12 13 11 12 12 13 13 13 13 13 15 14 16 18 18 19 17 17 17 18 18 14 17 18 19 23 17 17 17
7 6 9 8 11 12 13 13 16 13 15 15 14 13 15 16 15 15 15 15 14 16 16 14 15 15 15 14 14 15 14 14 14 14 12 13 15 18 18 17 19 18 18 18 18 18 19 18 19 19 19 20 18 19
6 8 9 10 13 14 16 15 18 15 17 16 17 16 18 20 19 18 17 18 17 16 16 16 17 18 16 16 15 15 15 16 16 15 15 15 15 17 19 18 17 18 19 18 19 19 20 17 17 18 20 19 20 20
7 10 13 15 16 20 17 19 16 17 18 19 21 20 22 22 22 23 22 21 17 18 17 17 19 18 18 18 18 17 16 16 17 19 20 19 20 17 16 16 16 17 17 19 20 19 20 20 16 19 21 22 22 23
11 14 14 20 19 19 19 18 19 19 20 22 23 23 23 24 24 25 22 18 19 18 17 15 15 15 15 16 15 15 16 16 17 18 18 19 20 21 21 20 17 16 18 21 19 20 21 22 21 21 21 21 21 23
16 17 18 19 18 17 17 19 20 21 21 23 23 24 26 25 25 23 20 20 20 18 17 16 16 16 15 14 15 15 14 14 15 16 16 18 18 18 21 20 21 18 18 17 19 19 20 21 21 22 21 20 17 19
19 18 15 14 15 17 18 18 18 20 23 22 23 24 25 25 25 18 18 18 18 18 16 15 14 14 15 15 15 15 16 15 14 15 17 17 17 16 16 18 18 16 18 18 19 19 19 20 21 21 21 25 24 23
15 15 17 18 18 19 20 21 22 21 20 18 19 22 23 21 18 16 16 18 19 21 21 19 16 14 14 14 16 16 17 18 19 18 17 15 15 15 16 15 15 13 17 19 19 20 19 20 20 21 23 23 24 26
16 16 16 21 22 21 21 19 19 18 15 17 19 20 20 18 18 18 16 18 24 22 19 16 14 20 18 20 21 19 18 18 17 17 17 15 16 15 18 17 18 19 19 19 13 16 21 22 22 23 23 24 24 26
18 17 19 23 20 19 18 19 20 22 19 18 18 19 19 19 18 20 20 22 20 17 15 17 19 21 17 20 16 19 20 17 15 14 16 15 15 18 22 20 20 20 21 21 21 22 13 20 20 21 21 23 25 26
16 18 20 20 19 21 22 23 24 20 24 26 27 22 20 22 19 19 19 17 17 21 21 16 16 20 19 20 22 22 17 19 17 17 16 19 20 22 22 23 23 24 23 22 23 23 24 25 26 26 26 27 28 24
19 22 21 19 20 24 26 27 28 26 28 27 26 30 25 24 22 17 21 23 22 21 16 19 22 18 22 22 23 21 13 21 23 21 21 21 20 21 22 24 26 24 24 24 25 25 26 26 27 27 27 28 28 28
26 27 28 26 23 23 24 25 25 25 27 28 26 27 27 22 19 17 22 25 23 23 23 23 24 24 24 25 24 24 19 25 22 14 12 12 13 17 24 24 23 23 23 24 26 26 27 27 28 28 29 29 28 26

GFSWCAN_con_lsi_075.txt.gz
Lid_Strength_Index
4 4 4 5 5 5 5 5 5 5 6 6 6 6 6 7 6 10 12 11 12 12 11 11 12 13 13 14 15 12 12 10 9 12 13 13 14 13 14 13 14 14 15 16 15 17 18 11 10 13 11 9 9 10
4 4 4 5 5 5 5 5 5 5 6 5 5 5 6 6 6 6 12 10 8 11 11 9 8 8 9 10 10 10 13 12 10 12 13 13 13 14 14 16 13 15 13 14 14 14 11 10 9 9 8 8 8 8
4 4 4 4 4 4 4 4 5 5 5 4 4 4 5 5 5 6 10 9 9 11 12 10 11 9 7 7 6 11 12 10 10 10 11 12 13 12 15 15 14 12 11 13 13 11 11 10 10 8 7 8 7 8
5 5 5 4 5 5 5 5 5 4 4 3 3 4 4 4 4 5 7 7 8 10 14 13 10 11 9 8 8 8 9 9 8 9 12 15 14 11 12 12 12 11 11 12 13 12 11 10 10 9 8 8 8 8
5 5 4 5 5 5 5 5 5 4 3 3 3 3 2 3 3 5 7 7 7 10 14 13 10 10 9 9 9 9 9 10 13 12 13 15 11 11 10 11 13 10 11 12 13 10 10 10 9 9 8 8 8 8
5 5 5 5 6 6 6 6 5 5 5 5 4 3 2 2 4 7 10 10 9 7 11 16 12 12 10 10 9 10 10 10 11 12 13 12 9 12 14 13 10 9 9 8 9 9 8 8 8 8 7 8 8 8
6 6 6 6 6 7 7 7 6 7 6 5 5 4 3 3 6 7 9 9 6 7 12 16 16 12 11 9 9 11 10 11 11 11 13 13 12 11 12 13 9 9 8 8 8 7 9 9 8 8 7 7 7 9
7 7 7 7 8 8 7 7 7 6 6 6 5 4 2 3 4 7 6 5 6 9 11 16 16 15 9 9 12 10 11 10 10 11 12 13 11 12 15 11 10 8 9 9 8 9 8 8 8 9 9 9 10 10
8 8 8 8 9 8 7 8 6 6 5 4 3 4 5 6 8 8 5 4 6 10 15 13 18 21 10 9 9 10 11 13 11 12 13 12 14 13 11 10 8 8 9 10 10 10 9 9 9 9 10 10 11 10
8 8 8 9 8 8 7 6 5 5 4 5 8 9 10 7 4 5 7 9 10 10 10 13 11 14 11 11 12 12 11 13 15 13 11 13 15 10 9 8 9 10 9 10 11 12 12 12 10 10 10 10 10 10
8 8 8 8 8 7 5 5 4 5 6 10 10 10 6 4 7 9 12 13 13 15 12 11 12 14 10 14 13 10 11 11 14 13 13 12 13 11 11 12 11 11 10 10 10 10 10 10 10 11 10 10 9 10
8 8 9 8 6 5 5 5 4 9 10 9 8 6 6 9 10 13 16 13 15 16 12 12 11 11 11 9 11 10 12 12 14 11 13 14 11 12 12 12 11 11 10 10 9 10 10 10 9 9 9 9 9 9
8 7 6 6 6 5 4 3 5 5 6 8 9 11 11 12 15 17 19 19 15 14 11 9 11 9 9 10 10 10 12 13 9 12 13 12 11 13 13 12 11 9 9 10 10 10 10 10 10 10 11 11 11 11
6 6 6 6 5 4 4 3 5 6 9 12 13 15 14 16 15 17 18 18 10 8 8 9 10 10 9 10 10 12 10 10 14 15 15 12 13 13 13 10 10 10 10 10 10 10 10 10 11 11 12 12 13 13
6 6 6 5 4 4 3 4 5 7 10 14 13 18 17 15 19 13 15 9 8 8 9 10 9 9 10 11 10 11 14 16 14 15 14 12 12 12 12 11 11 11 10 11 11 12 12 12 12 13 13 13 13 13
6 5 6 4 4 4 4 5 7 8 11 12 13 15 14 16 19 12 10 10 8 8 8 9 10 11 12 11 14 14 14 17 13 12 11 12 13 13 11 11 10 10 10 12 12 13 13 13 14 14 16 16 15 14
5 6 4 4 3 3 5 8 9 11 12 13 13 11 13 14 17 12 9 9 8 10 11 11 13 13 11 16 18 16 17 13 11 11 12 13 12 12 12 11 11 11 13 14 14 14 14 14 14 16 17 17 16 15
6 4 3 3 4 7 9 10 11 12 14 16 18 18 11 11 13 9 9 9 10 11 10 11 11 13 16 17 17 14 11 11 12 14 13 13 13 13 12 12 12 13 14 14 15 16 17 17 15 16 18 18 18 17
5 5 3 4 6 9 11 12 11 14 18 19 17 16 14 12 12 12 10 10 9 9 11 12 13 13 13 12 10 11 11 13 12 12 12 13 13 14 13 15 15 16 16 17 16 16 16 16 16 16 17 17 17 17
4 4 3 4 6 10 13 13 11 17 19 17 18 17 16 15 14 14 14 12 11 11 13 13 13 12 12 11 12 12 13 13 12 12 12 12 13 18 16 16 15 15 16 18 19 16 19 18 17 17 17 17 17 17
7 6 6 8 10 10 13 15 14 15 15 19 20 17 18 19 18 13 13 11 13 14 14 13 13 12 13 11 10 10 12 12 13 13 12 13 13 15 17 18 19 17 17 17 18 17 15 17 18 19 22 17 17 16
7 6 9 8 11 13 15 15 17 14 16 16 14 17 17 16 15 14 14 17 15 15 14 15 16 15 15 13 13 14 13 13 13 14 12 12 14 16 16 17 18 17 17 17 18 18 18 18 19 20 20 19 17 19
6 8 10 11 14 14 17 14 17 15 16 16 15 16 16 19 19 18 18 18 16 15 16 16 17 19 17 17 16 15 15 16 16 15 15 15 15 16 17 17 16 18 19 18 18 18 19 17 17 18 20 19 20 20
8 12 13 15 14 17 16 19 15 16 16 17 18 19 21 22 21 21 20 20 17 18 17 18 19 18 19 20 19 17 17 16 16 17 18 18 17 16 16 16 16 17 16 18 20 20 20 19 16 19 20 21 22 22
11 14 13 18 19 19 21 19 18 17 17 18 19 21 22 22 22 23 21 18 21 20 19 19 18 18 19 19 16 16 15 15 15 16 15 17 18 18 18 18 17 16 18 20 19 19 20 22 21 21 21 21 21 23
16 17 19 21 21 17 17 18 18 17 18 19 20 22 23 23 24 21 20 19 21 20 19 18 17 19 17 15 15 15 14 15 15 16 14 15 15 15 16 18 17 16 18 16 20 19 19 21 22 22 21 20 16 19
19 20 16 13 15 16 17 16 16 18 20 20 21 23 23 23 23 18 17 19 18 19 19 19 16 15 15 15 15 15 16 16 14 14 16 16 15 15 14 15 15 15 17 19 19 19 19 20 21 21 21 24 24 23
15 15 17 17 17 17 17 19 19 19 20 19 19 22 21 19 17 16 16 16 18 22 22 21 18 16 16 16 17 17 18 20 20 19 17 15 14 14 15 14 14 12 14 18 19 19 19 19 20 21 22 22 23 26
16 15 15 18 18 19 18 18 18 18 16 18 20 21 20 17 17 18 16 20 26 22 19 18 15 23 21 22 21 19 19 20 18 18 17 15 17 15 19 18 18 19 19 18 12 12 18 20 20 21 22 23 24 27
17 16 18 21 19 18 18 19 20 21 19 18 17 18 18 18 18 21 20 23 21 19 19 20 22 22 18 21 17 18 21 18 16 14 15 15 15 20 23 21 20 21 22 22 21 20 11 17 18 22 23 25 25 25
17 19 21 21 20 21 22 23 22 19 22 24 25 22 20 22 19 21 23 23 23 25 22 22 21 25 22 21 25 24 19 20 21 19 18 21 21 22 21 22 23 25 24 23 22 22 22 24 25 25 24 24 26 24
18 20 19 17 18 21 24 26 27 26 28 28 26 30 26 24 22 17 24 25 24 22 19 23 24 22 24 24 23 23 15 17 21 22 22 21 20 20 23 24 27 25 24 24 25 25 26 25 26 26 26 28 29 29
24 24 25 23 21 21 23 24 24 24 27 28 26 28 28 23 20 18 23 26 24 23 24 25 25 25 24 25 24 23 19 23 22 14 12 11 11 15 24 26 25 23 23 23 25 26 26 27 27 28 28 29 29 28

GFSWCAN_con_lsi_078.txt.gz
Lid_Strength_Index
3 4 4 5 5 5 5 5 6 6 6 7 7 8 8 8 8 12 13 12 13 16 15 13 13 15 15 15 15 13 13 10 10 12 13 13 14 13 14 13 14 14 15 16 15 17 18 11 11 13 11 10 10 10
3 4 4 5 5 5 5 5 5 6 6 6 7 7 7 7 7 9 13 11 10 12 13 11 11 11 11 11 12 11 13 13 11 13 13 13 13 12 13 16 14 15 13 14 14 14 11 11 10 9 9 9 9 10
4 4 4 4 5 5 5 5 5 5 6 6 6 6 7 7 6 8 12 11 10 12 11 13 13 11 10 9 9 12 11 11 11 9 13 12 15 12 14 14 14 13 11 13 12 11 11 11 10 9 8 8 8 7
4 4 5 5 5 4 4 5 5 5 6 6 6 6 6 6 5 6 9 8 9 11 14 14 11 13 11 10 9 8 10 9 9 9 11 13 15 11 13 12 12 13 12 12 13 12 11 10 10 9 9 8 8 8
4 5 5 4 4 4 4 4 5 5 5 5 5 5 5 4 4 6 7 7 7 11 15 15 12 12 11 11 9 9 9 11 12 12 13 15 12 12 11 10 12 11 12 13 13 10 10 10 9 9 8 8 8 8
4 5 4 5 4 4 4 5 5 5 5 6 6 5 4 3 5 7 10 10 8 8 12 17 14 14 12 11 10 11 10 11 10 12 13 12 11 11 15 14 9 9 9 10 10 10 10 9 9 9 8 8 9 8
5 5 5 5 5 5 5 6 6 6 7 7 7 6 4 5 7 9 9 10 7 7 14 17 18 14 12 10 10 11 11 10 11 11 12 13 12 10 12 14 10 8 9 9 9 8 10 9 9 9 8 7 7 9
5 5 5 6 6 6 6 7 7 8 8 8 6 5 4 6 6 8 6 5 6 10 12 16 18 16 12 10 11 9 12 11 10 12 11 13 12 13 16 13 10 10 9 8 9 9 8 9 9 9 9 9 10 10
6 6 6 7 7 7 7 8 8 8 7 7 4 6 7 8 9 8 4 5 6 11 16 15 21 21 11 11 9 10 10 13 10 12 12 11 14 16 14 12 11 10 9 9 9 10 9 10 10 10 10 10 10 10
7 7 7 8 8 8 8 8 8 6 5 5 8 11 12 9 5 5 7 9 10 10 11 15 13 15 12 12 14 11 11 14 17 13 11 13 15 13 12 10 8 9 10 9 10 12 11 12 10 11 11 10 10 10
8 8 8 8 8 8 8 8 7 6 8 11 12 12 8 5 7 10 14 13 12 16 13 13 13 14 10 14 14 10 14 13 15 14 15 14 14 11 12 12 11 11 10 10 10 10 9 9 10 11 11 11 10 10
8 8 8 8 8 8 8 7 6 10 11 11 9 7 7 9 11 13 14 13 16 17 15 16 13 10 10 9 11 11 12 12 15 12 14 14 11 11 12 12 12 10 10 10 10 10 10 10 10 10 10 10 10 9
8 8 8 8 8 8 7 6 7 7 8 11 11 11 12 12 16 17 19 17 16 16 15 10 10 8 9 10 11 11 12 13 10 13 13 12 11 11 12 11 10 9 9 10 10 10 10 10 10 10 11 11 11 12
8 8 8 8 7 6 5 5 6 8 11 13 15 16 15 16 15 17 18 19 14 11 10 9 9 10 8 10 10 12 10 10 15 17 15 12 12 13 12 10 10 10 10 10 10 9 10 10 11 11 11 12 12 13
8 8 7 6 6 5 5 6 6 10 12 15 14 18 17 16 18 14 17 14 11 9 9 9 10 9 10 11 11 11 14 17 14 14 13 11 11 12 12 10 11 10 10 10 11 11 11 11 12 12 13 13 13 14
7 6 7 5 5 4 4 6 8 9 11 14 14 15 14 15 21 16 14 12 9 8 8 8 11 11 11 11 13 15 15 16 13 11 11 11 12 12 11 11 11 10 10 11 12 12 12 13 13 14 16 16 15 15
6 8 5 5 5 4 5 8 9 11 12 13 13 11 14 14 18 18 13 12 9 9 11 11 13 14 11 15 16 14 14 12 11 11 12 13 12 12 11 11 11 10 12 13 13 14 14 14 14 15 17 17 16 16
7 6 5 5 5 6 9 10 11 12 14 14 15 16 12 11 14 12 10 9 9 10 10 12 11 13 14 18 16 13 11 11 11 12 13 13 13 12 12 11 11 12 13 14 14 16 17 17 15 16 17 17 17 18
6 5 4 4 6 9 11 12 11 15 17 18 16 16 15 14 13 13 10 9 8 8 10 12 13 14 13 14 11 10 10 11 12 11 11 12 13 13 13 15 14 16 16 17 16 16 16 16 16 17 17 17 17 16
3 3 3 4 6 11 14 14 12 17 18 16 17 16 17 17 15 14 12 11 10 11 12 14 13 14 13 12 13 12 11 11 12 12 12 11 12 15 14 15 15 15 15 17 19 16 19 17 17 17 18 18 18 17
7 5 4 8 11 12 15 17 16 16 16 18 17 19 19 20 20 20 17 12 12 13 14 13 13 13 14 14 9 9 10 12 12 12 12 13 13 15 15 15 17 16 16 16 17 17 14 17 17 19 21 17 17 17
8 7 10 9 13 14 16 15 17 14 18 18 16 20 23 22 22 20 17 15 14 16 15 14 15 15 15 14 14 14 13 12 13 13 12 12 13 16 16 16 17 17 17 16 17 17 17 18 19 20 19 19 18 20
7 9 11 11 14 15 17 14 17 18 19 18 17 17 16 16 19 19 23 20 18 16 16 16 17 18 17 17 16 15 15 16 15 15 15 15 15 15 16 16 16 17 16 16 17 16 17 16 17 18 20 19 20 21
8 12 13 14 15 18 16 20 17 20 21 20 23 23 23 23 21 23 22 20 18 19 18 18 19 17 18 20 19 18 17 17 17 18 18 18 17 16 15 15 15 16 16 17 18 17 19 19 16 19 20 21 21 21
11 14 14 18 18 19 22 22 23 20 22 21 21 22 24 23 24 26 22 19 21 21 19 19 18 18 19 21 18 17 17 16 16 17 17 17 18 18 16 16 15 15 16 18 18 19 19 22 21 21 21 21 21 22
20 18 18 20 21 21 21 24 23 22 21 23 21 24 24 23 23 21 19 20 20 19 18 17 16 19 18 16 18 18 16 16 16 16 15 16 16 17 17 17 16 15 16 16 18 18 19 21 21 22 21 20 15 19
20 19 17 15 17 18 19 18 17 20 21 20 21 21 22 23 22 18 17 18 16 16 17 17 16 15 14 17 17 17 18 17 14 15 16 17 16 15 14 15 15 14 16 17 17 17 18 18 19 20 21 24 23 22
18 18 19 20 20 19 19 20 20 19 18 18 18 21 20 20 18 15 15 16 19 22 22 21 21 19 19 19 19 18 19 21 21 19 17 15 14 14 15 13 13 11 13 17 17 18 18 18 19 19 21 21 22 25
20 17 17 21 19 18 18 19 18 17 16 17 18 20 19 17 16 17 16 18 24 21 18 18 18 25 23 24 23 21 22 22 20 19 17 15 18 14 21 20 20 20 19 19 12 12 16 18 18 19 20 21 22 26
19 18 18 18 18 18 17 18 18 20 18 18 18 18 17 17 17 20 20 22 21 20 22 23 25 24 22 23 20 19 23 21 18 16 17 16 18 21 24 22 21 22 23 22 21 20 11 16 16 21 22 23 23 24
16 17 18 19 17 19 20 21 22 20 22 24 24 21 18 20 19 22 24 26 27 28 24 24 25 28 25 24 26 25 19 22 25 23 22 19 18 20 20 21 21 24 24 23 22 22 21 20 24 25 24 24 23 22
18 21 19 20 20 22 23 24 24 22 23 22 22 26 23 23 21 19 24 27 25 23 19 25 25 22 25 26 25 24 17 19 20 22 24 22 20 20 21 24 26 26 25 25 25 25 25 25 26 25 25 27 28 28
22 22 22 19 19 20 22 23 22 22 24 26 26 28 29 25 20 20 24 27 24 23 24 25 25 25 24 25 25 23 20 23 22 14 12 11 10 12 18 25 26 24 23 23 25 25 26 27 28 28 28 28 29 29

GFSWCAN_con_lsi_081.txt.gz
Lid_Strength_Index
2 3 3 4 4 5 5 5 6 6 7 7 7 8 8 8 9 13 15 14 15 17 17 15 15 17 17 17 17 15 16 13 13 13 15 13 14 13 13 13 13 14 15 16 15 17 18 10 11 13 11 10 9 9
3 3 4 4 5 5 5 5 6 6 6 7 7 7 8 8 9 11 15 12 11 14 15 13 13 12 12 13 13 12 14 14 13 16 15 17 15 13 13 16 12 14 13 14 14 14 10 10 10 9 9 9 8 9
3 4 4 4 5 5 5 5 6 6 6 6 6 7 7 7 8 11 14 13 11 11 13 15 15 13 11 11 10 13 13 11 12 10 14 14 17 14 14 13 12 11 11 13 12 11 11 10 10 10 8 8 7 6
3 4 4 5 5 5 5 5 5 5 6 6 6 6 6 7 7 9 12 12 11 11 14 15 12 13 12 11 11 10 11 10 9 9 12 14 14 12 15 14 14 12 12 13 13 11 11 10 10 10 9 8 7 7
4 4 4 5 5 5 5 5 5 5 5 5 5 5 6 6 6 7 9 9 9 11 14 15 13 14 13 12 12 11 10 10 11 12 13 14 14 14 14 13 14 11 12 13 13 10 10 10 10 9 9 8 7 8
4 4 5 5 5 5 5 5 5 5 5 5 5 5 5 6 7 9 12 13 9 10 14 18 14 15 14 13 13 12 10 10 10 11 13 13 12 14 16 14 12 10 9 9 10 10 10 9 8 8 9 9 8 8
4 5 5 5 5 5 5 5 5 5 5 5 5 6 6 6 8 11 14 12 9 10 15 17 18 14 14 13 13 11 10 10 10 11 13 14 13 12 16 17 11 9 8 9 8 9 10 8 8 8 8 7 7 8
3 4 5 5 5 5 5 5 5 6 6 6 6 6 7 7 8 10 8 7 8 11 12 19 20 17 14 13 12 10 11 11 10 13 12 13 13 12 16 14 12 10 11 10 8 8 8 10 9 9 9 9 9 10
4 4 5 5 5 6 6 6 6 7 7 7 7 7 9 10 12 10 7 7 7 11 18 17 21 23 14 13 10 10 9 14 12 14 14 12 13 16 14 13 13 11 11 8 8 9 8 10 9 10 9 10 10 10
6 6 6 6 6 7 7 7 7 7 6 8 11 13 14 11 7 7 9 11 11 11 12 16 15 18 15 14 14 12 11 15 19 14 11 14 14 11 12 12 12 10 9 9 10 10 10 11 10 10 11 10 10 10
6 6 7 7 8 8 8 7 6 7 9 13 14 14 11 7 10 12 14 14 13 16 13 14 14 17 12 14 14 12 15 15 19 16 15 17 15 11 10 12 11 10 9 10 10 9 9 9 10 11 11 11 11 10
8 8 8 8 8 7 7 7 7 12 13 12 11 10 10 12 13 15 16 15 17 17 15 17 17 13 11 9 12 11 12 12 17 12 15 18 11 11 11 11 11 10 10 10 10 10 10 10 10 10 10 10 10 10
8 8 8 8 7 7 7 8 9 9 10 11 13 14 15 15 20 19 21 18 19 16 16 15 13 10 9 9 11 11 13 13 11 15 16 11 11 11 11 11 9 9 9 9 10 9 10 10 10 10 11 11 11 12
8 8 8 8 7 7 8 8 9 10 12 15 18 18 18 19 17 17 18 18 15 12 11 11 11 11 9 10 10 13 10 10 14 17 16 13 11 11 12 10 10 10 9 9 9 9 10 10 11 11 11 12 12 12
8 8 8 8 8 8 8 8 9 11 14 17 16 19 18 16 19 16 18 15 11 10 11 11 11 10 10 11 10 11 14 17 14 14 14 11 11 12 12 10 11 10 10 10 10 10 10 10 11 13 14 13 13 13
8 8 9 7 7 8 8 9 10 11 13 16 16 19 16 18 19 18 13 14 11 10 10 10 12 12 12 11 13 15 14 15 13 11 10 11 12 12 11 11 11 10 10 12 12 12 12 12 12 13 15 15 15 15
8 10 7 7 6 7 8 11 11 13 14 14 15 13 16 17 18 17 14 12 11 10 14 12 16 13 11 15 17 15 14 12 10 10 11 13 13 12 11 11 11 10 11 12 13 14 14 14 14 15 16 17 17 16
10 7 6 6 7 9 11 12 13 13 15 14 15 16 13 13 15 13 12 10 10 11 12 14 11 13 14 16 18 15 12 11 11 10 12 12 13 13 12 11 11 11 12 13 14 16 17 17 15 16 17 18 18 18
7 7 5 6 7 11 12 13 12 16 18 16 16 16 14 14 13 14 11 10 9 9 11 11 13 14 13 14 16 16 12 10 13 11 10 10 12 12 13 14 13 13 14 16 15 15 16 16 16 17 17 17 17 17
5 5 5 5 7 12 15 15 13 17 18 16 16 16 17 16 14 12 11 11 11 12 12 13 12 12 13 13 14 12 12 11 12 13 12 11 11 14 14 14 14 14 14 16 18 15 19 17 17 17 17 17 18 18
6 5 5 9 11 14 16 17 16 18 18 18 18 17 18 16 16 14 14 12 13 13 14 13 12 12 14 14 12 11 9 10 11 12 12 13 12 13 14 14 16 15 15 15 16 16 14 16 16 18 20 17 17 17
8 7 10 10 13 15 17 16 17 15 18 19 17 20 22 22 23 21 18 14 14 16 15 14 15 15 15 15 14 13 12 13 13 13 11 12 14 15 16 15 16 15 15 14 16 16 16 16 18 18 19 19 18 19
8 9 11 12 15 17 18 15 17 19 20 18 19 19 17 16 18 19 23 21 19 17 16 16 18 19 17 18 17 15 15 16 15 15 15 15 15 15 15 15 15 15 14 14 16 15 15 15 16 16 19 18 19 21
9 12 14 15 16 19 16 19 16 19 21 20 22 22 24 23 22 24 22 21 18 19 18 19 19 18 19 20 18 17 16 17 17 19 18 19 18 16 15 15 14 14 14 14 17 17 17 17 15 17 19 20 21 20
12 15 15 21 18 20 21 21 23 21 23 24 25 23 24 23 24 26 21 19 22 22 20 20 19 18 19 21 18 17 18 16 17 18 18 18 19 19 18 17 14 14 14 16 16 16 16 18 19 19 19 19 20 21
19 19 18 18 19 19 20 24 22 22 23 24 23 26 28 26 26 22 21 20 20 19 19 17 16 19 18 16 17 18 16 17 17 18 17 17 17 18 19 18 16 14 15 15 16 16 17 18 18 19 19 19 15 18
22 20 17 15 17 18 20 19 19 22 25 24 24 25 24 24 24 19 18 18 17 17 18 18 15 16 16 17 16 16 19 19 16 17 18 19 17 16 15 15 16 14 16 16 17 17 17 17 18 18 19 21 20 19
17 18 19 21 21 21 22 22 23 22 21 19 19 22 21 20 19 17 16 18 19 21 21 21 22 21 20 18 19 19 19 23 23 21 19 17 16 16 17 14 13 11 14 16 16 18 17 17 17 18 19 19 19 21
20 18 18 24 23 22 22 20 20 19 17 18 18 19 18 17 18 18 17 20 24 20 18 19 20 25 24 25 25 25 24 23 20 20 20 17 20 17 22 23 22 22 21 20 13 12 16 17 17 18 19 20 21 25
20 20 21 24 22 21 21 20 20 21 18 18 18 18 18 18 19 21 20 21 20 20 21 23 25 26 24 24 22 20 25 25 22 20 21 19 20 22 21 21 20 22 24 23 22 21 13 14 15 23 23 24 24 24
20 21 22 22 21 22 23 22 22 19 21 22 22 21 19 20 19 21 22 22 22 25 23 23 25 29 25 25 26 25 20 24 25 24 24 21 20 20 19 19 20 21 23 24 23 22 19 17 23 24 24 24 25 23
20 20 20 20 19 22 23 23 23 23 24 23 22 24 21 20 18 18 23 26 23 21 19 25 24 22 25 26 27 26 18 20 22 22 24 22 21 20 19 19 22 24 24 24 24 24 24 23 25 24 23 25 27 28
25 25 25 23 21 20 21 21 20 20 21 22 22 25 26 23 20 20 23 26 23 23 24 24 24 24 24 25 25 25 21 25 23 15 13 12 11 10 12 18 20 22 22 23 24 24 26 26 27 28 27 27 28 29

GFSWCAN_con_lsi_084.txt.gz
Lid_Strength_Index
6 6 6 3 4 4 5 5 6 6 6 7 7 8 8 9 9 11 13 12 12 14 15 14 13 14 14 14 16 14 14 13 12 13 13 13 13 12 13 12 13 13 15 15 14 16 17 9 9 11 8 7 6 6
6 7 6 4 4 5 5 5 6 6 6 7 7 7 8 8 9 10 12 11 10 12 13 12 11 11 11 11 13 12 14 14 12 12 12 12 13 11 12 14 9 14 11 12 11 11 8 8 7 6 6 6 6 6
7 6 4 3 4 5 5 5 6 6 7 7 7 7 7 8 8 10 12 11 10 13 13 13 13 11 10 10 9 14 12 11 11 8 10 13 14 11 13 12 11 10 9 11 10 8 7 7 6 6 6 6 5 4
7 6 5 4 5 5 5 6 6 6 6 6 6 7 7 7 8 9 10 9 10 12 15 14 11 11 11 10 10 9 11 10 9 8 10 12 13 10 12 11 12 10 10 10 10 8 7 7 6 6 6 6 6 5
7 6 5 4 5 5 5 6 6 6 6 6 6 6 6 7 8 9 9 9 9 11 14 13 12 12 12 11 11 10 10 11 10 11 12 13 11 12 11 11 13 10 11 11 11 9 8 7 6 6 6 7 6 5
7 7 5 5 5 5 5 6 6 6 6 6 6 6 6 6 8 9 12 11 9 9 13 15 12 13 12 12 11 11 11 11 10 10 11 11 10 11 14 14 10 9 8 8 9 8 8 6 6 5 6 6 5 6
7 7 5 5 5 5 5 6 6 6 6 6 6 6 6 7 9 11 13 11 9 9 13 16 15 13 13 12 12 12 11 10 10 10 11 11 11 11 13 14 11 9 7 9 9 8 8 6 6 5 5 5 5 7
7 6 5 5 5 5 5 6 6 6 6 6 6 6 7 8 9 11 10 9 10 12 13 16 16 15 13 13 13 11 12 11 10 11 10 12 11 11 15 11 10 10 10 10 9 8 7 6 6 7 6 6 6 7
7 5 5 5 5 5 5 5 5 6 6 7 7 8 8 10 12 11 9 9 9 12 15 16 16 16 12 12 11 12 11 14 10 12 12 11 13 15 12 11 11 11 11 9 7 7 7 7 7 7 7 7 7 7
5 5 5 5 5 5 5 6 6 6 7 8 9 12 14 12 8 9 11 13 13 13 13 15 13 15 13 13 13 13 11 12 14 12 10 13 13 10 10 10 9 9 9 8 9 10 8 8 8 8 7 7 7 7
5 5 5 5 5 6 7 7 7 7 9 11 14 15 11 8 11 13 16 17 16 17 14 13 13 14 12 14 14 12 13 12 15 13 13 14 14 10 10 10 9 8 8 8 7 7 8 8 7 8 9 9 8 8
6 6 5 6 7 7 7 7 8 11 11 12 12 10 11 13 15 17 18 16 17 17 14 14 13 12 12 11 13 12 13 11 15 11 13 15 11 10 10 10 9 8 8 8 8 9 9 8 8 8 8 8 8 9
7 7 7 7 7 7 8 8 9 9 10 11 14 15 15 16 20 20 21 18 17 15 14 13 12 11 11 11 13 13 13 13 10 13 14 11 9 10 10 10 10 8 8 9 9 9 9 9 9 9 10 10 10 11
8 8 8 7 7 7 8 8 8 10 12 15 16 19 18 20 18 18 17 16 14 13 13 10 11 11 10 12 12 13 11 10 13 14 13 10 10 11 10 10 10 10 9 9 9 9 10 10 11 11 11 11 11 12
8 8 7 7 8 8 8 9 10 11 14 16 16 19 19 17 17 16 16 13 12 9 10 11 11 11 11 12 11 11 12 13 12 12 10 9 10 10 10 10 11 10 10 10 10 10 10 10 11 12 12 12 12 12
8 8 9 8 8 8 9 10 11 12 15 16 17 19 17 17 18 16 15 14 11 10 9 10 13 13 13 12 12 13 13 14 11 9 9 9 11 11 10 10 10 10 10 11 11 11 11 11 11 12 14 13 13 13
9 10 8 8 8 9 9 12 12 14 15 16 17 15 16 16 16 15 13 12 10 10 13 12 15 15 12 13 14 11 12 10 8 8 9 10 11 11 11 10 11 10 10 11 12 12 13 12 12 13 14 15 14 14
10 9 8 8 9 10 12 12 13 14 16 15 16 16 14 14 14 14 13 11 10 11 11 13 11 14 14 15 13 10 9 9 9 9 9 9 10 10 11 10 11 11 10 11 12 13 13 14 14 14 15 15 15 15
9 8 8 8 9 11 13 13 14 17 17 16 16 15 14 14 13 12 10 10 10 10 11 11 14 14 13 11 10 10 10 8 9 9 8 8 9 10 11 11 12 11 12 12 13 13 13 13 14 14 15 15 15 15
6 6 7 8 9 13 15 15 13 15 16 16 16 15 15 15 13 12 11 11 11 12 13 13 13 12 11 10 9 9 8 8 9 10 10 10 9 11 11 11 11 11 12 12 13 13 14 14 15 15 15 15 15 15
7 7 8 10 13 14 15 16 15 17 17 17 17 15 16 15 15 14 14 12 13 14 14 12 11 11 11 10 8 8 8 8 9 9 10 11 10 10 11 11 12 13 13 12 12 13 12 13 13 14 14 14 14 15
10 8 11 11 14 15 16 15 15 15 16 17 16 17 18 18 18 17 16 14 14 13 12 13 12 11 11 11 10 10 9 9 10 11 10 11 12 12 12 12 13 12 12 12 12 12 12 12 13 14 15 14 14 15
8 10 12 12 16 16 18 15 17 18 18 17 17 18 18 18 19 18 19 17 16 14 14 14 14 14 12 13 13 12 13 13 11 12 12 13 13 13 13 13 13 13 13 12 12 13 12 12 13 12 13 14 15 16
9 12 14 16 16 19 16 18 17 18 18 18 18 19 20 20 20 20 19 18 16 16 15 15 15 13 14 16 14 13 12 13 13 14 14 14 13 12 12 12 12 12 12 12 12 12 12 13 12 13 14 14 15 15
12 16 16 20 18 19 20 20 20 20 21 21 23 23 22 21 21 21 20 17 17 16 15 15 14 13 13 13 14 15 15 13 13 13 13 13 13 13 12 13 12 12 12 12 13 13 13 13 13 14 14 15 15 15
17 18 17 18 18 19 19 20 21 21 21 23 22 24 23 21 23 20 18 16 15 15 15 15 14 14 14 14 13 13 13 14 13 12 12 13 13 12 12 13 13 11 12 12 12 12 12 13 13 14 14 14 13 12
20 20 17 16 17 19 19 19 19 19 22 21 22 23 22 23 22 18 15 15 14 14 15 14 13 13 12 12 13 13 13 14 12 12 14 14 13 13 12 12 12 11 12 12 12 12 12 13 13 14 14 14 15 15
18 17 18 19 20 20 21 21 21 20 19 19 19 23 21 19 17 15 15 16 16 17 17 18 18 16 14 14 14 15 14 17 17 16 14 14 14 15 16 15 15 13 12 12 13 13 13 13 13 13 14 14 14 15
19 17 17 21 23 21 21 19 19 18 17 18 19 19 18 16 15 16 16 18 20 19 16 16 15 18 17 17 18 18 19 17 16 17 17 15 14 14 18 17 17 16 16 16 13 11 13 14 14 14 14 15 15 18
20 19 20 24 21 20 20 20 21 21 19 18 17 17 16 15 17 19 19 19 18 19 20 21 20 18 17 17 17 17 19 20 19 17 17 17 16 18 18 17 17 16 17 17 17 16 13 12 12 16 18 18 18 18
20 21 21 21 22 23 24 23 22 19 21 20 22 20 18 19 18 19 20 21 21 21 19 19 20 22 20 20 20 20 18 21 23 22 22 21 20 20 19 18 18 17 18 18 18 18 17 15 15 17 17 18 19 17
20 23 21 22 22 24 25 23 23 23 23 22 21 23 20 19 19 17 19 21 20 19 18 21 21 19 21 21 22 22 18 19 21 22 23 21 20 19 18 17 17 18 18 19 18 18 19 17 15 17 17 18 19 20
27 27 26 22 22 21 22 22 23 23 23 22 21 22 21 21 20 19 21 23 20 19 20 20 21 22 23 24 24 23 20 22 23 15 14 13 12 11 11 12 15 17 18 18 17 18 19 20 19 19 19 19 21 22

GFSWCAN_con_lsi_087.txt.gz
Lid_Strength_Index
7 7 7 7 6 4 4 5 6 6 6 7 7 7 8 9 9 9 11 10 10 12 13 13 13 14 14 13 14 13 13 13 13 15 14 12 12 11 12 11 12 13 14 15 14 16 16 7 8 11 8 6 6 6
7 7 7 7 6 5 5 5 6 6 6 7 7 8 8 8 9 9 12 10 9 11 13 12 11 11 11 11 12 12 13 14 12 13 12 11 12 10 11 13 9 13 11 13 11 11 7 6 6 5 5 6 5 6
7 8 8 6 6 6 5 5 6 6 6 7 7 7 8 8 8 9 10 10 9 11 12 12 12 11 9 10 9 13 12 12 12 10 11 11 14 10 13 11 11 9 8 11 10 8 7 6 6 5 5 5 5 4
8 8 7 6 6 5 5 6 6 6 6 6 7 7 8 8 8 8 9 8 9 10 13 14 11 12 10 10 9 9 11 10 10 10 12 12 13 9 11 10 11 9 9 10 10 8 7 6 6 5 5 5 5 5
8 8 7 6 6 5 5 6 6 6 6 6 7 7 7 7 8 8 9 9 8 10 13 14 12 12 11 11 11 10 10 12 12 13 13 13 11 11 10 11 12 9 10 11 11 7 8 7 6 5 6 6 5 6
8 7 6 6 6 5 6 6 6 6 6 7 7 7 7 7 7 8 12 9 8 8 12 15 12 13 12 11 11 11 11 12 11 13 13 11 9 11 14 13 10 9 8 8 10 8 8 7 5 4 5 5 5 4
8 7 7 7 5 5 6 6 6 6 6 7 6 6 7 8 9 11 13 10 8 8 13 15 15 13 12 11 11 11 11 11 12 12 13 11 11 10 12 14 10 9 8 8 7 8 9 6 7 5 5 4 4 5
8 7 7 6 5 6 6 6 6 6 6 6 6 6 8 8 9 11 10 9 9 12 12 16 15 14 12 12 13 11 13 12 12 12 11 12 11 11 14 11 10 9 9 9 8 8 7 7 6 6 6 5 5 6
7 7 7 5 5 6 6 6 6 6 6 6 7 8 8 10 12 11 9 9 9 11 14 14 15 15 12 12 12 12 12 15 11 14 13 11 12 14 11 10 10 9 9 10 8 7 6 7 6 6 6 6 6 6
7 7 7 6 6 6 6 6 6 6 7 7 9 11 14 11 9 9 11 13 13 14 13 14 13 14 12 12 13 13 12 14 15 13 10 13 12 9 9 9 9 9 9 8 9 9 9 10 7 7 7 6 6 6
7 7 6 6 6 6 6 6 6 7 8 10 13 14 11 9 11 13 16 17 16 17 14 13 13 14 11 13 13 12 13 13 16 13 13 13 12 10 9 9 9 8 7 8 7 7 7 8 8 7 8 7 7 7
7 7 6 6 6 6 6 7 7 10 11 11 12 11 11 14 15 17 18 17 17 17 15 14 13 12 12 10 13 12 14 13 16 11 13 14 9 9 10 10 9 8 8 7 7 7 8 8 8 7 8 8 8 8
6 6 6 6 6 6 7 7 8 9 9 10 13 15 15 16 19 20 21 19 17 15 14 14 14 12 12 11 13 13 14 14 11 13 13 10 9 9 10 10 10 9 8 8 8 8 8 9 9 9 9 9 9 10
6 6 6 7 7 7 8 8 8 9 10 13 15 19 17 20 19 17 16 15 13 13 13 11 12 12 11 13 12 14 12 11 14 14 13 9 9 9 9 9 9 10 9 9 9 9 10 10 10 10 10 10 10 11
6 7 7 8 8 8 8 9 10 10 12 15 15 17 19 17 16 15 15 14 12 11 11 12 12 12 12 13 12 12 14 14 12 12 9 8 9 9 9 9 10 10 10 10 10 10 10 10 11 12 12 11 11 11
7 8 9 8 8 8 9 9 10 11 14 16 17 18 17 16 18 16 14 14 10 10 10 11 13 14 14 13 14 14 14 14 11 9 8 8 8 9 9 10 10 10 10 11 11 11 11 10 11 12 13 13 13 12
9 11 9 9 9 9 9 11 12 15 15 16 17 16 15 14 15 15 13 12 10 11 14 13 15 15 12 14 14 11 12 9 8 8 8 8 8 9 9 10 10 10 10 10 10 11 12 12 12 12 13 14 13 13
11 10 9 9 9 11 12 13 15 15 16 16 16 16 14 14 14 13 12 11 10 11 11 13 12 15 15 15 13 10 9 9 8 8 7 7 8 8 9 9 10 10 10 10 10 11 12 12 13 13 13 14 14 14
10 10 9 9 10 12 15 15 14 17 17 16 15 14 14 14 13 12 11 10 10 9 11 13 14 15 13 11 10 9 8 8 8 7 7 7 7 8 9 10 10 10 11 11 11 11 11 12 12 13 14 14 14 14
8 9 9 10 10 13 15 15 13 15 16 16 15 15 15 15 13 12 11 11 11 11 13 14 14 12 11 9 9 8 7 7 8 8 8 8 7 9 9 9 10 10 10 10 11 10 12 13 13 13 14 14 15 14
9 9 10 11 13 14 15 15 16 16 16 17 16 15 17 14 14 13 13 12 12 13 13 12 11 10 9 9 8 8 8 8 8 7 8 8 8 9 9 9 10 11 12 11 11 11 10 12 11 12 12 13 13 14
9 8 11 11 13 14 15 15 15 15 16 17 16 15 17 17 16 15 15 14 13 12 11 11 11 10 10 10 10 10 9 8 7 7 8 9 10 10 11 11 12 11 11 11 11 11 11 11 11 12 13 13 12 13
9 10 12 12 15 16 18 15 16 17 17 17 16 17 17 17 18 17 17 14 13 12 12 12 12 13 12 11 12 12 11 11 9 8 8 9 10 12 12 12 12 12 11 10 10 11 11 10 11 11 12 12 13 14
10 13 15 16 16 19 16 18 17 17 16 17 17 18 18 18 19 18 18 15 14 14 14 14 13 12 13 14 13 11 10 10 10 10 11 12 12 12 12 11 11 11 11 11 11 11 11 11 10 11 11 12 12 13
13 16 15 19 17 18 19 18 18 17 18 19 19 20 20 19 19 19 18 14 14 14 13 13 13 12 11 10 11 12 12 10 10 11 11 11 11 12 11 11 11 11 10 10 11 11 11 11 11 12 12 12 12 12
17 18 17 17 18 17 18 19 19 19 19 20 19 21 21 19 20 18 15 13 13 12 12 12 12 12 12 11 11 11 11 12 11 11 10 11 11 10 10 11 11 11 11 11 11 11 10 11 11 13 12 12 11 11
18 18 17 16 16 17 18 17 17 17 19 19 19 21 20 20 18 15 13 13 13 13 14 13 11 10 10 10 11 12 12 12 12 12 13 12 11 11 11 11 12 11 12 12 12 12 12 11 12 12 12 12 12 13
16 16 18 17 18 17 18 18 18 18 17 17 18 20 20 17 16 14 14 15 15 15 15 15 15 14 13 13 13 14 12 14 13 13 12 12 12 13 15 14 14 13 13 13 12 12 12 12 12 12 13 13 13 13
16 16 16 20 19 18 17 17 16 16 16 16 16 17 17 15 14 14 15 16 17 15 13 13 13 14 13 15 15 15 14 14 13 14 14 13 12 14 15 15 15 15 15 15 13 12 12 13 13 13 13 13 13 15
17 15 17 19 19 17 16 18 17 18 17 16 17 16 16 15 16 17 17 16 14 14 16 16 17 15 15 15 15 14 15 16 16 15 15 15 15 16 17 17 17 16 16 16 16 15 13 13 12 14 14 16 16 16
17 16 17 17 18 19 20 20 19 18 18 18 19 17 16 17 16 17 17 17 17 17 15 15 16 17 16 16 16 16 15 18 21 21 20 19 19 19 18 17 17 16 16 17 17 17 16 16 15 14 14 16 17 15
17 18 17 19 19 20 21 19 18 17 19 17 18 19 17 16 16 15 17 17 16 14 14 16 16 15 17 17 18 18 16 17 19 19 21 20 19 18 17 16 16 16 16 16 17 17 17 18 17 15 15 16 17 17
20 20 20 19 19 19 19 18 18 19 18 18 18 19 19 19 18 15 18 19 15 15 15 16 16 17 19 20 20 19 18 19 20 16 14 13 13 12 12 12 12 14 16 17 17 17 18 18 19 18 18 18 18 19

GFSWCAN_con_lsi_090.txt.gz
Lid_Strength_Index
2 3 4 6 6 6 5 5 4 5 6 6 6 7 7 7 8 9 12 10 11 14 15 13 13 15 15 15 17 15 16 15 15 16 16 16 15 13 14 12 13 14 15 15 15 17 18 9 9 12 9 8 7 8
3 3 6 6 7 6 6 5 5 6 6 6 7 7 7 8 8 8 12 10 9 12 14 12 12 11 12 12 14 14 15 15 15 16 16 17 17 15 14 16 11 14 12 14 13 13 8 8 8 7 7 8 7 7
3 6 7 7 7 6 6 4 5 6 7 7 7 7 8 8 8 9 11 10 10 13 14 13 13 12 10 11 10 15 14 13 14 13 16 17 18 14 17 15 13 11 9 11 11 9 8 7 7 7 7 7 7 6
6 6 7 7 8 7 6 5 6 6 6 6 7 7 7 8 8 8 10 9 10 11 15 16 11 13 12 11 11 11 12 12 12 13 15 15 16 12 14 13 14 12 12 11 11 9 8 7 7 7 7 7 7 7
6 7 7 8 8 7 6 5 6 6 6 7 7 7 7 7 8 8 9 9 9 11 16 16 14 13 12 12 12 11 12 12 13 14 16 17 13 14 13 12 14 12 13 14 14 10 9 9 8 6 6 6 6 7
7 7 8 8 7 6 6 6 6 7 7 7 7 7 7 7 7 9 13 10 9 10 14 18 15 15 14 12 12 12 12 12 13 13 14 13 12 13 15 16 11 11 10 10 11 10 9 9 7 6 7 6 6 6
7 8 8 7 7 6 6 6 7 6 6 7 7 7 8 8 10 12 13 11 9 10 14 18 18 16 14 13 13 13 12 12 12 13 14 14 13 14 14 16 11 10 10 10 10 10 10 8 9 8 6 6 6 7
7 8 8 7 7 6 6 6 6 6 7 7 7 8 8 8 9 12 11 9 9 13 13 18 19 18 14 14 15 12 14 13 13 13 13 14 13 14 16 12 10 9 9 9 10 10 9 8 7 7 6 6 7 8
7 8 8 7 6 6 6 6 6 7 7 7 8 7 9 10 12 12 9 9 10 13 17 17 20 21 14 13 13 13 13 16 12 15 14 13 14 16 13 11 10 9 10 9 9 9 8 8 8 7 7 7 8 8
8 8 7 7 6 6 6 7 7 7 7 8 9 12 14 12 9 9 11 14 15 15 14 16 15 18 15 14 15 14 13 15 17 14 12 15 15 12 10 8 9 9 9 9 11 11 10 11 9 8 8 7 7 8
8 7 8 7 6 6 6 7 7 7 8 11 13 14 11 9 12 14 17 17 17 19 16 16 15 17 14 16 15 13 15 14 18 15 15 15 15 13 9 9 9 9 8 9 9 8 8 8 8 8 8 8 8 8
8 8 7 6 6 7 7 7 7 9 11 12 12 11 11 14 16 17 18 18 19 19 17 17 17 14 15 13 14 14 15 14 18 13 15 16 14 10 10 10 10 8 8 8 7 8 8 8 8 7 8 8 8 8
8 7 6 6 7 7 7 7 8 9 10 11 13 16 15 17 19 20 22 20 19 17 17 17 16 14 14 13 14 14 16 16 12 15 16 15 11 10 10 9 9 8 8 8 8 8 8 9 9 9 10 10 10 11
8 7 6 6 6 7 7 8 8 9 11 14 16 20 17 20 18 18 17 17 16 16 16 14 15 15 13 15 14 15 15 13 16 16 15 12 12 11 9 8 9 9 9 9 9 9 9 9 10 10 10 10 10 11
7 7 6 7 7 8 8 8 9 11 13 16 15 18 18 17 17 16 16 16 15 14 13 15 14 14 15 15 14 14 15 17 16 16 12 11 12 12 11 9 10 10 10 10 10 10 10 10 11 12 12 12 12 12
6 7 7 7 8 8 9 9 11 12 15 16 17 19 17 18 19 17 15 16 13 13 14 15 17 16 16 15 16 16 16 19 16 11 10 11 12 12 11 9 9 10 11 11 12 12 12 12 12 13 13 14 14 14
7 9 8 8 9 8 9 12 13 15 16 16 18 16 16 16 17 16 14 14 12 15 17 16 18 20 15 16 16 15 15 14 10 14 13 10 10 12 12 11 9 9 10 11 10 10 11 12 13 13 14 15 15 15
10 9 9 9 9 10 13 14 15 16 18 17 18 17 15 15 15 14 13 13 13 15 16 17 16 17 16 17 18 15 14 10 13 13 12 11 11 11 11 11 9 9 9 10 10 11 12 13 13 13 14 15 16 16
10 9 9 9 10 13 15 16 15 19 19 17 16 15 15 15 15 15 13 12 13 13 16 16 18 17 17 16 16 14 15 14 13 12 11 10 10 10 10 12 12 12 10 10 10 10 11 11 11 12 14 14 15 15
9 9 9 10 11 15 16 17 14 16 18 17 16 16 16 16 15 14 13 14 15 16 18 18 16 15 15 14 14 14 13 11 12 12 12 11 11 15 13 13 12 13 13 13 13 10 13 12 12 12 13 14 15 15
10 11 11 13 15 16 16 16 18 17 17 17 16 16 17 15 15 15 15 14 17 17 16 15 14 13 13 14 12 12 11 10 11 11 12 14 12 14 13 14 15 13 14 14 14 13 11 12 13 14 15 14 14 14
11 10 13 13 15 16 17 16 17 16 17 17 18 17 18 18 17 17 16 15 16 15 15 14 15 15 15 14 13 13 12 12 11 11 10 11 13 14 14 15 15 17 16 14 15 15 14 14 14 14 15 15 13 15
9 11 13 13 16 16 18 15 18 18 20 19 21 22 20 19 21 19 21 18 16 16 16 17 18 18 17 16 15 14 14 15 14 13 12 12 12 14 15 15 15 17 16 14 15 16 15 11 12 13 14 14 14 15
9 13 15 16 16 19 17 19 17 19 20 20 22 24 22 23 22 22 22 19 18 18 18 19 19 18 18 19 18 16 15 14 15 16 16 16 16 14 13 14 13 14 13 14 15 15 15 14 12 15 15 15 16 16
14 16 15 19 18 18 20 20 20 20 23 22 24 25 24 23 23 23 22 19 19 19 19 19 18 17 18 17 17 17 17 16 16 16 16 15 17 17 17 15 13 13 14 16 15 15 15 16 16 17 17 17 17 17
18 18 18 18 19 19 19 21 21 21 22 24 24 24 23 23 24 23 20 19 19 19 19 20 19 18 17 17 17 17 17 17 16 16 16 17 17 17 17 16 17 15 14 14 16 16 15 15 16 17 17 16 12 16
19 19 18 17 18 19 20 19 19 20 23 23 23 23 23 25 23 19 18 19 18 19 19 19 18 17 17 17 17 18 18 19 18 18 18 17 16 15 15 16 16 15 15 16 16 16 15 15 16 17 16 17 18 18
18 17 19 19 19 19 20 21 21 22 21 19 19 23 22 21 20 18 19 20 20 21 20 20 21 20 20 20 21 20 20 20 20 20 18 17 17 18 18 18 17 12 16 17 17 18 17 14 14 15 17 17 17 19
17 16 16 20 20 20 20 20 19 19 18 19 20 21 20 18 19 19 19 21 22 21 20 20 20 22 21 22 21 21 21 20 18 18 18 18 18 19 21 21 21 21 21 20 14 13 16 16 16 16 16 16 18 21
18 16 19 22 21 20 21 21 21 22 20 19 19 19 19 19 20 21 21 22 21 21 23 24 24 23 23 22 22 22 23 23 22 20 21 21 21 22 23 23 22 22 22 22 20 19 15 18 17 19 19 18 20 22
17 18 20 20 22 23 23 23 22 20 21 23 23 21 20 22 20 21 22 22 23 24 23 23 23 25 23 23 24 24 23 24 26 25 25 25 24 23 22 22 21 22 21 19 19 19 19 19 21 21 19 16 17 15
19 22 21 22 24 24 23 23 23 22 23 22 22 23 22 21 21 21 22 23 23 22 18 22 23 21 23 24 24 24 17 23 24 24 25 24 23 21 20 19 19 19 19 18 18 18 19 19 19 20 19 17 18 20
24 24 23 22 24 23 23 22 23 24 24 24 24 25 25 23 22 21 23 24 22 21 21 22 23 23 23 25 25 24 20 25 24 14 14 13 12 12 12 14 15 17 16 17 18 21 21 21 20 20 19 19 18 19

GFSWCAN_con_lsi_093.txt.gz
Lid_Strength_Index
1 0 1 1 1 3 3 4 4 4 3 4 5 5 5 6 7 11 13 12 13 17 17 15 14 17 17 17 19 17 17 16 17 20 21 21 19 17 17 14 13 14 15 15 14 17 18 8 9 12 10 8 8 8
1 1 1 1 2 3 4 4 4 4 4 5 5 6 5 6 7 10 14 12 11 15 16 13 13 13 13 14 16 16 17 17 16 18 20 21 20 21 18 19 11 15 12 14 13 13 9 7 8 8 8 8 8 7
1 1 1 1 3 5 6 5 5 4 5 5 6 6 6 7 7 10 13 12 12 15 15 16 16 14 12 12 12 17 16 14 15 15 18 19 20 19 21 19 15 13 11 12 12 9 8 9 8 8 7 8 7 6
1 2 1 2 6 6 6 6 4 5 5 5 6 6 7 7 7 9 12 11 12 14 18 18 13 15 13 12 12 12 13 13 13 14 19 20 18 16 18 15 15 13 13 13 13 12 9 8 9 9 7 6 6 7
2 3 2 3 6 6 7 6 5 5 6 6 7 7 7 7 7 9 11 11 10 13 18 18 16 15 14 13 13 13 13 15 16 18 19 19 16 17 16 16 16 13 14 15 16 12 11 11 9 7 8 7 6 7
4 3 3 6 6 7 7 6 5 6 6 7 7 7 7 7 8 11 15 12 10 12 17 20 16 16 14 14 14 14 14 14 15 17 16 14 13 17 19 19 14 12 11 11 13 12 11 9 9 7 7 7 6 6
4 3 5 6 6 7 7 5 6 6 7 7 7 7 8 9 11 13 14 12 10 11 16 20 20 17 14 15 13 13 12 13 14 15 16 14 14 17 20 19 14 11 10 9 9 10 12 11 10 7 6 6 5 6
4 5 6 6 7 7 6 6 6 6 7 7 8 8 8 8 10 13 11 10 11 14 14 21 20 20 16 15 16 13 14 14 14 16 13 15 15 16 18 15 13 11 9 9 9 10 11 11 9 7 6 5 6 7
4 6 6 7 7 7 6 6 6 7 7 7 7 8 10 11 14 13 9 10 12 14 18 20 22 24 16 14 14 14 14 17 14 17 15 14 16 18 16 14 11 9 9 9 9 10 10 10 10 9 7 7 7 8
6 6 7 7 7 6 6 7 7 7 8 8 10 12 15 13 9 10 13 16 17 16 16 18 17 20 16 15 15 15 15 16 22 16 13 16 17 14 13 12 10 10 9 8 10 12 11 11 10 9 8 7 7 7
6 7 7 7 7 6 7 7 7 8 8 12 14 15 12 9 13 14 18 19 19 20 17 18 18 18 14 16 16 14 16 16 19 17 18 16 17 16 12 11 10 9 8 8 8 9 10 9 9 8 7 8 8 8
7 7 7 7 7 7 7 7 8 10 12 12 12 11 12 14 16 17 18 19 20 20 18 19 19 18 16 13 15 15 17 16 19 14 18 18 16 14 11 11 10 9 8 8 8 8 8 8 8 7 8 9 9 9
7 7 7 8 6 7 7 8 8 9 10 11 14 16 16 17 20 19 22 21 21 18 18 19 18 16 15 14 15 16 17 19 14 16 17 17 14 11 11 10 10 9 8 8 8 8 8 8 8 9 9 9 10 10
7 8 8 6 7 7 8 8 8 9 11 14 17 20 18 20 18 18 18 18 17 17 17 17 18 17 15 17 15 21 15 14 17 19 20 17 14 13 13 10 10 10 9 8 8 9 9 9 9 9 9 9 10 11
9 8 7 7 7 8 8 8 8 12 13 16 15 19 19 18 18 17 16 16 16 15 16 18 18 15 17 16 16 16 17 20 18 19 18 16 13 13 13 10 10 10 10 10 9 9 9 10 11 12 12 12 13 13
8 7 7 7 8 8 8 9 11 12 16 16 17 19 18 19 19 17 17 16 14 15 16 17 17 18 18 17 17 18 18 21 19 18 14 12 13 13 13 11 10 10 10 10 11 12 12 13 13 13 14 14 14 14
7 8 7 8 8 8 8 12 13 16 16 17 19 16 17 17 18 17 15 14 14 17 21 20 23 22 17 18 18 15 18 18 12 17 15 11 11 13 14 13 10 9 10 10 10 10 10 11 12 13 14 14 15 15
9 8 8 8 9 10 14 14 16 16 19 19 19 18 16 16 16 15 14 14 15 19 19 21 18 18 18 19 19 18 18 11 14 15 14 13 13 13 13 13 10 10 10 10 10 10 10 11 11 12 14 15 16 16
9 9 9 8 10 14 16 16 16 20 19 18 17 16 16 16 15 14 14 13 15 16 17 20 23 24 19 19 18 14 17 13 14 13 13 12 12 12 12 14 14 13 11 10 10 10 10 9 10 10 11 12 14 15
8 8 8 9 11 15 17 17 15 18 19 18 16 17 17 17 15 15 14 16 17 19 21 19 19 18 17 16 17 16 16 14 13 14 13 12 12 16 14 15 13 14 13 14 15 11 13 12 12 12 12 12 14 14
11 11 11 13 15 16 17 18 19 18 18 19 17 17 18 16 16 16 16 15 19 22 21 18 17 16 16 16 14 13 13 13 13 13 13 16 13 15 16 16 17 14 14 14 15 14 12 13 13 14 15 13 13 14
12 11 14 13 16 17 19 18 18 17 18 18 18 17 18 18 18 18 17 16 17 19 18 17 19 18 18 16 15 16 14 13 13 13 11 11 14 15 16 16 17 19 18 17 17 16 15 14 13 14 15 14 13 14
11 12 14 15 17 18 20 17 19 18 19 20 20 21 20 19 20 19 21 23 21 20 20 19 20 21 19 19 17 16 16 17 16 15 14 13 13 16 17 17 17 19 19 17 16 16 16 13 13 13 15 15 15 15
11 15 17 18 18 20 18 20 18 19 19 20 22 22 21 23 21 26 26 24 22 21 21 21 21 20 21 22 20 19 17 17 17 18 19 17 18 15 15 15 14 15 15 16 17 16 17 15 12 15 16 17 17 17
16 18 17 20 19 19 20 21 20 20 22 21 23 26 25 25 29 29 27 23 24 23 23 22 21 21 22 22 20 19 19 18 18 18 18 18 19 19 19 17 14 14 16 18 16 15 16 16 16 16 16 17 17 17
19 20 21 21 21 20 20 22 22 22 22 25 26 26 29 28 28 26 23 23 24 24 23 23 22 21 20 19 19 20 19 20 18 18 19 20 19 19 21 18 18 16 15 15 17 16 16 16 16 16 16 16 12 15
19 21 19 17 18 18 19 19 18 20 25 25 26 27 27 27 26 22 21 22 21 23 24 24 21 19 19 19 19 20 21 23 21 20 20 21 20 19 18 18 18 16 16 17 17 17 17 16 16 16 16 16 18 17
17 18 19 19 19 19 20 21 22 23 23 22 21 26 23 22 20 20 21 22 23 24 24 24 24 23 22 23 24 23 23 24 25 24 20 20 21 21 21 20 19 13 16 17 17 18 19 18 16 14 15 16 16 18
19 17 17 20 20 21 22 22 22 21 19 20 21 22 22 20 22 22 21 22 25 23 22 23 23 26 25 25 25 26 26 24 20 20 20 20 21 20 23 23 24 24 23 22 15 14 16 16 16 16 16 16 15 16
19 17 19 22 22 22 23 23 24 23 21 21 20 21 20 21 22 24 23 25 24 24 25 26 27 26 25 24 25 24 27 27 25 22 22 23 22 24 25 23 21 21 22 22 20 20 15 18 19 22 22 21 20 19
17 18 21 21 23 24 25 24 24 21 23 24 25 22 22 24 22 24 24 25 27 27 25 26 26 29 25 26 26 25 23 26 27 26 26 26 26 25 23 22 21 22 23 22 20 20 20 20 22 22 22 23 22 16
19 22 20 22 24 24 25 25 25 25 24 24 24 25 23 23 22 22 24 25 25 24 20 25 24 23 26 26 26 26 18 25 26 26 26 24 22 21 20 19 19 20 21 19 19 18 19 20 20 21 21 22 23 21
22 22 23 23 24 24 23 23 24 25 25 26 25 26 26 23 21 21 24 26 23 22 23 24 26 26 26 26 26 26 21 26 23 15 13 13 12 11 12 16 16 16 17 18 19 23 25 24 23 23 23 23 22 21

GFSWCAN_con_lsi_096.txt.gz
Lid_Strength_Index
4 4 2 1 1 2 3 5 5 5 5 3 3 3 4 4 6 10 12 11 12 16 16 15 15 17 17 18 19 17 17 17 17 20 22 22 21 19 20 16 15 14 16 16 14 17 18 9 9 13 11 10 8 8
4 4 3 1 1 2 3 4 6 5 4 4 4 4 4 4 6 9 13 11 12 15 16 13 14 14 14 15 16 17 17 18 17 19 21 22 20 23 21 22 15 14 12 14 13 14 9 8 9 8 8 8 8 9
4 4 3 2 2 2 3 5 5 5 5 3 4 4 4 4 6 9 12 11 13 15 16 16 16 14 13 13 13 17 17 15 16 16 20 20 21 19 22 21 18 15 12 13 12 10 9 9 7 7 8 8 7 7
5 4 3 2 3 2 3 4 6 5 5 3 4 4 4 5 6 8 11 11 13 15 18 18 13 15 13 13 13 13 14 14 14 16 20 21 19 17 19 18 18 15 14 14 14 13 11 10 10 8 8 8 7 7
4 3 3 3 3 3 3 5 5 6 3 4 4 4 5 6 7 9 10 10 11 13 18 18 16 15 14 14 14 13 14 15 17 19 20 20 17 18 18 17 18 16 15 16 16 13 13 12 10 9 8 8 7 7
3 3 3 3 4 3 4 4 5 3 4 5 5 5 6 7 8 11 14 13 11 13 17 20 17 16 15 14 14 15 14 15 16 18 18 17 15 18 21 21 16 15 13 12 13 11 11 11 10 9 8 7 6 6
3 3 3 3 4 4 4 5 4 4 5 5 6 6 7 8 10 13 15 13 10 12 17 21 20 16 15 15 14 14 13 15 16 17 18 17 17 18 21 20 15 14 13 10 9 9 11 11 12 10 9 6 5 5
3 3 2 4 4 4 4 5 5 5 5 6 6 7 7 8 10 13 12 10 11 14 15 22 21 20 16 16 16 13 15 14 15 17 15 16 16 17 19 16 15 13 10 10 9 10 10 11 10 9 8 6 6 6
3 3 2 4 4 4 5 5 5 5 6 7 7 8 10 12 14 13 9 11 13 15 19 21 23 25 17 14 15 14 14 20 15 19 16 16 18 19 17 16 14 11 11 10 9 9 11 11 11 9 9 7 7 7
3 2 4 5 5 5 6 5 5 6 7 8 10 13 16 14 10 10 14 16 17 17 17 19 18 20 16 15 16 18 17 19 24 17 15 17 18 15 14 13 13 12 10 9 10 11 11 12 10 8 8 7 7 6
2 4 6 6 5 6 5 6 7 7 8 12 14 16 13 10 13 16 20 19 20 20 18 18 19 19 15 19 20 17 21 19 20 19 19 17 20 17 14 13 11 11 10 9 8 8 8 9 8 8 7 8 8 8
4 6 6 6 6 6 6 7 8 10 11 12 13 12 12 15 18 20 22 21 21 20 19 19 19 18 17 15 19 16 20 19 20 16 18 19 17 18 14 12 11 11 10 9 8 8 8 8 8 8 8 9 9 9
6 7 7 8 7 7 7 8 8 9 10 11 14 16 15 18 23 22 22 23 24 19 19 19 19 17 18 16 16 17 19 22 16 18 18 19 17 14 15 12 12 10 9 9 8 8 8 8 8 8 9 9 9 9
6 7 7 7 7 7 7 8 8 8 11 14 17 19 19 21 20 19 19 20 19 18 17 18 18 18 17 19 16 21 17 16 19 20 21 18 15 14 14 11 10 11 10 10 9 8 8 9 9 9 9 9 9 10
6 7 7 6 7 7 8 8 8 11 13 15 16 21 20 19 18 19 17 17 18 15 17 18 19 18 21 21 19 17 18 22 20 21 19 17 15 15 14 12 11 11 11 11 10 9 9 9 10 11 12 13 13 12
7 7 7 7 8 8 8 9 11 12 15 16 19 20 18 19 18 17 17 17 16 16 18 18 21 23 22 21 22 22 22 24 21 20 18 16 15 15 14 12 10 11 11 11 11 13 13 13 13 13 13 14 14 14
7 8 7 7 8 8 9 12 13 15 16 19 20 17 18 17 18 17 15 16 15 18 22 22 24 24 21 24 22 19 21 20 19 17 18 14 14 15 15 14 11 10 11 11 11 11 11 10 11 12 13 13 14 14
9 7 7 8 9 11 14 14 16 17 19 19 19 18 16 16 16 15 15 14 16 19 19 22 19 20 24 23 21 19 17 16 16 17 16 14 15 15 14 14 11 11 11 11 11 10 11 11 10 10 10 12 13 14
8 8 8 8 10 14 16 16 16 22 20 18 17 17 16 16 15 15 14 15 16 16 19 23 24 24 20 19 20 18 15 13 13 15 15 14 14 14 14 16 15 12 11 11 12 12 10 10 9 9 10 11 11 11
8 8 8 9 11 15 17 17 16 18 19 18 17 18 17 17 15 15 15 16 17 20 22 22 20 18 18 17 18 17 16 15 15 15 15 14 14 18 15 15 14 14 14 15 16 12 14 13 12 12 13 12 12 12
10 11 11 13 15 16 17 18 19 18 18 19 18 17 18 16 16 16 16 16 20 24 22 19 18 17 17 17 15 15 15 15 15 14 14 17 15 16 17 18 19 15 15 16 16 15 13 14 14 15 16 13 12 13
12 11 14 14 16 17 19 18 19 18 19 19 18 17 18 18 18 18 18 17 19 20 19 18 19 18 18 17 16 18 15 15 15 14 13 13 16 17 17 17 18 19 19 19 18 17 16 16 15 15 16 14 13 14
11 13 15 15 18 18 20 17 20 19 20 20 19 20 20 20 20 19 18 18 20 21 20 20 21 23 20 21 18 18 17 18 17 16 15 15 15 17 18 17 17 20 20 18 18 17 18 13 14 15 16 15 16 16
11 16 17 18 19 21 19 21 19 19 19 19 21 22 22 21 20 23 24 24 22 22 21 22 22 22 22 23 22 21 20 19 19 20 21 19 19 17 15 15 15 17 17 17 18 18 18 17 14 16 17 17 17 17
15 18 17 20 19 20 21 21 20 20 21 21 22 23 24 23 26 25 25 23 25 24 24 24 23 23 23 25 22 21 21 20 20 20 20 20 20 20 20 19 16 16 17 19 17 17 18 18 17 17 17 17 17 16
20 20 19 21 21 20 20 21 21 21 21 22 23 24 25 26 27 24 23 23 24 25 25 22 22 23 22 21 21 21 20 22 20 19 20 21 20 20 23 20 20 18 17 17 18 18 17 18 18 18 17 16 13 15
20 22 21 18 20 20 20 19 19 19 21 23 24 24 24 25 24 22 22 24 23 25 26 25 23 21 20 21 21 22 23 26 23 22 22 23 23 22 22 21 21 18 18 19 19 18 19 18 17 17 17 16 18 18
19 20 21 21 21 20 20 20 20 19 20 21 21 24 22 21 21 21 23 24 25 27 25 25 25 24 23 24 26 24 25 28 27 25 23 22 24 25 25 24 22 14 20 21 20 21 20 20 18 18 18 16 15 17
19 18 17 20 19 19 20 19 20 20 19 19 21 22 22 21 23 23 23 24 26 22 22 22 24 28 26 27 27 28 28 26 22 22 22 23 24 23 26 26 26 25 25 24 16 14 17 16 15 15 15 17 17 17
19 17 18 20 20 21 22 22 21 22 21 21 21 22 22 22 24 25 24 25 24 23 27 28 29 27 26 25 25 25 28 30 27 23 23 24 23 25 27 26 24 23 25 24 22 21 15 18 19 23 22 22 22 21
17 17 20 21 22 23 24 24 23 22 23 24 24 22 23 24 22 24 26 27 28 27 25 27 28 31 26 27 27 26 24 27 29 28 28 27 28 27 24 23 22 23 24 23 22 20 20 21 24 23 22 23 23 20
18 20 20 22 23 25 25 25 26 25 24 24 24 25 23 23 22 24 26 27 27 25 22 26 25 24 27 28 29 28 19 27 27 27 27 26 24 22 21 20 21 23 23 21 21 22 23 24 23 22 22 23 23 24
21 21 22 23 24 25 23 23 24 25 25 26 25 27 28 25 22 23 26 28 25 24 24 26 28 28 27 27 27 28 23 28 24 16 14 13 12 12 15 19 18 18 19 21 21 23 25 26 24 24 23 23 23 22

GFSWCAN_con_lsi_099.txt.gz
Lid_Strength_Index
3 3 3 4 4 2 3 3 3 4 5 5 4 3 3 4 4 9 11 10 12 16 15 15 15 18 18 18 19 18 18 17 18 20 22 22 21 19 20 19 19 18 17 16 16 18 19 9 10 13 11 9 9 9
3 3 4 4 4 3 3 4 3 4 5 5 4 3 4 4 6 8 12 11 11 14 15 14 14 14 15 15 17 17 18 18 17 19 22 22 21 24 21 23 17 18 15 15 15 15 9 9 9 9 8 9 9 9
3 3 4 5 4 3 3 3 4 5 5 6 5 3 4 3 4 8 11 11 12 15 15 15 16 14 13 14 13 17 17 15 16 17 20 20 21 20 23 22 20 18 15 14 13 12 11 10 9 7 6 7 8 8
3 4 4 4 4 4 3 4 4 5 5 5 5 3 4 3 4 7 10 10 12 14 18 17 14 15 13 13 13 14 15 15 15 17 20 21 19 18 20 19 19 17 17 17 16 14 11 10 11 11 10 7 7 7
4 4 4 4 4 4 3 4 4 4 5 5 4 3 4 4 6 8 9 10 10 13 18 18 16 15 14 14 15 14 15 16 18 19 20 20 17 18 19 19 20 17 17 18 17 14 14 13 11 10 10 9 7 7
4 3 3 3 3 3 3 4 4 4 5 5 4 4 5 6 6 9 13 11 10 13 17 20 17 16 15 15 15 15 15 16 17 18 19 18 16 18 21 21 17 16 15 14 15 14 13 11 10 10 10 9 8 7
2 2 2 2 3 3 3 4 4 6 5 4 4 5 5 6 9 13 15 12 10 12 17 21 20 16 16 16 15 16 15 16 17 18 19 18 18 19 22 21 17 15 15 13 10 11 12 13 13 11 10 10 8 7
2 2 2 3 3 3 4 5 6 6 3 4 5 6 6 7 8 12 11 9 10 14 16 22 21 17 16 18 18 14 16 17 17 18 18 18 17 18 20 17 16 15 13 11 11 10 11 12 12 10 9 9 8 7
1 2 2 3 2 3 4 6 5 4 5 6 6 6 9 10 13 13 9 10 12 14 20 21 22 24 17 16 17 15 17 22 17 20 18 18 19 20 17 17 16 13 13 12 10 10 11 12 11 9 9 9 7 6
1 2 2 3 2 3 4 6 5 5 6 6 8 12 15 12 9 9 12 15 16 17 18 20 19 20 17 17 18 18 18 20 24 19 17 19 19 16 15 15 14 13 12 11 11 12 12 13 11 9 8 7 7 7
2 2 3 2 3 4 5 5 5 6 6 10 13 14 11 9 12 14 18 19 20 20 18 19 19 20 16 20 19 18 23 20 21 21 21 24 21 19 16 15 13 12 11 10 10 9 9 9 9 8 8 8 8 8
3 3 3 2 3 4 4 5 6 8 10 11 12 10 11 14 16 18 21 21 21 21 19 20 20 18 17 16 18 18 23 21 25 18 20 23 20 19 15 14 13 12 11 10 9 9 9 9 9 8 8 9 9 9
3 3 1 3 5 5 4 6 6 7 8 10 12 14 15 17 22 21 23 25 23 20 18 18 19 18 17 17 19 20 20 22 17 19 21 21 18 17 17 14 13 11 10 10 10 9 9 9 8 9 9 9 8 9
2 2 2 5 5 4 4 5 6 7 10 13 15 19 18 23 21 21 20 20 19 18 18 18 19 19 17 20 19 25 20 17 20 22 23 20 17 16 16 13 12 12 11 11 10 10 10 9 10 10 10 10 10 11
2 2 4 5 4 5 5 5 6 10 12 15 16 19 20 19 18 19 21 19 19 16 17 18 19 18 20 22 20 20 19 21 21 22 20 19 17 16 16 14 12 12 12 12 11 11 10 10 10 11 12 13 13 13
3 4 7 5 5 6 6 8 10 11 15 16 19 20 18 18 18 21 20 18 16 16 18 18 21 24 24 22 22 23 24 25 22 21 19 18 17 17 16 14 12 12 12 12 12 13 13 14 15 14 14 14 14 14
5 9 6 6 6 6 8 11 12 15 16 19 19 17 18 18 19 19 16 17 15 18 21 22 24 24 22 26 25 22 23 21 20 18 18 17 16 16 16 15 13 11 12 12 12 11 11 11 11 11 13 13 13 13
8 6 6 7 8 10 13 13 15 16 19 18 19 18 17 16 16 16 16 15 17 20 20 23 20 25 25 25 24 21 20 21 19 18 17 16 16 16 16 15 14 12 12 12 12 12 12 11 11 11 10 11 11 11
6 7 7 8 10 13 15 16 16 20 20 18 17 17 16 16 15 15 15 16 17 18 20 23 25 26 22 20 22 24 18 19 15 16 16 16 15 15 15 17 14 12 12 15 15 13 12 12 11 11 11 11 11 11
6 6 7 8 10 14 17 17 15 19 20 19 17 18 17 17 16 16 17 17 19 22 23 25 22 20 19 19 19 18 15 15 16 16 16 16 16 20 17 17 15 15 15 16 16 13 15 15 14 14 13 13 13 13
8 9 10 12 15 16 17 19 19 19 18 19 18 17 18 16 17 17 18 17 20 24 23 21 19 18 19 19 16 16 16 16 16 15 16 18 16 18 19 20 20 17 16 17 17 16 14 15 15 16 19 14 13 12
11 10 13 13 16 17 18 18 19 18 19 19 19 18 18 19 18 19 18 18 21 21 20 19 21 20 19 18 17 19 16 16 16 15 14 14 17 19 19 18 19 19 20 19 19 18 17 17 17 17 17 16 14 15
10 11 14 14 17 18 20 17 19 19 20 21 19 20 20 20 21 19 20 19 20 22 22 21 23 24 21 22 19 18 18 19 18 17 16 16 17 19 19 19 19 21 21 19 19 19 19 15 15 16 17 17 17 17
11 15 16 18 18 21 19 20 19 19 19 20 21 22 22 22 20 22 22 21 22 23 22 23 24 22 22 23 22 22 21 20 20 22 22 20 21 19 17 17 16 18 18 19 19 19 19 18 15 18 18 19 19 18
14 17 17 20 19 20 22 21 21 20 21 21 22 23 23 22 23 24 23 21 24 24 25 25 24 24 23 26 23 23 23 21 21 21 22 22 22 22 21 20 17 18 19 21 19 18 19 20 19 19 19 19 18 17
18 19 19 20 20 20 20 21 21 21 21 22 23 24 23 23 24 23 22 23 24 24 25 22 22 23 22 23 22 22 22 23 22 21 22 24 22 22 23 21 22 20 20 19 20 19 19 19 19 20 18 17 14 17
19 21 20 18 19 20 20 20 19 19 21 22 24 24 23 23 24 22 22 23 23 25 26 23 22 21 20 22 23 23 25 27 25 24 24 25 25 25 24 23 23 20 20 21 21 20 20 20 20 20 20 19 19 19
19 20 22 21 21 21 21 20 20 20 20 21 21 23 22 22 21 21 23 25 26 26 25 26 26 23 22 25 26 23 27 28 26 26 23 24 26 28 27 26 24 16 22 23 22 22 21 20 20 19 19 19 18 20
20 19 18 21 21 20 21 20 20 21 20 20 21 22 22 21 23 24 24 25 27 24 22 23 26 26 26 27 27 28 29 25 23 24 24 24 26 24 28 28 28 27 27 25 16 15 18 16 14 14 15 18 19 21
19 17 19 20 19 21 22 23 22 21 21 21 21 22 22 22 24 25 25 26 24 24 26 25 25 26 25 23 26 26 30 31 28 23 24 25 25 27 29 28 26 26 27 25 24 23 16 19 19 23 22 23 23 23
17 18 20 21 23 23 23 23 22 22 23 23 24 23 23 24 23 24 25 26 27 26 24 26 30 32 25 28 27 26 25 28 31 30 30 29 29 29 28 26 25 25 26 24 23 23 23 24 25 24 23 24 24 21
19 20 20 22 23 23 23 23 23 23 23 23 24 25 25 23 23 23 26 27 27 26 23 24 23 24 28 30 30 29 19 27 29 28 28 28 27 24 22 22 24 23 22 22 21 24 25 26 26 25 23 24 24 24
20 21 24 22 23 25 24 24 24 24 25 26 27 28 29 25 22 23 27 28 25 23 23 25 29 27 27 28 28 28 24 29 25 17 16 14 13 13 16 20 21 21 21 22 24 25 25 27 26 25 24 24 24 23

GFSWCAN_con_lsi_102.txt.gz
Lid_Strength_Index
6 5 4 4 3 3 4 4 2 3 3 3 3 4 3 3 3 8 11 10 11 15 15 14 15 17 18 18 20 19 18 18 18 21 22 23 22 20 21 20 20 19 20 18 19 19 21 10 10 13 11 10 10 9
6 5 4 3 3 3 4 4 3 3 3 3 4 5 4 3 3 8 12 10 10 13 15 13 14 14 15 16 18 18 19 18 17 20 22 22 21 25 22 23 18 19 17 18 17 17 12 8 10 9 8 9 9 9
5 5 4 3 3 3 4 4 3 3 4 3 4 5 4 3 4 7 11 11 11 14 15 15 16 14 14 15 14 17 17 16 17 18 21 20 21 20 23 23 22 19 16 16 15 14 13 11 9 8 10 10 8 7
5 4 3 3 3 3 4 4 4 4 4 4 5 4 3 3 4 7 11 11 12 13 17 17 14 16 14 14 14 14 15 15 16 18 21 21 20 18 21 19 20 18 17 17 17 16 14 13 13 12 10 10 9 8
4 4 3 3 3 3 4 4 4 4 4 4 4 5 3 4 5 8 9 10 10 13 18 18 16 15 15 14 14 15 16 17 18 20 21 21 18 19 20 19 21 18 18 18 18 16 16 15 14 11 11 10 10 9
4 3 3 3 3 4 4 4 4 3 5 5 5 5 3 4 6 9 12 11 10 12 16 20 17 16 15 15 15 16 16 17 18 18 19 18 17 19 22 22 18 17 16 16 16 15 14 13 12 12 13 11 10 10
3 4 4 3 3 3 3 4 4 3 4 5 5 5 4 4 7 11 13 11 10 11 16 20 19 16 16 16 16 16 16 17 17 19 19 19 18 20 22 21 17 17 15 14 12 13 14 14 14 13 12 11 10 9
4 4 3 2 2 2 2 3 4 3 5 5 6 4 5 6 8 11 10 9 10 14 15 20 21 18 16 18 19 16 18 18 18 18 18 19 18 18 21 18 18 16 14 14 12 11 11 11 13 13 11 10 10 9
4 3 2 2 2 2 2 3 3 4 5 5 5 6 8 10 11 11 9 10 11 13 18 21 21 23 17 17 17 17 18 22 17 20 19 18 19 21 18 18 18 16 14 13 11 11 11 12 13 12 10 8 8 8
3 2 2 1 2 2 2 2 3 5 4 6 7 11 14 11 8 8 12 14 14 15 17 20 19 21 18 19 20 19 18 21 24 19 18 19 20 17 17 17 16 15 14 12 12 13 12 12 12 10 9 8 8 8
2 2 1 1 2 2 3 2 4 4 5 9 13 14 10 8 11 14 16 16 17 19 18 19 20 20 18 21 21 18 21 20 28 22 23 25 23 20 17 17 15 14 13 12 11 10 10 10 10 10 9 9 8 8
2 2 1 2 2 3 3 2 3 7 9 10 10 10 11 13 15 17 18 19 20 21 20 21 21 19 18 17 19 17 23 23 27 20 20 23 21 20 18 16 15 15 14 12 11 10 9 9 9 10 9 10 9 8
2 1 2 2 3 4 1 2 4 6 7 8 11 14 14 17 22 22 24 25 25 20 19 19 20 18 18 18 19 20 23 23 19 20 21 22 19 18 19 16 15 13 13 12 11 10 9 9 9 10 10 9 9 9
2 2 2 3 4 3 1 3 4 5 9 13 15 18 18 22 21 20 20 20 18 18 18 18 19 19 18 20 20 24 20 19 22 24 24 22 19 17 17 15 14 14 12 12 11 11 10 10 10 11 11 11 11 12
2 2 3 4 2 2 3 3 4 8 11 15 16 20 19 18 17 20 20 18 18 16 18 19 19 19 21 22 21 21 21 22 22 23 21 20 18 17 17 13 13 13 13 13 12 12 11 11 11 12 12 14 15 14
3 4 4 2 1 3 3 5 8 11 14 17 19 19 17 18 18 22 19 18 16 17 18 18 22 24 24 21 21 25 25 26 23 22 20 20 18 17 17 14 14 13 13 13 13 13 14 15 16 15 14 15 15 15
4 7 2 2 3 3 5 9 11 14 16 18 18 16 18 18 17 18 17 18 15 18 22 22 24 24 22 26 25 22 24 22 22 22 18 18 17 17 17 16 13 14 13 13 13 12 12 12 12 11 12 12 13 12
6 4 4 3 5 7 10 12 14 16 18 17 18 17 16 16 16 17 18 16 18 20 20 23 21 26 25 25 24 21 22 23 21 19 18 17 17 17 16 16 14 13 13 13 13 13 13 13 12 11 11 11 11 11
3 4 3 4 6 10 13 13 14 18 19 17 16 15 15 15 15 16 16 17 17 18 20 22 24 26 22 21 22 25 19 18 16 17 17 17 17 16 16 18 16 13 13 15 14 13 13 13 12 12 12 12 13 12
2 4 4 5 8 12 14 15 14 17 18 17 16 16 16 17 16 17 17 17 18 20 21 23 22 21 20 19 20 20 19 18 17 18 17 17 17 20 18 18 16 14 14 15 16 14 15 16 16 15 15 14 15 14
6 6 8 10 13 13 15 16 17 17 17 18 17 16 17 16 16 18 19 18 19 23 22 21 20 19 20 20 18 17 17 17 17 16 16 19 16 19 21 21 21 17 18 17 18 18 15 16 16 18 20 15 14 14
7 7 10 10 14 15 17 16 18 17 18 18 18 17 18 18 18 18 19 21 22 20 20 19 21 21 21 19 19 21 18 17 17 16 14 15 18 19 17 18 18 20 19 19 20 20 19 19 18 18 18 17 15 16
7 9 11 13 16 17 19 16 19 18 19 20 19 19 20 20 21 20 22 21 20 21 21 21 23 25 22 24 20 20 19 20 18 17 17 17 18 20 21 20 20 21 21 20 20 20 21 16 17 17 19 18 18 18
9 13 15 17 17 21 18 19 18 19 19 20 21 22 22 21 20 21 22 21 20 22 22 23 22 22 23 24 24 23 22 22 22 23 24 21 21 20 18 18 17 18 19 20 21 21 21 20 16 19 20 20 20 19
12 16 16 20 19 20 21 21 20 20 22 21 22 23 23 22 22 24 22 19 23 25 24 24 24 23 21 26 25 24 25 23 22 22 24 24 24 24 23 21 19 20 20 22 20 20 21 22 21 21 20 20 20 19
18 19 18 19 21 20 21 22 22 21 21 22 23 24 23 22 22 22 21 21 24 23 24 21 22 23 23 24 23 25 23 25 23 21 24 25 24 23 24 22 23 22 21 21 22 21 21 22 22 22 20 19 15 18
20 22 20 18 19 20 21 20 19 19 21 22 23 24 22 22 22 21 21 22 23 24 24 23 22 20 21 24 24 25 26 27 25 24 25 27 27 27 25 23 24 22 22 23 23 22 22 22 22 22 21 21 21 20
19 20 21 20 20 19 20 20 19 19 20 20 20 22 21 21 21 22 22 24 26 26 26 26 26 23 22 24 24 25 27 28 26 27 25 25 27 29 29 27 24 17 25 25 24 25 23 23 23 21 20 19 19 22
21 19 18 20 20 19 20 19 19 20 19 20 19 21 22 22 24 24 24 25 25 24 23 24 27 26 26 27 28 28 25 25 25 25 25 25 26 25 30 30 29 29 29 27 18 17 21 18 16 15 18 20 20 23
19 17 19 19 20 21 23 23 22 22 21 21 21 22 22 23 24 25 25 25 24 23 25 24 25 24 23 23 26 27 30 32 30 24 24 25 25 28 30 29 28 29 29 27 26 26 17 20 21 25 24 24 24 23
16 17 20 21 23 23 23 23 22 21 22 22 23 22 22 23 23 24 24 25 25 25 24 26 28 29 24 25 27 26 26 29 32 31 28 29 30 29 29 28 28 28 27 26 25 24 25 25 27 27 25 26 26 23
19 20 20 22 23 23 22 22 22 22 22 22 23 24 24 22 22 22 25 25 25 24 22 23 23 25 29 32 31 28 19 25 28 30 29 28 28 27 26 26 27 26 24 24 24 26 27 27 27 27 26 27 27 26
22 22 23 22 22 23 23 22 23 23 23 23 24 26 25 24 22 22 27 28 26 25 24 26 30 26 27 27 27 25 24 30 27 18 17 15 14 15 18 21 24 23 23 24 24 26 27 29 29 29 29 28 26 25

GFSWCAN_con_lsi_105.txt.gz
Lid_Strength_Index
5 5 5 6 5 5 4 3 3 3 3 3 3 3 3 3 3 6 10 10 12 15 15 14 15 17 17 18 19 19 18 18 18 20 22 23 22 20 21 20 20 21 22 21 19 20 22 12 12 13 11 9 9 9
6 6 6 6 6 5 5 3 3 3 4 4 4 4 4 3 4 7 11 10 10 13 15 13 14 14 15 16 18 19 19 19 17 20 22 22 21 25 22 24 19 20 18 19 18 18 14 11 11 10 9 8 8 8
6 7 6 6 5 5 5 4 3 3 4 5 4 4 4 3 3 7 11 11 11 14 15 15 16 14 14 15 15 18 18 16 17 19 21 20 21 20 23 23 22 19 16 16 16 15 14 13 11 10 11 11 10 8
7 7 7 6 5 5 4 4 4 4 4 4 3 4 4 4 3 7 11 10 11 13 17 16 13 15 14 14 15 15 16 16 17 18 21 21 20 19 21 20 20 18 17 17 17 16 15 13 13 13 13 11 10 9
7 7 6 6 5 5 4 4 4 3 4 4 4 5 4 4 4 7 9 10 10 12 16 16 15 15 15 15 15 15 16 17 18 20 21 21 19 19 21 20 21 19 18 18 18 16 16 15 14 12 13 13 12 12
7 6 6 5 5 5 4 3 4 3 3 4 5 4 4 4 6 9 12 11 10 11 15 19 16 16 16 16 16 16 16 18 18 19 19 19 18 20 22 22 18 18 17 16 17 16 14 13 13 12 13 12 12 12
7 6 5 5 5 4 3 4 4 4 3 4 4 4 5 4 7 11 12 11 10 11 15 19 19 17 17 17 17 17 17 18 18 19 19 19 19 21 23 22 18 18 17 15 14 14 15 14 14 13 13 12 11 11
6 6 5 5 4 3 3 4 3 3 3 3 4 4 5 5 7 10 10 8 11 13 14 20 20 19 17 18 19 17 19 19 18 18 19 19 18 19 21 19 19 18 16 15 14 12 12 13 14 13 12 10 10 9
6 6 5 4 3 3 4 3 2 2 3 3 4 5 4 8 11 10 8 9 11 13 18 19 21 21 17 18 18 18 18 22 17 20 19 19 20 21 18 19 19 17 16 15 14 12 12 12 13 13 11 9 9 9
6 5 4 3 3 3 2 2 2 2 3 3 4 8 12 10 7 8 11 13 14 15 17 19 18 20 18 19 20 20 19 22 24 20 18 20 20 18 18 17 17 17 15 14 14 15 13 13 12 11 10 9 9 9
5 4 3 4 4 3 2 2 2 2 4 5 11 12 10 7 10 13 15 15 16 17 18 19 20 20 18 21 22 19 22 22 28 23 23 25 23 21 18 18 17 15 15 14 14 12 11 11 12 11 10 9 9 9
3 3 3 3 3 2 1 1 2 4 6 8 9 9 10 12 14 16 17 18 18 19 19 20 20 19 19 18 20 20 24 24 27 20 21 24 22 21 19 18 17 16 15 14 13 12 11 10 10 10 10 10 10 9
3 4 3 2 1 1 1 1 2 3 4 6 9 12 13 15 18 19 22 23 24 20 19 19 19 18 19 20 20 21 25 24 19 21 22 22 21 20 21 17 17 15 14 14 12 12 11 11 10 10 10 10 10 10
4 3 2 1 1 1 1 1 3 3 5 10 13 16 16 19 18 20 20 20 19 18 17 17 19 20 19 21 20 25 21 19 22 25 24 23 20 19 18 16 14 15 14 13 13 12 12 11 11 11 12 12 13 14
4 3 2 1 1 1 1 2 2 4 7 12 14 18 18 18 18 21 21 18 17 15 16 18 20 20 23 22 21 20 21 23 23 24 22 22 19 18 18 15 16 14 13 13 13 12 12 12 13 14 15 16 16 15
3 3 3 1 1 2 2 3 5 7 10 14 17 18 16 18 19 20 18 17 15 15 18 18 22 24 24 22 22 25 25 26 23 22 21 21 19 18 17 14 15 14 13 13 14 15 16 17 17 16 15 14 15 15
4 6 2 2 2 2 4 7 8 11 12 15 16 16 18 18 19 18 16 16 14 16 20 22 24 24 22 25 26 22 24 22 22 22 21 19 18 18 16 14 15 15 14 13 13 14 14 14 15 14 13 12 11 12
7 5 3 3 4 6 8 9 11 12 15 17 16 16 15 16 16 16 16 15 16 19 20 22 21 24 24 24 24 21 22 22 21 18 20 18 18 18 16 15 14 14 17 14 13 14 14 14 14 14 14 13 14 14
5 3 3 3 5 8 10 11 11 16 17 15 15 15 14 15 15 15 15 17 17 18 20 23 25 24 22 21 22 25 20 17 17 18 19 18 18 17 17 17 14 13 13 14 15 15 14 14 14 14 14 15 15 16
2 2 3 4 6 10 12 12 11 15 16 16 15 16 16 16 16 16 17 17 18 21 22 24 21 20 20 20 20 20 17 18 17 18 18 19 19 21 19 18 15 14 14 15 16 15 16 17 17 17 16 16 16 15
3 4 5 7 10 10 12 14 15 15 15 16 16 16 17 15 16 17 17 17 18 23 22 20 20 19 21 20 18 18 18 17 18 17 18 19 18 20 21 22 18 16 16 18 19 19 16 18 18 19 20 16 15 15
5 4 8 8 11 12 14 15 17 15 17 17 17 16 17 17 17 17 18 18 20 19 19 19 20 20 20 19 19 21 18 18 18 17 15 16 18 18 18 19 19 18 20 21 21 20 20 20 20 20 20 19 17 18
5 7 9 10 12 14 16 14 18 17 18 19 17 18 19 20 19 18 17 18 18 19 19 20 22 23 21 23 20 20 20 20 19 19 18 19 20 22 22 19 18 20 23 21 21 21 22 17 18 19 20 20 20 20
7 10 12 13 13 18 15 18 17 18 18 19 20 22 21 20 19 19 20 19 18 20 20 22 21 22 22 22 22 23 23 22 22 24 25 21 22 22 20 20 19 21 19 19 19 22 23 21 18 21 22 22 22 21
10 14 13 16 16 17 20 20 20 19 21 20 21 23 22 20 20 22 21 19 21 21 21 21 21 20 19 23 24 24 25 24 22 23 26 26 25 26 24 23 22 22 23 24 22 22 23 23 23 23 22 22 22 22
16 18 16 16 18 19 19 21 21 21 20 22 23 23 22 21 22 22 20 20 22 22 21 20 20 21 22 23 23 24 24 26 24 23 26 26 25 23 25 24 25 24 24 24 24 23 23 24 24 25 23 22 17 22
18 20 18 16 18 18 20 19 19 19 20 22 23 23 22 21 21 21 22 22 22 23 22 20 20 19 21 24 25 26 28 29 26 25 26 27 28 28 26 25 25 24 24 25 24 23 23 24 24 24 24 24 24 23
18 18 19 19 19 20 20 20 20 19 20 20 20 22 20 20 21 24 25 25 25 25 25 25 24 21 22 24 25 26 27 27 27 26 25 26 29 31 30 27 25 19 27 26 26 26 25 25 24 23 23 22 22 23
19 18 17 20 20 20 20 19 19 20 19 19 19 21 21 23 26 26 25 25 25 24 23 24 26 25 26 27 28 26 25 24 24 26 26 27 28 27 32 31 31 30 30 28 18 19 21 19 18 18 23 24 24 26
18 17 18 19 19 21 23 23 22 22 21 20 20 22 22 24 25 25 25 25 24 23 23 22 24 22 24 24 26 28 30 31 30 25 25 26 25 28 32 30 29 30 30 29 28 27 18 23 22 26 26 26 27 26
17 18 20 21 23 23 23 23 21 21 21 22 23 22 24 25 24 25 25 25 24 24 23 24 25 24 22 23 23 24 25 28 33 32 28 26 27 28 29 30 30 30 29 28 28 27 27 27 28 29 28 29 28 25
19 19 20 22 23 22 22 21 21 21 22 22 23 23 24 23 23 24 25 25 24 23 21 22 22 23 26 27 27 27 19 26 28 27 25 26 27 28 28 29 29 28 27 27 27 27 28 29 29 29 29 30 28 27
21 21 22 22 22 22 22 21 22 23 22 23 24 25 25 24 22 22 26 26 23 22 21 23 25 25 26 26 25 23 24 26 24 19 18 17 17 19 24 26 25 25 25 26 27 28 29 30 30 31 30 30 28 26

GFSWCAN_con_lsi_108.txt.gz
Lid_Strength_Index
4 4 4 5 5 6 6 6 6 5 5 5 5 4 3 4 3 5 8 8 9 12 13 13 13 14 14 14 15 15 15 15 14 16 15 15 16 16 17 16 17 17 18 17 17 18 18 11 10 12 10 8 7 6
4 4 5 5 6 6 6 6 6 6 5 5 5 5 4 4 4 6 10 8 8 11 13 12 12 12 13 14 14 15 16 15 13 14 15 15 16 17 16 17 15 17 15 14 14 14 12 9 9 8 8 9 9 8
5 5 5 5 6 6 6 6 6 5 5 5 5 5 5 5 4 7 9 9 9 12 12 13 14 12 12 13 12 14 14 13 14 13 14 14 16 15 17 16 16 14 13 14 14 12 11 10 8 8 9 10 10 10
5 5 5 6 6 7 6 6 6 5 4 5 5 5 5 5 4 7 8 9 9 11 14 14 11 13 12 12 13 13 13 13 13 13 14 14 16 15 15 16 16 14 14 13 13 12 12 11 9 9 10 10 10 10
6 6 6 6 7 7 6 6 5 5 4 4 5 5 4 4 4 7 8 8 8 10 14 15 13 13 12 13 14 13 13 13 13 14 14 15 15 16 16 16 16 15 14 14 14 12 12 11 10 10 11 10 10 10
6 6 6 7 7 6 6 5 5 5 4 3 3 5 4 5 4 8 11 8 8 9 13 16 13 14 13 13 14 14 13 14 14 14 14 15 15 15 17 17 14 14 14 13 13 13 12 11 10 11 11 10 10 10
7 7 7 7 6 6 6 5 5 4 4 4 3 4 5 5 6 9 11 9 8 9 12 17 16 14 14 14 14 14 14 14 14 15 15 15 15 15 16 17 14 14 14 14 12 12 13 12 12 11 11 10 9 8
7 7 7 7 6 6 6 5 5 4 4 3 3 3 4 5 7 10 9 8 9 11 12 16 18 16 14 16 16 14 15 15 15 15 15 16 16 16 18 15 15 15 14 13 12 12 12 11 12 12 11 10 10 8
7 7 7 6 6 6 5 5 4 4 3 3 3 3 5 7 10 10 8 8 9 10 14 15 17 17 15 16 15 15 15 17 15 16 16 16 17 19 15 15 15 15 14 13 12 12 12 12 12 12 11 10 10 9
7 7 7 6 6 5 4 4 4 3 3 3 4 8 12 9 6 7 9 11 11 12 13 15 15 18 15 16 18 17 16 17 18 17 16 18 18 15 15 14 14 14 13 12 13 14 13 13 12 12 11 10 10 9
7 7 6 6 5 5 4 4 3 3 3 6 9 10 7 4 9 11 13 13 13 15 15 15 16 18 16 18 18 17 19 18 20 18 18 19 19 16 15 15 14 13 12 12 11 11 11 11 12 12 11 10 10 9
7 6 5 5 4 4 4 3 3 4 5 7 7 5 6 8 11 13 15 14 15 16 17 17 17 15 17 15 17 19 19 21 21 17 19 21 17 17 16 15 15 14 13 12 11 11 11 11 10 11 11 11 11 10
6 5 4 4 4 3 3 3 2 3 3 4 6 10 11 11 14 15 19 18 17 17 17 17 17 17 16 16 18 19 21 21 18 20 20 17 17 17 17 15 14 13 13 12 12 12 11 11 11 11 11 11 10 11
5 4 4 4 3 3 3 3 2 2 4 8 11 13 13 14 14 15 16 17 16 16 16 14 17 16 16 17 18 20 19 19 21 22 20 17 16 16 16 15 14 14 13 12 12 12 12 11 11 11 11 12 13 14
4 4 4 3 3 3 3 2 1 2 6 9 10 12 13 13 15 17 16 16 15 14 14 16 16 16 18 20 19 20 22 22 21 20 17 16 16 16 15 14 14 13 13 13 12 13 13 12 13 13 14 14 14 14
4 4 5 4 3 2 1 1 2 5 9 11 12 13 13 15 17 16 16 16 14 13 14 14 17 19 20 19 21 22 22 22 18 17 16 17 16 15 15 14 14 13 13 13 12 13 13 14 15 15 14 13 12 14
5 7 4 3 2 1 1 4 6 9 9 11 12 11 13 14 15 16 15 15 13 14 16 17 19 19 19 21 22 20 20 16 16 17 17 16 15 15 14 14 14 13 13 13 13 14 14 14 14 14 14 12 11 11
7 4 2 2 2 3 7 8 9 10 12 12 13 13 12 13 14 15 14 13 14 16 16 17 18 21 21 22 21 18 17 18 18 17 17 16 15 14 14 14 14 14 14 13 13 13 14 14 14 13 14 13 13 13
4 3 2 2 3 7 9 10 10 13 13 12 11 11 12 13 14 14 13 14 15 15 17 17 19 19 19 18 18 19 18 16 17 17 17 16 15 15 15 14 14 14 14 13 13 14 14 14 14 14 13 14 14 13
3 3 3 3 4 8 11 11 10 12 13 13 12 12 13 14 15 14 15 15 15 16 18 19 18 18 18 18 18 17 16 15 16 17 17 17 16 16 16 15 15 14 14 14 15 14 15 16 16 15 15 15 15 14
4 5 5 7 9 10 11 12 12 12 12 13 12 13 14 13 15 15 15 15 16 18 18 18 17 18 19 18 17 16 16 15 15 15 16 17 17 16 17 16 15 15 16 16 17 16 16 16 16 16 15 15 14 14
6 5 8 8 10 11 12 12 13 12 13 14 13 13 15 15 15 15 15 15 17 16 16 17 17 18 18 17 17 17 16 16 16 15 15 15 17 18 18 18 17 17 17 17 17 16 16 17 17 17 16 16 15 15
5 7 9 9 11 12 14 12 14 13 13 15 14 16 16 16 16 16 15 15 16 16 17 18 19 19 19 19 18 18 18 17 17 17 16 17 17 17 16 17 16 17 18 17 17 17 17 17 16 17 17 17 17 16
6 10 10 12 12 15 13 16 13 14 14 15 16 18 18 18 17 17 17 17 16 17 18 19 19 20 19 18 18 19 20 19 20 20 19 18 18 19 18 18 18 18 18 18 18 18 18 18 17 18 18 18 18 17
10 12 12 15 14 16 18 16 16 16 17 17 18 20 19 19 19 19 19 17 18 18 18 18 17 16 16 19 21 21 22 19 18 19 22 20 21 21 21 21 21 21 21 19 19 19 20 20 20 19 19 19 19 18
14 14 13 17 15 17 17 17 16 17 17 18 19 20 20 19 20 20 19 18 19 18 18 17 17 18 19 18 20 21 20 21 19 19 22 21 20 18 20 20 20 21 22 20 19 20 20 21 20 21 20 20 18 20
16 18 16 13 15 15 16 15 15 16 18 20 21 21 20 20 20 19 21 21 20 20 17 16 16 16 18 21 23 23 23 23 21 21 24 25 25 24 20 19 21 20 22 21 20 20 20 20 20 20 20 20 20 19
17 17 18 17 17 17 17 17 17 17 17 18 19 21 19 18 19 22 23 23 23 22 22 22 20 19 20 22 23 25 25 25 25 25 24 24 26 26 25 22 21 20 23 22 22 21 20 20 20 20 20 20 20 19
19 16 15 19 18 18 19 18 18 18 18 18 17 19 20 22 24 24 24 24 23 21 21 23 24 24 24 25 24 23 23 22 21 21 22 23 23 23 27 25 25 25 23 21 18 20 21 20 19 19 21 21 21 21
16 15 16 17 18 20 22 21 21 20 20 20 20 21 22 23 24 25 24 23 21 21 21 22 22 21 22 23 25 25 26 26 24 20 21 22 22 24 26 25 25 25 25 23 22 22 17 21 20 23 22 22 21 20
16 17 19 20 22 22 22 21 20 20 20 21 21 21 22 23 24 24 23 23 22 22 22 22 21 20 21 21 21 22 22 24 27 27 25 24 24 25 25 25 25 25 24 23 23 22 22 23 23 23 23 23 24 23
18 19 19 21 22 21 21 21 20 21 21 21 22 22 23 22 22 23 24 23 22 22 20 20 21 22 22 22 22 21 19 24 25 24 24 24 24 24 24 25 26 24 23 23 23 23 25 24 23 23 23 24 24 24
19 19 20 21 22 22 21 20 21 21 21 21 23 24 23 23 21 22 25 25 22 20 21 22 23 23 24 23 23 22 22 24 23 19 18 18 19 22 24 24 24 23 23 23 23 24 25 25 24 25 25 26 25 24

GFSWCAN_con_lsi_111.txt.gz
Lid_Strength_Index
5 5 5 4 4 5 5 5 6 5 5 5 5 5 5 5 4 4 7 5 7 10 11 12 12 13 13 13 14 14 14 14 14 15 14 14 15 14 16 15 16 16 17 17 16 17 18 9 10 12 9 8 8 8
5 5 5 4 4 5 5 6 6 6 5 5 5 5 5 5 5 6 8 6 5 9 11 11 11 11 12 12 12 13 14 13 12 13 13 13 15 14 15 17 14 17 14 14 14 14 10 9 8 7 7 8 8 9
5 5 5 5 5 5 6 6 6 6 6 5 5 5 5 5 4 7 7 7 8 10 11 12 13 11 11 11 11 13 12 12 12 11 11 13 15 13 16 15 15 14 12 14 14 11 11 10 8 8 8 8 9 9
5 5 5 5 5 5 6 6 6 6 6 6 5 5 5 5 5 6 7 7 7 9 11 12 11 12 11 11 12 12 12 12 11 11 12 13 14 13 14 15 15 13 13 14 13 11 11 11 10 8 9 9 9 9
5 5 5 5 5 6 6 6 6 6 6 5 5 4 4 4 4 5 6 7 7 9 12 13 12 12 11 12 12 12 12 12 12 13 13 14 13 14 14 15 15 13 13 14 14 11 11 11 10 10 11 10 10 10
5 5 6 5 6 6 6 6 6 6 6 5 5 5 4 4 5 7 10 8 7 7 10 14 12 13 12 12 12 13 12 12 12 12 13 13 14 14 15 16 12 12 11 10 12 11 11 11 11 10 11 11 10 10
5 6 6 6 6 6 7 6 6 6 6 5 5 5 5 4 5 8 10 7 6 7 11 14 14 13 13 13 13 13 13 13 12 12 14 14 14 14 15 16 12 12 12 12 12 11 12 12 12 11 11 11 10 9
5 6 6 6 7 7 7 6 6 6 5 5 4 5 4 5 6 8 8 7 7 9 10 14 15 15 13 14 15 13 14 14 13 13 14 15 15 15 17 14 13 13 12 12 12 11 11 11 12 12 11 11 11 10
6 6 6 7 7 7 7 6 6 5 5 5 4 5 6 7 9 8 7 7 7 9 12 13 15 16 13 14 13 14 14 16 14 15 16 15 15 17 15 14 13 13 13 13 12 11 11 12 12 12 11 11 11 11
6 7 7 7 7 7 6 6 6 5 5 5 6 9 12 9 6 5 8 10 10 10 12 14 12 16 14 15 15 15 15 16 17 16 15 17 16 13 13 12 12 13 12 12 13 13 13 12 13 12 12 11 11 10
7 8 8 8 7 7 7 6 6 5 5 7 10 11 7 5 7 8 12 13 12 13 12 13 13 16 14 15 16 15 16 16 19 17 18 17 17 14 13 13 13 12 12 11 11 11 11 11 12 12 12 11 11 10
8 8 7 7 7 7 6 6 5 6 7 7 8 6 6 9 10 12 13 12 12 14 13 14 15 13 14 13 15 17 17 19 19 16 19 19 14 15 15 14 13 12 12 11 11 11 11 11 11 11 12 12 12 11
8 7 7 7 7 6 6 5 5 5 6 7 8 11 12 12 14 14 15 13 13 12 14 14 16 15 14 13 15 17 19 19 17 20 19 16 14 16 15 14 14 12 12 12 11 11 11 11 11 12 12 12 12 12
7 7 7 7 6 6 5 5 4 4 7 10 12 14 13 13 13 11 10 10 10 11 13 13 15 14 14 15 15 18 17 18 21 22 20 14 14 15 15 14 14 13 12 12 12 12 12 11 12 11 11 11 12 13
7 7 6 6 6 5 5 4 3 5 8 11 11 13 12 9 10 10 9 10 10 10 12 13 14 14 15 16 16 18 21 22 20 19 14 13 14 15 15 14 14 13 12 12 12 12 12 12 12 12 12 13 14 14
6 6 7 5 5 4 3 3 4 7 11 11 11 12 10 10 11 11 10 10 9 10 10 11 14 16 16 15 19 20 20 21 17 15 13 14 15 15 14 13 13 12 12 12 12 13 13 13 13 13 14 14 13 14
6 8 6 5 4 3 3 6 10 11 11 11 11 8 8 8 8 9 9 9 8 10 12 13 16 16 15 17 19 17 18 15 13 15 15 14 14 15 14 13 13 13 13 13 13 13 13 13 14 14 15 13 12 12
8 6 5 3 4 7 10 10 11 10 11 9 9 9 8 9 9 10 10 9 9 10 12 13 15 18 17 19 18 15 15 16 16 15 15 14 14 13 13 14 13 13 14 13 14 13 13 14 14 14 14 14 14 14
6 4 3 4 6 9 11 10 9 10 10 8 9 8 8 9 8 8 10 10 11 12 13 14 15 16 16 15 13 14 15 16 17 16 15 14 13 14 14 15 14 14 14 14 14 14 13 13 13 14 14 14 15 14
3 3 4 5 5 9 10 10 7 9 10 9 9 10 10 9 9 9 11 12 13 13 15 16 15 15 15 14 14 15 14 15 16 17 16 15 14 15 15 15 14 14 14 14 14 14 14 15 15 15 15 15 16 15
4 4 6 8 10 9 8 9 9 8 9 11 10 10 11 10 11 12 13 12 14 14 15 15 15 16 16 16 15 14 15 15 15 15 16 16 15 15 15 14 14 14 15 15 16 16 15 16 16 16 15 16 15 15
8 6 9 8 10 10 10 9 10 9 10 11 12 11 12 13 13 12 13 14 14 13 14 15 16 16 16 16 16 15 15 15 15 14 14 15 16 17 16 16 16 16 16 16 16 16 15 16 16 17 17 16 16 16
6 7 9 10 11 11 12 10 12 12 13 13 12 13 13 13 13 12 13 13 13 14 15 16 16 16 16 17 16 16 16 15 15 15 15 15 15 16 16 16 16 16 17 16 16 15 16 17 16 17 17 17 17 17
6 9 9 11 11 13 11 13 11 12 12 13 14 15 15 14 14 14 14 14 13 16 16 17 16 17 16 15 16 17 17 16 17 17 16 17 17 17 16 17 16 16 16 16 16 17 18 18 17 18 18 18 18 18
9 10 10 13 12 13 14 14 14 14 15 15 15 16 16 15 15 16 16 14 15 15 16 16 15 15 15 16 18 19 19 16 16 18 19 17 19 19 19 19 20 20 19 18 19 18 19 19 19 19 19 19 19 18
12 12 12 12 14 13 14 15 15 15 15 16 16 16 16 16 17 17 16 15 15 15 16 16 15 15 16 16 18 19 19 18 16 18 20 18 17 17 19 20 20 21 21 19 18 19 20 20 20 21 20 20 19 20
14 14 13 12 12 13 14 13 13 13 16 17 17 18 16 17 17 16 19 19 18 18 15 14 14 14 16 19 20 20 20 20 19 19 21 22 22 21 17 18 19 20 20 20 19 19 20 20 20 20 20 19 19 20
13 14 15 14 14 14 15 15 15 15 14 14 15 17 16 15 15 19 21 22 21 20 19 18 16 15 16 19 21 22 23 23 23 23 22 23 23 23 21 21 21 20 21 21 21 20 20 20 20 20 20 20 20 20
14 13 13 16 16 16 16 15 14 15 14 14 14 15 16 20 21 21 22 22 21 19 20 20 21 20 21 21 21 22 21 20 19 20 20 22 22 23 23 22 23 22 20 20 18 20 22 20 20 20 21 21 21 21
14 12 14 17 19 18 18 18 17 17 16 16 17 18 19 21 22 22 22 21 20 19 19 20 21 20 21 21 23 23 23 23 21 17 19 20 19 23 24 23 23 23 22 21 21 19 18 20 20 22 22 22 21 20
13 14 17 18 19 19 18 18 16 17 17 18 18 18 20 20 21 22 21 21 20 20 20 20 19 19 20 21 21 22 22 23 23 23 21 21 22 23 23 23 23 23 22 22 21 21 21 22 22 23 23 24 24 22
15 16 17 19 20 19 19 18 17 18 18 18 19 20 21 20 20 21 22 21 20 20 19 19 20 20 18 18 19 18 18 23 22 21 22 22 22 23 23 24 24 23 22 22 22 23 24 23 23 23 23 24 25 25
18 18 19 19 20 20 19 17 18 19 18 19 20 21 21 21 20 21 23 23 20 18 19 19 20 20 20 20 20 20 20 22 20 18 18 18 19 21 23 23 23 22 22 22 23 23 24 25 24 25 25 26 26 25

GFSWCAN_con_lsi_114.txt.gz
Lid_Strength_Index
5 5 5 5 4 4 5 5 5 6 6 6 6 5 5 5 5 6 7 6 8 11 12 12 12 14 14 15 17 15 16 16 16 18 18 18 19 18 19 17 19 19 21 22 20 22 23 12 12 15 12 11 9 10
6 5 5 5 4 4 5 5 6 6 6 6 6 5 5 5 5 6 9 6 6 9 12 11 12 12 13 13 15 15 15 15 14 16 17 17 18 19 19 22 16 20 17 18 18 17 13 11 12 11 10 11 10 11
6 5 5 5 4 4 5 5 6 6 6 6 6 5 5 5 5 5 8 7 8 10 11 13 14 12 12 12 12 15 15 13 14 14 16 16 18 17 21 20 18 16 15 17 17 15 14 12 11 11 10 11 11 11
6 5 5 5 5 4 5 5 6 7 6 6 6 6 5 5 5 5 7 7 8 9 13 14 11 13 12 12 12 13 14 13 13 14 16 17 18 16 18 18 18 16 16 17 16 15 14 13 12 11 12 12 12 11
6 5 5 5 5 5 5 6 6 7 7 6 6 6 5 5 5 5 6 7 7 10 14 15 13 12 12 12 13 13 14 14 15 17 17 18 16 18 17 18 19 16 16 17 18 14 14 14 12 11 12 12 12 13
6 5 6 5 5 5 5 6 7 7 7 6 6 6 5 5 5 7 10 7 7 8 11 15 13 14 13 13 13 14 14 15 15 16 16 16 16 18 20 20 15 15 14 14 15 14 13 13 13 12 13 13 13 13
6 6 6 5 5 5 5 6 7 7 7 6 6 6 5 5 7 9 10 8 6 7 11 14 16 14 14 14 14 14 14 15 15 16 17 16 17 18 19 19 15 14 14 14 14 13 15 14 14 13 13 13 12 12
6 6 5 5 5 5 6 6 7 7 7 7 6 6 6 6 7 9 8 6 5 9 10 14 17 17 14 16 16 14 16 16 16 17 17 18 18 18 20 16 15 15 14 14 14 13 13 13 13 13 13 12 13 12
6 6 6 5 5 6 6 7 7 7 7 6 6 6 7 8 11 9 7 7 7 8 12 14 17 19 14 15 15 16 15 19 16 19 18 17 19 21 18 17 15 15 15 15 14 13 13 14 14 14 13 13 12 12
6 6 6 6 5 6 6 7 7 7 6 6 8 11 13 10 7 7 10 12 12 11 12 14 13 17 15 16 17 17 16 18 21 18 17 19 19 15 15 14 14 15 14 13 14 15 15 15 15 14 14 13 12 12
6 6 5 6 6 6 7 7 7 6 7 10 12 13 9 7 9 11 14 15 14 15 14 14 13 16 14 17 17 15 19 19 24 20 21 21 20 18 16 14 14 14 14 13 13 13 13 13 14 14 13 12 12 12
6 6 6 6 6 7 7 7 6 8 9 10 11 9 10 12 12 15 15 15 16 17 14 14 14 14 14 14 16 17 19 21 23 18 23 23 18 18 17 16 15 14 14 13 13 13 13 13 13 13 13 12 12 12
6 6 6 6 7 7 7 6 6 7 8 9 11 14 14 15 17 17 19 17 16 15 15 14 15 14 14 14 15 16 19 21 18 23 23 20 17 17 19 16 15 14 14 13 13 13 13 13 13 13 13 12 12 12
5 6 6 7 7 7 7 6 6 7 9 14 15 17 17 18 17 17 17 15 13 13 12 11 14 13 12 14 14 17 16 18 23 24 23 18 16 17 17 16 15 15 14 13 13 13 13 13 13 13 12 12 12 14
6 7 7 7 7 7 7 6 6 8 11 14 14 17 17 16 16 15 15 14 13 10 11 12 13 13 13 14 13 16 21 24 21 22 18 17 17 17 17 15 15 14 14 14 14 14 14 14 14 13 14 15 16 17
7 7 8 7 7 6 6 6 7 8 13 14 14 15 14 15 15 18 16 14 11 10 10 11 13 13 14 13 17 21 23 24 20 17 15 18 18 17 16 15 14 14 14 14 14 14 15 14 14 14 16 16 16 17
7 9 7 7 6 5 5 7 8 12 15 15 15 14 14 14 13 13 12 11 8 9 12 12 14 15 14 19 20 18 21 18 15 15 16 17 17 17 15 15 14 14 14 15 15 14 14 14 14 17 17 17 16 16
9 7 6 6 6 6 8 12 13 14 15 14 14 13 12 12 12 12 10 8 8 10 10 11 12 17 17 19 20 18 16 16 15 15 16 16 17 16 15 15 14 14 15 15 15 15 16 18 18 17 17 17 17 19
7 7 5 5 7 11 13 14 13 15 14 12 12 11 11 12 11 9 8 7 6 9 11 10 12 14 15 16 16 14 14 16 16 16 15 15 15 15 15 15 15 15 16 16 17 16 16 17 17 16 17 18 19 19
5 5 6 6 7 12 14 14 12 13 14 13 12 12 11 12 9 8 9 8 8 10 11 13 12 13 14 14 15 15 15 15 15 16 16 15 15 17 16 15 16 16 16 17 16 15 17 18 18 18 18 17 18 19
6 6 7 10 13 12 12 12 13 12 13 14 10 11 11 9 10 9 10 8 11 11 11 12 13 13 14 15 15 14 14 14 15 15 15 16 15 16 16 17 16 16 16 16 16 16 16 18 19 20 22 18 18 19
9 8 11 10 12 12 13 13 12 12 12 11 10 11 12 12 13 10 9 11 11 11 11 12 14 14 15 15 15 15 15 14 15 14 13 14 16 16 16 16 16 17 17 16 16 17 17 17 20 20 21 21 20 21
8 10 12 11 13 14 15 13 16 14 15 12 11 13 12 12 11 10 12 11 11 10 12 13 14 14 16 17 16 16 15 15 15 15 15 15 15 15 15 15 15 16 17 17 17 19 22 19 18 21 21 22 22 22
9 11 11 12 14 16 14 16 13 15 13 15 15 16 16 15 13 13 13 13 12 12 13 13 14 15 16 17 17 18 18 16 16 16 15 16 17 17 16 16 16 16 17 18 20 21 22 21 19 22 23 24 24 24
12 13 12 15 15 17 20 16 14 13 15 13 15 16 17 14 15 14 15 13 13 13 12 13 13 13 14 15 17 19 20 16 16 18 19 16 17 18 19 19 19 20 19 18 20 21 23 23 23 24 24 24 25 26
14 14 14 18 16 16 16 17 17 15 14 15 14 14 15 15 16 16 15 13 12 13 14 14 13 14 14 15 16 18 18 18 16 19 20 18 17 17 19 20 21 21 21 21 20 23 23 24 24 25 26 24 20 27
15 15 15 12 14 14 14 14 13 14 16 17 17 17 17 17 17 16 17 18 17 17 13 12 12 13 14 17 19 20 21 20 19 20 21 21 21 20 17 18 19 21 22 21 22 22 23 24 25 25 26 27 27 27
14 13 17 15 15 15 16 17 17 17 17 16 15 19 18 18 17 19 20 21 20 19 17 16 13 14 16 18 20 22 22 22 22 22 21 22 22 21 21 20 20 19 22 23 23 24 24 24 25 25 26 27 28 28
15 13 14 18 16 16 17 17 17 17 15 15 18 18 18 19 20 20 21 20 20 18 18 19 20 20 21 21 21 21 20 19 19 19 20 23 23 23 22 21 21 22 22 21 19 22 24 24 25 25 27 26 28 28
14 13 16 18 19 17 19 18 18 17 16 17 17 18 19 20 21 21 20 20 19 18 18 19 19 19 20 21 22 22 22 21 19 17 19 20 20 23 23 23 23 23 23 23 22 19 17 24 24 28 28 28 28 28
14 15 18 19 21 19 18 17 17 16 17 18 18 19 20 20 20 20 20 19 19 19 19 19 19 18 19 20 20 20 21 22 22 20 20 21 22 23 23 24 24 25 24 23 23 24 25 28 28 28 28 30 28 27
16 20 20 22 22 20 20 17 16 17 16 18 19 18 18 18 18 21 21 20 19 18 17 18 18 19 17 17 18 18 17 22 22 21 21 22 23 23 24 24 24 23 24 25 26 26 27 27 28 28 28 31 31 30
18 18 20 20 21 20 18 16 17 18 18 19 20 20 19 18 18 21 22 22 20 18 18 19 19 18 19 20 20 20 20 21 20 18 18 19 20 22 23 23 23 23 25 25 26 27 28 28 29 31 30 31 30 30

GFSWCAN_con_lsi_117.txt.gz
Lid_Strength_Index
5 5 5 5 5 5 4 4 5 6 6 6 5 5 5 5 5 8 10 8 10 12 13 14 14 16 16 17 19 17 17 17 18 19 20 21 21 19 21 19 20 20 23 23 22 24 24 13 14 17 15 12 11 11
6 5 5 5 5 5 4 4 5 5 6 7 6 6 5 5 5 6 9 7 6 10 12 12 12 13 14 14 16 17 17 17 17 18 20 20 20 23 21 23 18 21 18 19 19 19 15 13 14 12 12 12 12 12
6 6 6 5 5 5 4 4 5 5 6 7 7 6 6 6 5 5 8 7 7 10 11 14 14 13 13 13 13 17 16 15 16 15 18 18 19 19 22 21 20 18 16 18 18 17 15 13 12 12 11 12 13 13
6 6 6 6 5 5 5 4 4 5 6 7 7 7 6 6 5 5 9 7 8 9 15 15 12 14 12 13 13 13 14 14 15 16 19 20 19 17 19 19 19 18 16 18 18 16 15 14 13 12 13 13 13 13
6 6 6 6 6 5 5 5 5 5 6 6 7 7 6 6 5 6 7 7 6 10 15 15 13 13 13 13 13 13 14 15 17 19 20 19 17 18 19 19 21 17 17 18 19 16 16 15 14 12 14 14 13 14
6 6 6 6 6 5 5 5 6 6 6 7 7 6 7 6 5 8 11 8 7 8 13 17 13 14 13 13 14 14 14 15 16 17 18 17 16 18 21 21 17 17 15 15 15 15 15 14 13 13 14 14 14 14
6 6 6 6 6 6 6 5 6 6 7 7 7 6 6 7 10 10 11 9 8 8 12 15 17 14 13 14 14 15 15 16 16 17 18 18 18 19 22 21 17 15 15 15 15 14 16 15 15 14 14 14 12 13
6 6 6 6 6 6 5 6 6 6 7 7 7 7 6 6 8 11 9 7 7 10 11 15 18 17 14 16 17 15 17 17 17 17 17 19 19 19 21 18 16 16 15 16 15 14 14 14 14 15 14 14 14 14
6 6 6 6 6 5 5 6 6 7 7 7 6 7 8 10 13 13 8 9 9 10 14 15 20 22 15 15 15 16 16 20 17 19 18 18 20 22 18 17 17 16 16 15 15 14 14 14 15 15 14 14 14 13
6 6 6 5 5 5 5 6 7 7 7 7 8 12 14 11 8 9 13 13 13 13 13 16 17 19 16 16 17 17 16 18 22 18 17 19 20 16 16 15 15 16 14 15 16 16 16 16 15 15 15 14 13 13
6 6 6 6 6 6 6 6 7 7 7 10 13 14 11 8 11 14 15 16 15 17 15 15 15 18 15 18 17 14 19 20 26 20 20 23 21 18 16 15 14 15 14 14 14 13 13 14 15 15 15 14 13 12
6 6 6 6 6 6 6 7 7 8 10 11 11 10 11 13 15 17 17 16 17 18 15 16 15 16 15 13 15 15 17 18 22 18 22 25 19 16 17 16 16 15 14 14 14 14 14 14 14 14 14 14 13 12
6 6 6 5 5 5 6 7 7 8 9 10 12 15 16 16 19 20 20 18 17 16 15 17 18 16 15 15 15 16 18 18 17 24 23 21 17 15 18 17 17 16 14 14 14 13 13 14 14 14 14 14 12 13
5 6 6 5 5 6 7 7 7 8 11 15 16 19 18 19 18 18 18 17 15 16 16 15 18 16 14 14 14 16 16 17 23 24 23 19 15 14 17 17 16 16 14 14 14 14 14 14 14 14 14 13 13 13
4 5 5 5 5 7 7 7 7 8 12 15 15 19 18 18 20 18 17 16 15 13 14 16 17 16 18 15 15 17 21 23 21 22 18 14 14 15 17 17 17 15 14 14 14 14 14 14 14 15 14 14 14 15
4 4 5 5 7 7 7 7 8 10 14 15 16 17 17 17 18 18 20 17 14 12 14 15 18 16 15 16 18 20 22 23 20 18 15 14 15 16 17 16 16 15 14 14 14 14 15 15 15 15 16 17 18 18
5 9 6 6 7 7 7 9 11 14 15 15 16 14 17 18 16 18 16 14 12 12 17 17 18 17 16 18 20 19 21 18 16 15 14 13 14 15 16 16 15 15 15 14 14 14 15 15 15 15 17 18 17 17
10 7 6 7 8 8 9 11 13 14 17 16 18 17 15 16 15 15 15 13 13 14 15 16 14 18 20 23 21 17 16 15 15 13 13 13 14 15 14 15 15 15 15 15 15 16 16 16 15 17 18 18 19 19
8 7 7 7 9 12 14 15 14 16 16 17 19 15 15 15 15 13 12 11 12 12 13 17 17 18 18 17 17 16 14 13 11 13 13 13 14 14 14 15 15 16 16 15 15 15 15 16 17 17 17 18 19 20
6 7 7 7 9 13 14 15 13 15 18 17 16 15 16 17 15 15 14 11 13 16 16 16 16 14 13 12 13 12 11 12 13 14 13 13 14 14 14 14 15 16 17 17 17 16 18 18 18 18 18 18 19 19
7 7 7 7 12 13 13 15 15 14 15 17 14 15 16 16 15 16 16 13 12 14 14 13 10 9 11 12 10 11 11 11 11 11 13 14 14 14 14 15 15 15 16 16 17 18 17 18 19 19 21 18 19 19
8 7 12 11 14 14 15 14 15 15 15 15 14 15 16 16 14 13 12 12 13 12 11 10 9 7 11 11 11 11 10 11 12 12 11 12 15 15 15 15 15 16 16 16 16 17 19 19 20 20 20 21 20 22
8 10 13 13 15 16 18 14 16 17 17 16 15 16 17 17 17 12 13 14 13 12 9 11 12 13 11 13 12 11 10 11 12 13 13 14 14 14 15 15 15 16 17 17 17 17 17 17 17 20 20 22 22 23
9 12 14 15 16 19 16 17 17 17 16 16 16 18 17 14 12 13 15 16 11 11 11 11 11 13 13 13 13 13 13 12 13 13 13 14 15 15 14 15 15 15 16 17 17 19 19 19 18 21 22 23 25 25
13 14 14 17 18 19 19 19 19 22 22 21 23 19 16 15 16 16 19 16 12 10 10 10 11 10 11 12 13 14 15 13 14 14 14 13 15 16 17 17 18 18 17 18 19 20 20 21 22 22 23 24 25 27
17 17 17 18 18 21 21 21 22 22 22 23 22 21 19 18 18 18 17 14 12 11 11 11 11 11 11 11 13 14 15 15 13 15 16 15 15 16 17 18 19 20 20 17 19 20 21 22 23 24 25 22 20 28
18 19 18 16 17 18 18 18 17 19 22 20 19 19 16 17 19 16 17 18 18 16 15 10 10 10 11 12 14 15 15 14 15 17 19 19 18 16 15 17 18 18 19 18 19 20 21 22 24 25 27 28 28 29
16 18 19 18 20 20 20 20 20 18 17 17 17 19 19 19 16 18 19 20 21 18 16 12 11 11 13 15 17 19 20 20 20 20 20 20 21 20 19 19 18 17 19 19 20 21 21 23 24 25 26 27 30 31
20 16 17 22 22 21 20 18 19 19 16 16 18 19 18 18 21 22 21 20 19 17 16 17 17 17 18 18 18 19 19 18 18 18 19 21 21 22 20 19 20 19 19 19 18 22 25 24 25 25 27 27 29 31
19 17 20 25 22 21 22 21 21 19 18 18 18 20 20 22 22 21 20 19 18 18 17 17 17 17 19 19 20 20 21 20 18 16 18 19 20 22 21 21 21 20 20 20 21 19 18 22 23 29 29 29 29 30
16 18 21 22 23 22 20 19 18 17 19 21 21 21 22 22 21 20 20 19 18 17 17 17 17 17 18 18 18 19 19 21 20 18 19 20 21 21 21 21 21 21 20 21 22 24 24 28 28 28 28 29 28 28
17 20 21 23 23 20 18 17 17 18 18 17 17 18 22 21 20 20 20 20 19 18 16 17 17 17 16 15 15 16 15 21 19 19 20 21 21 22 22 22 22 22 23 24 24 26 27 27 28 29 29 30 31 32
17 19 19 20 19 20 18 19 17 19 17 17 19 20 18 20 19 20 20 20 19 18 17 17 16 16 17 17 18 18 19 20 19 17 17 18 19 20 22 22 22 23 24 25 26 26 27 29 29 30 29 30 32 33